Darstellungsparameter: Aktuell verwendete Einstellungen:
Skalierung der Graphiken ... ?
xyx+y,   Skalierungsfaktor:      Skalierung: Modus: x, Faktor: 1
Darstellungszeitraum ... ?
Vom - - bis: - -   Zeitraum: 22.12.2014 - 21.06.2015
Min/Max/Avg-Anzeige ... ?
Zeige MMA aktuell
Zeige MMA Monat
Zeige MMA alles
Zeige --A aktuell
Zeige --A Monat
Zeige --A alles
Keine MMA-Anzeige
MMA:
Average (ber die Originaldaten)
MMA-Basis: 22.12.2014 - 21.06.2015
Quicknavigation für Darstellung... ?
Tage:      1T, 2T, 3T, 5T -1T -2T -3T -5T +1T +2T +3T +5T
Wochen: 1W, 2W, 3W -1W -2W -3W +1W +2W +3W
Monate: 1M, 3M, 6M -1M -3M -6M +1M +3M +6M
Jahre:    1J, 3J, 5J, 10J -1J -3J -5J -10J +1J +3J +5J +10J
Nutze für die Darstellung ... ?
Originaldaten oder Mittelwerte auf ...
Stundenbasis Tagesbasis Wochenbasis
Monatsbasis Jahresbasis      Datenbasis: Original-Daten
Darstellen als:
Statistik (Auto) Statistik J:M      Darstellung:
Zur Graphik,    zurück zur Übersicht aller Sensoren.
 
Tabellarische Datenbersicht: ?
 
Sensor: Nr:Datum:Temp:Abs-Feuchte:Windchill:Wind:
Aussen-T/F 1 22-12-2014 00:00:00 7.6 C 6.93 g/m*3 4.61 C 17.7 km/h
2 22-12-2014 00:05:00 7.6 C 6.93 g/m*3 4.61 C 17.7 km/h
3 22-12-2014 00:10:00 7.6 C 6.93 g/m*3 4.61 C 17.7 km/h
4 22-12-2014 00:15:00 7.6 C 6.93 g/m*3 5.26 C 12.9 km/h
5 22-12-2014 00:20:00 7.6 C 6.93 g/m*3 5.26 C 12.9 km/h
6 22-12-2014 00:25:00 7.6 C 6.93 g/m*3 5.82 C 9.7 km/h
7 22-12-2014 00:30:00 7.6 C 6.93 g/m*3 5.26 C 12.9 km/h
8 22-12-2014 00:35:00 7.6 C 6.93 g/m*3 5.02 C 14.5 km/h
9 22-12-2014 00:40:00 7.6 C 6.93 g/m*3 4.81 C 16.1 km/h
10 22-12-2014 00:45:00 7.6 C 6.93 g/m*3 5.26 C 12.9 km/h
11 22-12-2014 00:50:00 7.6 C 6.93 g/m*3 5.82 C 9.7 km/h
12 22-12-2014 00:55:00 7.5 C 6.88 g/m*3 5.7 C 9.7 km/h
13 22-12-2014 01:00:00 7.5 C 6.88 g/m*3 4.48 C 17.7 km/h
14 22-12-2014 01:05:00 7.6 C 6.93 g/m*3 5.26 C 12.9 km/h
15 22-12-2014 01:10:00 7.6 C 6.93 g/m*3 4.81 C 16.1 km/h
16 22-12-2014 01:15:00 7.6 C 6.93 g/m*3 5.26 C 12.9 km/h
17 22-12-2014 01:20:00 7.6 C 6.93 g/m*3 3.94 C 24.1 km/h
18 22-12-2014 01:25:00 7.6 C 6.93 g/m*3 3.94 C 24.1 km/h
19 22-12-2014 01:30:00 7.6 C 6.93 g/m*3 4.81 C 16.1 km/h
20 22-12-2014 01:35:00 7.6 C 6.93 g/m*3 4.09 C 22.5 km/h
21 22-12-2014 01:40:00 7.6 C 6.93 g/m*3 5.02 C 14.5 km/h
22 22-12-2014 01:45:00 7.6 C 6.93 g/m*3 4.61 C 17.7 km/h
23 22-12-2014 01:50:00 7.6 C 6.93 g/m*3 4.42 C 19.3 km/h
24 22-12-2014 01:55:00 7.6 C 6.93 g/m*3 4.25 C 20.9 km/h
25 22-12-2014 02:00:00 7.6 C 6.93 g/m*3 4.25 C 20.9 km/h
Sensor: Nr:Datum:Temp:Abs-Feuchte:Windchill:Wind:
Aussen-T/F 26 22-12-2014 02:05:00 7.6 C 7.01 g/m*3 4.25 C 20.9 km/h
27 22-12-2014 02:10:00 7.5 C 6.96 g/m*3 4.9 C 14.5 km/h
28 22-12-2014 02:15:00 7.4 C 6.92 g/m*3 4.36 C 17.7 km/h
29 22-12-2014 02:20:00 7.4 C 7 g/m*3 4.36 C 17.7 km/h
30 22-12-2014 02:25:00 7.4 C 7 g/m*3 3.39 C 27.4 km/h
31 22-12-2014 02:30:00 7.4 C 7 g/m*3 3.84 C 22.5 km/h
32 22-12-2014 02:35:00 7.4 C 7 g/m*3 4.78 C 14.5 km/h
33 22-12-2014 02:40:00 7.4 C 7 g/m*3 3.39 C 27.4 km/h
34 22-12-2014 02:45:00 7.4 C 7 g/m*3 3.14 C 30.6 km/h
35 22-12-2014 02:50:00 7.4 C 7 g/m*3 4.36 C 17.7 km/h
36 22-12-2014 02:55:00 7.4 C 7 g/m*3 4.36 C 17.7 km/h
37 22-12-2014 03:00:00 7.4 C 7 g/m*3 4.78 C 14.5 km/h
38 22-12-2014 03:05:00 7.4 C 7 g/m*3 4.17 C 19.3 km/h
39 22-12-2014 03:10:00 7.4 C 7 g/m*3 4.78 C 14.5 km/h
40 22-12-2014 03:15:00 7.4 C 7 g/m*3 4 C 20.9 km/h
41 22-12-2014 03:20:00 7.4 C 7.08 g/m*3 4.56 C 16.1 km/h
42 22-12-2014 03:25:00 7.4 C 7.08 g/m*3 3.68 C 24.1 km/h
43 22-12-2014 03:30:00 7.4 C 7.08 g/m*3 4 C 20.9 km/h
44 22-12-2014 03:35:00 7.4 C 7 g/m*3 4.56 C 16.1 km/h
45 22-12-2014 03:40:00 7.4 C 7 g/m*3 3.26 C 29 km/h
46 22-12-2014 03:45:00 7.5 C 7.04 g/m*3 3.27 C 30.6 km/h
47 22-12-2014 03:50:00 7.6 C 7.01 g/m*3 3.4 C 30.6 km/h
48 22-12-2014 03:55:00 7.7 C 7.05 g/m*3 3.65 C 29 km/h
49 22-12-2014 04:00:00 7.7 C 7.05 g/m*3 3.41 C 32.2 km/h
50 22-12-2014 04:05:00 7.7 C 7.05 g/m*3 4.73 C 17.7 km/h
Sensor: Nr:Datum:Temp:Abs-Feuchte:Windchill:Wind:
Aussen-T/F 51 22-12-2014 04:10:00 7.7 C 6.97 g/m*3 3.3 C 33.8 km/h
52 22-12-2014 04:15:00 7.7 C 7.05 g/m*3 3.78 C 27.4 km/h
53 22-12-2014 04:20:00 7.7 C 7.05 g/m*3 4.55 C 19.3 km/h
54 22-12-2014 04:25:00 7.7 C 7.05 g/m*3 4.38 C 20.9 km/h
55 22-12-2014 04:30:00 7.7 C 7.05 g/m*3 4.22 C 22.5 km/h
56 22-12-2014 04:35:00 7.7 C 7.05 g/m*3 4.22 C 22.5 km/h
57 22-12-2014 04:40:00 7.7 C 7.05 g/m*3 3.41 C 32.2 km/h
58 22-12-2014 04:45:00 7.7 C 7.05 g/m*3 3.65 C 29 km/h
59 22-12-2014 04:50:00 7.7 C 7.05 g/m*3 4.38 C 20.9 km/h
60 22-12-2014 04:55:00 7.8 C 7.1 g/m*3 4.2 C 24.1 km/h
61 22-12-2014 05:00:00 7.7 C 7.05 g/m*3 3.92 C 25.7 km/h
62 22-12-2014 05:05:00 7.7 C 7.05 g/m*3 4.22 C 22.5 km/h
63 22-12-2014 05:10:00 7.7 C 7.05 g/m*3 4.93 C 16.1 km/h
64 22-12-2014 05:15:00 7.7 C 7.05 g/m*3 4.07 C 24.1 km/h
65 22-12-2014 05:20:00 7.8 C 7.1 g/m*3 4.35 C 22.5 km/h
66 22-12-2014 05:25:00 7.8 C 7.1 g/m*3 4.51 C 20.9 km/h
67 22-12-2014 05:30:00 7.8 C 7.1 g/m*3 4.2 C 24.1 km/h
68 22-12-2014 05:35:00 7.8 C 7.1 g/m*3 4.68 C 19.3 km/h
69 22-12-2014 05:40:00 7.8 C 7.1 g/m*3 4.68 C 19.3 km/h
70 22-12-2014 05:45:00 7.8 C 7.1 g/m*3 4.51 C 20.9 km/h
71 22-12-2014 05:50:00 7.8 C 7.1 g/m*3 5.06 C 16.1 km/h
72 22-12-2014 05:55:00 7.8 C 7.1 g/m*3 4.86 C 17.7 km/h
73 22-12-2014 06:00:00 7.7 C 7.05 g/m*3 4.22 C 22.5 km/h
74 22-12-2014 06:05:00 7.7 C 7.05 g/m*3 4.73 C 17.7 km/h
75 22-12-2014 06:10:00 7.7 C 7.14 g/m*3 4.55 C 19.3 km/h
Sensor: Nr:Datum:Temp:Abs-Feuchte:Windchill:Wind:
Aussen-T/F 76 22-12-2014 06:15:00 7.7 C 7.14 g/m*3 5.65 C 11.3 km/h
77 22-12-2014 06:20:00 7.7 C 7.14 g/m*3 5.38 C 12.9 km/h
78 22-12-2014 06:25:00 7.7 C 7.14 g/m*3 4.55 C 19.3 km/h
79 22-12-2014 06:30:00 7.7 C 7.14 g/m*3 4.55 C 19.3 km/h
80 22-12-2014 06:35:00 7.8 C 7.18 g/m*3 4.2 C 24.1 km/h
81 22-12-2014 06:40:00 7.8 C 7.18 g/m*3 4.51 C 20.9 km/h
82 22-12-2014 06:45:00 7.8 C 7.18 g/m*3 4.51 C 20.9 km/h
83 22-12-2014 06:50:00 7.8 C 7.18 g/m*3 4.05 C 25.7 km/h
84 22-12-2014 06:55:00 7.8 C 7.18 g/m*3 4.68 C 19.3 km/h
85 22-12-2014 07:00:00 7.8 C 7.18 g/m*3 5.06 C 16.1 km/h
86 22-12-2014 07:05:00 7.8 C 7.18 g/m*3 5.27 C 14.5 km/h
87 22-12-2014 07:10:00 7.8 C 7.18 g/m*3 4.51 C 20.9 km/h
88 22-12-2014 07:15:00 7.8 C 7.18 g/m*3 4.68 C 19.3 km/h
89 22-12-2014 07:20:00 7.8 C 7.18 g/m*3 4.35 C 22.5 km/h
90 22-12-2014 07:25:00 7.8 C 7.18 g/m*3 4.35 C 22.5 km/h
91 22-12-2014 07:30:00 7.8 C 7.18 g/m*3 3.78 C 29 km/h
92 22-12-2014 07:35:00 7.8 C 7.18 g/m*3 4.51 C 20.9 km/h
93 22-12-2014 07:40:00 7.8 C 7.18 g/m*3 4.68 C 19.3 km/h
94 22-12-2014 07:45:00 7.8 C 7.18 g/m*3 4.86 C 17.7 km/h
95 22-12-2014 07:50:00 7.8 C 7.18 g/m*3 4.51 C 20.9 km/h
96 22-12-2014 07:55:00 7.9 C 7.23 g/m*3 4.32 C 24.1 km/h
97 22-12-2014 08:00:00 7.9 C 7.23 g/m*3 4.47 C 22.5 km/h
98 22-12-2014 08:05:00 7.9 C 7.23 g/m*3 4.8 C 19.3 km/h
99 22-12-2014 08:10:00 7.9 C 7.23 g/m*3 4.8 C 19.3 km/h
100 22-12-2014 08:15:00 7.9 C 7.15 g/m*3 5.39 C 14.5 km/h
Sensor: Nr:Datum:Temp:Abs-Feuchte:Windchill:Wind:
Aussen-T/F 101 22-12-2014 08:20:00 7.9 C 7.15 g/m*3 4.18 C 25.7 km/h
102 22-12-2014 08:25:00 7.9 C 7.15 g/m*3 4.04 C 27.4 km/h
103 22-12-2014 08:30:00 7.9 C 7.15 g/m*3 5.63 C 12.9 km/h
104 22-12-2014 08:35:00 7.9 C 7.15 g/m*3 4.98 C 17.7 km/h
105 22-12-2014 08:40:00 7.9 C 7.15 g/m*3 4.18 C 25.7 km/h
106 22-12-2014 08:45:00 7.9 C 7.15 g/m*3 4.32 C 24.1 km/h
107 22-12-2014 08:50:00 8 C 7.19 g/m*3 5.11 C 17.7 km/h
108 22-12-2014 08:55:00 7.9 C 7.15 g/m*3 4.47 C 22.5 km/h
109 22-12-2014 09:00:00 7.9 C 7.15 g/m*3 4.32 C 24.1 km/h
110 22-12-2014 09:05:00 7.9 C 7.15 g/m*3 4.8 C 19.3 km/h
111 22-12-2014 09:10:00 7.9 C 7.15 g/m*3 4.47 C 22.5 km/h
112 22-12-2014 09:15:00 7.9 C 7.15 g/m*3 4.98 C 17.7 km/h
113 22-12-2014 09:20:00 7.9 C 7.15 g/m*3 4.18 C 25.7 km/h
114 22-12-2014 09:25:00 7.9 C 7.15 g/m*3 4.47 C 22.5 km/h
115 22-12-2014 09:30:00 7.9 C 7.15 g/m*3 4.04 C 27.4 km/h
116 22-12-2014 09:35:00 8 C 7.19 g/m*3 3.92 C 30.6 km/h
117 22-12-2014 09:40:00 8.1 C 7.24 g/m*3 3.52 C 38.6 km/h
118 22-12-2014 09:45:00 8.1 C 7.24 g/m*3 4.17 C 29 km/h
119 22-12-2014 09:50:00 8.1 C 7.24 g/m*3 4.73 C 22.5 km/h
120 22-12-2014 09:55:00 8.1 C 7.24 g/m*3 4.58 C 24.1 km/h
121 22-12-2014 10:00:00 8.1 C 7.16 g/m*3 4.89 C 20.9 km/h
122 22-12-2014 10:05:00 8.1 C 7.16 g/m*3 4.73 C 22.5 km/h
123 22-12-2014 10:10:00 8.1 C 7.16 g/m*3 4.3 C 27.4 km/h
124 22-12-2014 10:15:00 8.1 C 7.16 g/m*3 5.05 C 19.3 km/h
125 22-12-2014 10:20:00 8.1 C 7.16 g/m*3 4.89 C 20.9 km/h
Sensor: Nr:Datum:Temp:Abs-Feuchte:Windchill:Wind:
Aussen-T/F 126 22-12-2014 10:25:00 8.1 C 7.24 g/m*3 4.05 C 30.6 km/h
127 22-12-2014 10:30:00 8.1 C 7.24 g/m*3 4.89 C 20.9 km/h
128 22-12-2014 10:35:00 8.1 C 7.24 g/m*3 4.17 C 29 km/h
129 22-12-2014 10:40:00 8.1 C 7.24 g/m*3 4.73 C 22.5 km/h
130 22-12-2014 10:45:00 8.1 C 7.24 g/m*3 4.17 C 29 km/h
131 22-12-2014 10:50:00 8.1 C 7.24 g/m*3 4.89 C 20.9 km/h
132 22-12-2014 10:55:00 8.1 C 7.16 g/m*3 5.05 C 19.3 km/h
133 22-12-2014 11:00:00 8.1 C 7.16 g/m*3 5.05 C 19.3 km/h
134 22-12-2014 11:05:00 8.2 C 7.2 g/m*3 4.86 C 22.5 km/h
135 22-12-2014 11:10:00 8.2 C 7.2 g/m*3 4.86 C 22.5 km/h
136 22-12-2014 11:15:00 8.2 C 7.2 g/m*3 5.01 C 20.9 km/h
137 22-12-2014 11:20:00 8.2 C 7.2 g/m*3 5.55 C 16.1 km/h
138 22-12-2014 11:25:00 8.2 C 7.2 g/m*3 5.18 C 19.3 km/h
139 22-12-2014 11:30:00 8.2 C 7.2 g/m*3 4.3 C 29 km/h
140 22-12-2014 11:35:00 8.2 C 7.2 g/m*3 5.55 C 16.1 km/h
141 22-12-2014 11:40:00 8.2 C 7.2 g/m*3 5.76 C 14.5 km/h
142 22-12-2014 11:45:00 8.2 C 7.2 g/m*3 5.55 C 16.1 km/h
143 22-12-2014 11:50:00 8.2 C 7.2 g/m*3 4.86 C 22.5 km/h
144 22-12-2014 11:55:00 8.2 C 7.2 g/m*3 5.36 C 17.7 km/h
145 22-12-2014 12:00:00 8.2 C 7.2 g/m*3 4.43 C 27.4 km/h
146 22-12-2014 12:05:00 8.2 C 7.2 g/m*3 5.36 C 17.7 km/h
147 22-12-2014 12:10:00 8.2 C 7.29 g/m*3 4.18 C 30.6 km/h
148 22-12-2014 12:15:00 8.2 C 7.29 g/m*3 5.36 C 17.7 km/h
149 22-12-2014 12:20:00 8.2 C 7.29 g/m*3 5.55 C 16.1 km/h
150 22-12-2014 12:25:00 8.2 C 7.29 g/m*3 6.54 C 9.7 km/h
Sensor: Nr:Datum:Temp:Abs-Feuchte:Windchill:Wind:
Aussen-T/F 151 22-12-2014 12:30:00 8.2 C 7.29 g/m*3 5.36 C 17.7 km/h
152 22-12-2014 12:35:00 8.2 C 7.2 g/m*3 5.76 C 14.5 km/h
153 22-12-2014 12:40:00 8.3 C 7.25 g/m*3 5.48 C 17.7 km/h
154 22-12-2014 12:45:00 8.3 C 7.33 g/m*3 5.48 C 17.7 km/h
155 22-12-2014 12:50:00 8.3 C 7.33 g/m*3 5.31 C 19.3 km/h
156 22-12-2014 12:55:00 8.3 C 7.25 g/m*3 4.84 C 24.1 km/h
157 22-12-2014 13:00:00 8.3 C 7.33 g/m*3 5.14 C 20.9 km/h
158 22-12-2014 13:05:00 8.3 C 7.33 g/m*3 5.31 C 19.3 km/h
159 22-12-2014 13:10:00 8.4 C 7.38 g/m*3 6.01 C 14.5 km/h
160 22-12-2014 13:15:00 8.3 C 7.33 g/m*3 5.89 C 14.5 km/h
161 22-12-2014 13:20:00 8.3 C 7.33 g/m*3 5.89 C 14.5 km/h
162 22-12-2014 13:25:00 8.3 C 7.33 g/m*3 6.66 C 9.7 km/h
163 22-12-2014 13:30:00 8.3 C 7.33 g/m*3 5.48 C 17.7 km/h
164 22-12-2014 13:35:00 8.3 C 7.33 g/m*3 6.12 C 12.9 km/h
165 22-12-2014 13:40:00 8.4 C 7.38 g/m*3 6.49 C 11.3 km/h
166 22-12-2014 13:45:00 8.4 C 7.38 g/m*3 5.8 C 16.1 km/h
167 22-12-2014 13:50:00 8.4 C 7.38 g/m*3 5.61 C 17.7 km/h
168 22-12-2014 13:55:00 8.4 C 7.38 g/m*3 6.78 C 9.7 km/h
169 22-12-2014 14:00:00 8.4 C 7.38 g/m*3 6.24 C 12.9 km/h
170 22-12-2014 14:05:00 8.4 C 7.38 g/m*3 5.8 C 16.1 km/h
171 22-12-2014 14:10:00 8.4 C 7.38 g/m*3 5.27 C 20.9 km/h
172 22-12-2014 14:15:00 8.4 C 7.38 g/m*3 4.96 C 24.1 km/h
173 22-12-2014 14:20:00 8.5 C 7.43 g/m*3 5.73 C 17.7 km/h
174 22-12-2014 14:25:00 8.6 C 7.48 g/m*3 5.86 C 17.7 km/h
175 22-12-2014 14:30:00 8.6 C 7.48 g/m*3 6.25 C 14.5 km/h
Sensor: Nr:Datum:Temp:Abs-Feuchte:Windchill:Wind:
Aussen-T/F 176 22-12-2014 14:35:00 8.7 C 7.52 g/m*3 5.81 C 19.3 km/h
177 22-12-2014 14:40:00 8.7 C 7.52 g/m*3 5.35 C 24.1 km/h
178 22-12-2014 14:45:00 8.7 C 7.52 g/m*3 5.65 C 20.9 km/h
179 22-12-2014 14:50:00 8.7 C 7.52 g/m*3 6.38 C 14.5 km/h
180 22-12-2014 14:55:00 8.7 C 7.52 g/m*3 5.49 C 22.5 km/h
181 22-12-2014 15:00:00 8.7 C 7.52 g/m*3 5.65 C 20.9 km/h
182 22-12-2014 15:05:00 8.7 C 7.52 g/m*3 6.17 C 16.1 km/h
183 22-12-2014 15:10:00 8.7 C 7.52 g/m*3 5.81 C 19.3 km/h
184 22-12-2014 15:15:00 8.7 C 7.52 g/m*3 4.62 C 33.8 km/h
185 22-12-2014 15:20:00 8.8 C 7.57 g/m*3 5.34 C 25.7 km/h
186 22-12-2014 15:25:00 8.8 C 7.57 g/m*3 5.08 C 29 km/h
187 22-12-2014 15:30:00 8.8 C 7.57 g/m*3 5.93 C 19.3 km/h
188 22-12-2014 15:35:00 8.8 C 7.57 g/m*3 5.77 C 20.9 km/h
189 22-12-2014 15:40:00 8.8 C 7.57 g/m*3 5.48 C 24.1 km/h
190 22-12-2014 15:45:00 8.7 C 7.52 g/m*3 5.98 C 17.7 km/h
191 22-12-2014 15:50:00 8.7 C 7.52 g/m*3 5.35 C 24.1 km/h
192 22-12-2014 15:55:00 8.7 C 7.52 g/m*3 6.85 C 11.3 km/h
193 22-12-2014 16:00:00 8.7 C 7.52 g/m*3 5.81 C 19.3 km/h
194 22-12-2014 16:05:00 8.7 C 7.61 g/m*3 5.98 C 17.7 km/h
195 22-12-2014 16:10:00 8.7 C 7.61 g/m*3 7.87 C 6.4 km/h
196 22-12-2014 16:15:00 8.7 C 7.61 g/m*3 6.38 C 14.5 km/h
197 22-12-2014 16:20:00 8.7 C 7.61 g/m*3 6.38 C 14.5 km/h
198 22-12-2014 16:25:00 8.8 C 7.66 g/m*3 6.3 C 16.1 km/h
199 22-12-2014 16:30:00 8.8 C 7.66 g/m*3 7.58 C 8.1 km/h
200 22-12-2014 16:35:00 8.8 C 7.66 g/m*3 6.5 C 14.5 km/h
Sensor: Nr:Datum:Temp:Abs-Feuchte:Windchill:Wind:
Aussen-T/F 201 22-12-2014 16:40:00 8.8 C 7.66 g/m*3 6.3 C 16.1 km/h
202 22-12-2014 16:45:00 8.8 C 7.66 g/m*3 7.25 C 9.7 km/h
203 22-12-2014 16:50:00 8.8 C 7.66 g/m*3 5.93 C 19.3 km/h
204 22-12-2014 16:55:00 8.8 C 7.66 g/m*3 5.77 C 20.9 km/h
205 22-12-2014 17:00:00 8.9 C 7.71 g/m*3 6.06 C 19.3 km/h
206 22-12-2014 17:05:00 8.9 C 7.71 g/m*3 6.62 C 14.5 km/h
207 22-12-2014 17:10:00 8.9 C 7.71 g/m*3 6.23 C 17.7 km/h
208 22-12-2014 17:15:00 8.9 C 7.71 g/m*3 6.06 C 19.3 km/h
209 22-12-2014 17:20:00 8.9 C 7.71 g/m*3 6.62 C 14.5 km/h
210 22-12-2014 17:25:00 8.9 C 7.71 g/m*3 7.09 C 11.3 km/h
211 22-12-2014 17:30:00 8.9 C 7.71 g/m*3 6.85 C 12.9 km/h
212 22-12-2014 17:35:00 8.9 C 7.71 g/m*3 5.6 C 24.1 km/h
213 22-12-2014 17:40:00 8.9 C 7.8 g/m*3 6.62 C 14.5 km/h
214 22-12-2014 17:45:00 8.9 C 7.8 g/m*3 5.9 C 20.9 km/h
215 22-12-2014 17:50:00 8.9 C 7.8 g/m*3 6.62 C 14.5 km/h
216 22-12-2014 17:55:00 8.9 C 7.8 g/m*3 6.42 C 16.1 km/h
217 22-12-2014 18:00:00 9 C 7.85 g/m*3 6.19 C 19.3 km/h
218 22-12-2014 18:05:00 9.1 C 7.9 g/m*3 6.87 C 14.5 km/h
219 22-12-2014 18:10:00 9.1 C 7.9 g/m*3 7.33 C 11.3 km/h
220 22-12-2014 18:15:00 9.1 C 7.9 g/m*3 6.15 C 20.9 km/h
221 22-12-2014 18:20:00 9.2 C 7.95 g/m*3 7.21 C 12.9 km/h
222 22-12-2014 18:25:00 9.2 C 7.95 g/m*3 6.61 C 17.7 km/h
223 22-12-2014 18:30:00 9.2 C 7.95 g/m*3 6.79 C 16.1 km/h
224 22-12-2014 18:35:00 9.2 C 7.95 g/m*3 7.73 C 9.7 km/h
225 22-12-2014 18:40:00 9.2 C 7.95 g/m*3 6.79 C 16.1 km/h
Sensor: Nr:Datum:Temp:Abs-Feuchte:Windchill:Wind:
Aussen-T/F 226 22-12-2014 18:45:00 9.2 C 7.95 g/m*3 5.6 C 29 km/h
227 22-12-2014 18:50:00 9.3 C 8 g/m*3 5.73 C 29 km/h
228 22-12-2014 18:55:00 9.3 C 8 g/m*3 6.41 C 20.9 km/h
229 22-12-2014 19:00:00 9.3 C 8 g/m*3 6.41 C 20.9 km/h
230 22-12-2014 19:05:00 9.3 C 8 g/m*3 6.56 C 19.3 km/h
231 22-12-2014 19:10:00 9.3 C 7.91 g/m*3 7.12 C 14.5 km/h
232 22-12-2014 19:15:00 9.4 C 7.96 g/m*3 7.7 C 11.3 km/h
233 22-12-2014 19:20:00 9.3 C 7.91 g/m*3 6.92 C 16.1 km/h
234 22-12-2014 19:25:00 9.3 C 7.91 g/m*3 6.73 C 17.7 km/h
235 22-12-2014 19:30:00 9.4 C 7.96 g/m*3 6.25 C 24.1 km/h
236 22-12-2014 19:35:00 9.4 C 7.96 g/m*3 7.24 C 14.5 km/h
237 22-12-2014 19:40:00 9.4 C 7.96 g/m*3 7.04 C 16.1 km/h
238 22-12-2014 19:45:00 9.4 C 7.96 g/m*3 6.86 C 17.7 km/h
239 22-12-2014 19:50:00 9.4 C 7.96 g/m*3 6.69 C 19.3 km/h
240 22-12-2014 19:55:00 9.5 C 8.01 g/m*3 6.37 C 24.1 km/h
241 22-12-2014 20:00:00 9.5 C 8.01 g/m*3 6.66 C 20.9 km/h
242 22-12-2014 20:05:00 9.5 C 8.01 g/m*3 7.36 C 14.5 km/h
243 22-12-2014 20:10:00 9.5 C 8.01 g/m*3 7.16 C 16.1 km/h
244 22-12-2014 20:15:00 9.4 C 7.96 g/m*3 6.86 C 17.7 km/h
245 22-12-2014 20:20:00 9.4 C 7.96 g/m*3 6.53 C 20.9 km/h
246 22-12-2014 20:25:00 9.4 C 7.96 g/m*3 6.25 C 24.1 km/h
247 22-12-2014 20:30:00 9.3 C 7.91 g/m*3 6.92 C 16.1 km/h
248 22-12-2014 20:35:00 9.4 C 7.96 g/m*3 6.11 C 25.7 km/h
249 22-12-2014 20:40:00 9.4 C 7.96 g/m*3 5.86 C 29 km/h
250 22-12-2014 20:45:00 9.3 C 7.91 g/m*3 6.12 C 24.1 km/h
Sensor: Nr:Datum:Temp:Abs-Feuchte:Windchill:Wind:
Aussen-T/F 251 22-12-2014 20:50:00 9.3 C 7.91 g/m*3 6.26 C 22.5 km/h
252 22-12-2014 20:55:00 9.3 C 7.91 g/m*3 5.85 C 27.4 km/h
253 22-12-2014 21:00:00 9.3 C 8 g/m*3 6.92 C 16.1 km/h
254 22-12-2014 21:05:00 9.3 C 8 g/m*3 6.73 C 17.7 km/h
255 22-12-2014 21:10:00 9.3 C 8 g/m*3 7.12 C 14.5 km/h
256 22-12-2014 21:15:00 9.2 C 7.95 g/m*3 6.79 C 16.1 km/h
257 22-12-2014 21:20:00 9.3 C 8 g/m*3 6.92 C 16.1 km/h
258 22-12-2014 21:25:00 9.3 C 8 g/m*3 7.12 C 14.5 km/h
259 22-12-2014 21:30:00 9.2 C 7.95 g/m*3 7.46 C 11.3 km/h
260 22-12-2014 21:35:00 9.2 C 7.95 g/m*3 6.79 C 16.1 km/h
261 22-12-2014 21:40:00 9.2 C 7.95 g/m*3 6.79 C 16.1 km/h
262 22-12-2014 21:45:00 9.3 C 8 g/m*3 7.58 C 11.3 km/h
263 22-12-2014 21:50:00 9.3 C 8 g/m*3 8.16 C 8.1 km/h
264 22-12-2014 21:55:00 9.3 C 8 g/m*3 8.16 C 8.1 km/h
265 22-12-2014 22:00:00 9.3 C 8 g/m*3 8.56 C 6.4 km/h
266 22-12-2014 22:05:00 9.3 C 8 g/m*3 7.85 C 9.7 km/h
267 22-12-2014 22:10:00 9.3 C 8 g/m*3 7.33 C 12.9 km/h
268 22-12-2014 22:15:00 9.3 C 8 g/m*3 7.85 C 9.7 km/h
269 22-12-2014 22:20:00 9.3 C 8 g/m*3 8.16 C 8.1 km/h
270 22-12-2014 22:25:00 9.3 C 8.09 g/m*3 7.58 C 11.3 km/h
271 22-12-2014 22:30:00 9.3 C 8.09 g/m*3 7.12 C 14.5 km/h
272 22-12-2014 22:35:00 9.4 C 8.05 g/m*3 8.68 C 6.4 km/h
273 22-12-2014 22:40:00 9.4 C 8.05 g/m*3 7.46 C 12.9 km/h
274 22-12-2014 22:45:00 9.4 C 8.05 g/m*3 8.28 C 8.1 km/h
275 22-12-2014 22:50:00 9.4 C 8.05 g/m*3 7.97 C 9.7 km/h
Sensor: Nr:Datum:Temp:Abs-Feuchte:Windchill:Wind:
Aussen-T/F 276 22-12-2014 22:55:00 9.4 C 8.05 g/m*3 9.4 C 4.8 km/h
277 22-12-2014 23:00:00 9.4 C 8.05 g/m*3 8.68 C 6.4 km/h
278 22-12-2014 23:05:00 9.5 C 8.1 g/m*3 7.58 C 12.9 km/h
279 22-12-2014 23:10:00 9.6 C 8.15 g/m*3 7.94 C 11.3 km/h
280 22-12-2014 23:15:00 9.6 C 8.15 g/m*3 8.91 C 6.4 km/h
281 22-12-2014 23:20:00 9.6 C 8.15 g/m*3 8.21 C 9.7 km/h
282 22-12-2014 23:25:00 9.7 C 8.2 g/m*3 8.63 C 8.1 km/h
283 22-12-2014 23:30:00 9.7 C 8.2 g/m*3 7.82 C 12.9 km/h
284 22-12-2014 23:35:00 9.7 C 8.2 g/m*3 8.33 C 9.7 km/h
285 22-12-2014 23:40:00 9.7 C 8.2 g/m*3 7.61 C 14.5 km/h
286 22-12-2014 23:45:00 9.7 C 8.2 g/m*3 7.82 C 12.9 km/h
287 22-12-2014 23:50:00 9.7 C 8.2 g/m*3 8.33 C 9.7 km/h
288 22-12-2014 23:55:00 9.8 C 8.26 g/m*3 8.18 C 11.3 km/h
289 23-12-2014 00:00:00 9.8 C 8.26 g/m*3 8.45 C 9.7 km/h
290 23-12-2014 00:05:00 9.8 C 8.26 g/m*3 8.18 C 11.3 km/h
291 23-12-2014 00:10:00 9.8 C 8.26 g/m*3 7.54 C 16.1 km/h
292 23-12-2014 00:15:00 9.8 C 8.26 g/m*3 7.73 C 14.5 km/h
293 23-12-2014 00:20:00 9.8 C 8.16 g/m*3 7.54 C 16.1 km/h
294 23-12-2014 00:25:00 9.9 C 8.22 g/m*3 7.48 C 17.7 km/h
295 23-12-2014 00:30:00 9.9 C 8.22 g/m*3 7.85 C 14.5 km/h
296 23-12-2014 00:35:00 9.9 C 8.22 g/m*3 8.3 C 11.3 km/h
297 23-12-2014 00:40:00 10 C 8.27 g/m*3 8.42 C 11.3 km/h
298 23-12-2014 00:45:00 10 C 8.27 g/m*3 9.37 C 6.4 km/h
299 23-12-2014 00:50:00 10 C 8.27 g/m*3 9.37 C 6.4 km/h
300 23-12-2014 00:55:00 10 C 8.27 g/m*3 8.42 C 11.3 km/h
Sensor: Nr:Datum:Temp:Abs-Feuchte:Windchill:Wind:
Aussen-T/F 301 23-12-2014 01:00:00 10.1 C 8.32 g/m*3 8.54 C 11.3 km/h
302 23-12-2014 01:05:00 10.1 C 8.32 g/m*3 8.54 C 11.3 km/h
303 23-12-2014 01:10:00 10.1 C 8.32 g/m*3 9.1 C 8.1 km/h
304 23-12-2014 01:15:00 10.1 C 8.32 g/m*3 8.31 C 12.9 km/h
305 23-12-2014 01:20:00 10.1 C 8.32 g/m*3 8.54 C 11.3 km/h
306 23-12-2014 01:25:00 10.1 C 8.32 g/m*3 9.1 C 8.1 km/h
307 23-12-2014 01:30:00 10.1 C 8.32 g/m*3 8.8 C 9.7 km/h
308 23-12-2014 01:35:00 10 C 8.27 g/m*3 8.68 C 9.7 km/h
309 23-12-2014 01:40:00 10 C 8.27 g/m*3 8.68 C 9.7 km/h
310 23-12-2014 01:45:00 10 C 8.27 g/m*3 9.37 C 6.4 km/h
311 23-12-2014 01:50:00 10.1 C 8.32 g/m*3 8.31 C 12.9 km/h
312 23-12-2014 01:55:00 10.1 C 8.32 g/m*3 7.91 C 16.1 km/h
313 23-12-2014 02:00:00 10.1 C 8.32 g/m*3 9.48 C 6.4 km/h
314 23-12-2014 02:05:00 10.1 C 8.32 g/m*3 8.31 C 12.9 km/h
315 23-12-2014 02:10:00 10.1 C 8.32 g/m*3 8.54 C 11.3 km/h
316 23-12-2014 02:15:00 10.1 C 8.32 g/m*3 8.1 C 14.5 km/h
317 23-12-2014 02:20:00 10.2 C 8.37 g/m*3 8.66 C 11.3 km/h
318 23-12-2014 02:25:00 10.2 C 8.28 g/m*3 8.03 C 16.1 km/h
319 23-12-2014 02:30:00 10.3 C 8.33 g/m*3 8.34 C 14.5 km/h
320 23-12-2014 02:35:00 10.3 C 8.33 g/m*3 7.82 C 19.3 km/h
321 23-12-2014 02:40:00 10.3 C 8.33 g/m*3 8.16 C 16.1 km/h
322 23-12-2014 02:45:00 10.3 C 8.33 g/m*3 8.34 C 14.5 km/h
323 23-12-2014 02:50:00 10.3 C 8.33 g/m*3 7.82 C 19.3 km/h
324 23-12-2014 02:55:00 10.4 C 8.38 g/m*3 8.11 C 17.7 km/h
325 23-12-2014 03:00:00 10.4 C 8.29 g/m*3 8.11 C 17.7 km/h
Sensor: Nr:Datum:Temp:Abs-Feuchte:Windchill:Wind:
Aussen-T/F 326 23-12-2014 03:05:00 10.4 C 8.29 g/m*3 8.67 C 12.9 km/h
327 23-12-2014 03:10:00 10.4 C 8.29 g/m*3 8.9 C 11.3 km/h
328 23-12-2014 03:15:00 10.3 C 8.33 g/m*3 7.53 C 22.5 km/h
329 23-12-2014 03:20:00 10.3 C 8.33 g/m*3 7.82 C 19.3 km/h
330 23-12-2014 03:25:00 10.2 C 8.28 g/m*3 8.03 C 16.1 km/h
331 23-12-2014 03:30:00 10.2 C 8.28 g/m*3 8.22 C 14.5 km/h
332 23-12-2014 03:35:00 10.2 C 8.28 g/m*3 9.22 C 8.1 km/h
333 23-12-2014 03:40:00 10.2 C 8.28 g/m*3 8.92 C 9.7 km/h
334 23-12-2014 03:45:00 10.2 C 8.28 g/m*3 8.43 C 12.9 km/h
335 23-12-2014 03:50:00 10.2 C 8.28 g/m*3 7.7 C 19.3 km/h
336 23-12-2014 03:55:00 10.3 C 8.33 g/m*3 7.27 C 25.7 km/h
337 23-12-2014 04:00:00 10.4 C 8.29 g/m*3 8.28 C 16.1 km/h
338 23-12-2014 04:05:00 10.3 C 8.24 g/m*3 8.78 C 11.3 km/h
339 23-12-2014 04:10:00 10.3 C 8.24 g/m*3 9.04 C 9.7 km/h
340 23-12-2014 04:15:00 10.3 C 8.33 g/m*3 8.55 C 12.9 km/h
341 23-12-2014 04:20:00 10.3 C 8.24 g/m*3 7.98 C 17.7 km/h
342 23-12-2014 04:25:00 10.4 C 8.29 g/m*3 7.95 C 19.3 km/h
343 23-12-2014 04:30:00 10.4 C 8.29 g/m*3 8.67 C 12.9 km/h
344 23-12-2014 04:35:00 10.4 C 8.29 g/m*3 8.47 C 14.5 km/h
345 23-12-2014 04:40:00 10.4 C 8.29 g/m*3 8.47 C 14.5 km/h
346 23-12-2014 04:45:00 10.5 C 8.34 g/m*3 8.8 C 12.9 km/h
347 23-12-2014 04:50:00 10.5 C 8.34 g/m*3 8.8 C 12.9 km/h
348 23-12-2014 04:55:00 10.5 C 8.34 g/m*3 8.23 C 17.7 km/h
349 23-12-2014 05:00:00 10.6 C 8.39 g/m*3 8.36 C 17.7 km/h
350 23-12-2014 05:05:00 10.5 C 8.24 g/m*3 8.8 C 12.9 km/h
Sensor: Nr:Datum:Temp:Abs-Feuchte:Windchill:Wind:
Aussen-T/F 351 23-12-2014 05:10:00 10.5 C 8.24 g/m*3 8.8 C 12.9 km/h
352 23-12-2014 05:15:00 10.5 C 8.24 g/m*3 8.8 C 12.9 km/h
353 23-12-2014 05:20:00 10.4 C 8.19 g/m*3 8.47 C 14.5 km/h
354 23-12-2014 05:25:00 10.4 C 8.29 g/m*3 8.9 C 11.3 km/h
355 23-12-2014 05:30:00 10.4 C 8.29 g/m*3 7.95 C 19.3 km/h
356 23-12-2014 05:35:00 10.4 C 8.19 g/m*3 8.9 C 11.3 km/h
357 23-12-2014 05:40:00 10.4 C 8.19 g/m*3 8.28 C 16.1 km/h
358 23-12-2014 05:45:00 10.5 C 8.24 g/m*3 9.28 C 9.7 km/h
359 23-12-2014 05:50:00 10.4 C 8.19 g/m*3 8.47 C 14.5 km/h
360 23-12-2014 05:55:00 10.4 C 8.19 g/m*3 8.11 C 17.7 km/h
361 23-12-2014 06:00:00 10.4 C 8.19 g/m*3 8.28 C 16.1 km/h
362 23-12-2014 06:05:00 10.5 C 8.24 g/m*3 8.8 C 12.9 km/h
363 23-12-2014 06:10:00 10.5 C 8.24 g/m*3 8.4 C 16.1 km/h
364 23-12-2014 06:15:00 10.6 C 8.3 g/m*3 8.53 C 16.1 km/h
365 23-12-2014 06:20:00 10.6 C 8.2 g/m*3 8.92 C 12.9 km/h
366 23-12-2014 06:25:00 10.6 C 8.3 g/m*3 8.53 C 16.1 km/h
367 23-12-2014 06:30:00 10.6 C 8.3 g/m*3 8.53 C 16.1 km/h
368 23-12-2014 06:35:00 10.5 C 8.24 g/m*3 9.28 C 9.7 km/h
369 23-12-2014 06:40:00 10.5 C 8.24 g/m*3 7.53 C 25.7 km/h
370 23-12-2014 06:45:00 10.5 C 8.24 g/m*3 7.92 C 20.9 km/h
371 23-12-2014 06:50:00 10.5 C 8.24 g/m*3 8.4 C 16.1 km/h
372 23-12-2014 06:55:00 10.6 C 8.3 g/m*3 8.2 C 19.3 km/h
373 23-12-2014 07:00:00 10.6 C 8.3 g/m*3 8.53 C 16.1 km/h
374 23-12-2014 07:05:00 10.5 C 8.24 g/m*3 8.59 C 14.5 km/h
375 23-12-2014 07:10:00 10.5 C 8.24 g/m*3 8.8 C 12.9 km/h
Sensor: Nr:Datum:Temp:Abs-Feuchte:Windchill:Wind:
Aussen-T/F 376 23-12-2014 07:15:00 10.4 C 8.19 g/m*3 8.9 C 11.3 km/h
377 23-12-2014 07:20:00 10.4 C 8.19 g/m*3 8.9 C 11.3 km/h
378 23-12-2014 07:25:00 10.4 C 8.19 g/m*3 7.95 C 19.3 km/h
379 23-12-2014 07:30:00 10.5 C 8.24 g/m*3 8.23 C 17.7 km/h
380 23-12-2014 07:35:00 10.5 C 8.24 g/m*3 8.23 C 17.7 km/h
381 23-12-2014 07:40:00 10.4 C 8.19 g/m*3 8.28 C 16.1 km/h
382 23-12-2014 07:45:00 10.5 C 8.24 g/m*3 9.57 C 8.1 km/h
383 23-12-2014 07:50:00 10.4 C 8.19 g/m*3 8.9 C 11.3 km/h
384 23-12-2014 07:55:00 10.4 C 8.19 g/m*3 8.67 C 12.9 km/h
385 23-12-2014 08:00:00 10.4 C 8.19 g/m*3 8.47 C 14.5 km/h
386 23-12-2014 08:05:00 10.4 C 8.19 g/m*3 8.67 C 12.9 km/h
387 23-12-2014 08:10:00 10.5 C 8.15 g/m*3 8.59 C 14.5 km/h
388 23-12-2014 08:15:00 10.4 C 8.1 g/m*3 9.46 C 8.1 km/h
389 23-12-2014 08:20:00 10.4 C 8.19 g/m*3 9.83 C 6.4 km/h
390 23-12-2014 08:25:00 10.4 C 8.19 g/m*3 8.67 C 12.9 km/h
391 23-12-2014 08:30:00 10.4 C 8.19 g/m*3 8.67 C 12.9 km/h
392 23-12-2014 08:35:00 10.4 C 8.19 g/m*3 8.11 C 17.7 km/h
393 23-12-2014 08:40:00 10.4 C 8.19 g/m*3 9.46 C 8.1 km/h
394 23-12-2014 08:45:00 10.4 C 8.19 g/m*3 9.46 C 8.1 km/h
395 23-12-2014 08:50:00 10.4 C 8.19 g/m*3 8.67 C 12.9 km/h
396 23-12-2014 08:55:00 10.4 C 8.1 g/m*3 8.67 C 12.9 km/h
397 23-12-2014 09:00:00 10.4 C 8.1 g/m*3 9.16 C 9.7 km/h
398 23-12-2014 09:05:00 10.4 C 8.1 g/m*3 9.16 C 9.7 km/h
399 23-12-2014 09:10:00 10.4 C 8.1 g/m*3 9.83 C 6.4 km/h
400 23-12-2014 09:15:00 10.4 C 8.1 g/m*3 9.16 C 9.7 km/h
Sensor: Nr:Datum:Temp:Abs-Feuchte:Windchill:Wind:
Aussen-T/F 401 23-12-2014 09:20:00 10.4 C 8.1 g/m*3 8.9 C 11.3 km/h
402 23-12-2014 09:25:00 10.4 C 8.1 g/m*3 8.11 C 17.7 km/h
403 23-12-2014 09:50:00 10.4 C 8.19 g/m*3 8.47 C 14.5 km/h
404 23-12-2014 09:55:00 10.4 C 8.19 g/m*3 9.46 C 8.1 km/h
405 23-12-2014 10:00:00 10.3 C 8.14 g/m*3 8.78 C 11.3 km/h
406 23-12-2014 10:05:00 10.4 C 8.19 g/m*3 7.95 C 19.3 km/h
407 23-12-2014 10:10:00 10.4 C 8.19 g/m*3 8.11 C 17.7 km/h
408 23-12-2014 10:15:00 10.4 C 8.19 g/m*3 8.47 C 14.5 km/h
409 23-12-2014 10:20:00 10.4 C 8.19 g/m*3 8.67 C 12.9 km/h
410 23-12-2014 10:25:00 10.4 C 8.19 g/m*3 8.28 C 16.1 km/h
411 23-12-2014 10:30:00 10.4 C 8.19 g/m*3 7.95 C 19.3 km/h
412 23-12-2014 10:35:00 10.4 C 8.19 g/m*3 8.67 C 12.9 km/h
413 23-12-2014 11:15:00 10.3 C 9.58 g/m*3 8.16 C 16.1 km/h
414 23-12-2014 11:20:00 10.3 C 8.14 g/m*3 8.34 C 14.5 km/h
415 23-12-2014 11:25:00 10.3 C 8.14 g/m*3 8.34 C 14.5 km/h
416 23-12-2014 11:30:00 10.3 C 8.24 g/m*3 8.34 C 14.5 km/h
417 23-12-2014 11:35:00 10.3 C 8.14 g/m*3 8.55 C 12.9 km/h
418 23-12-2014 11:40:00 10.3 C 8.24 g/m*3 7.82 C 19.3 km/h
419 23-12-2014 11:45:00 10.3 C 8.24 g/m*3 8.55 C 12.9 km/h
420 23-12-2014 11:50:00 10.3 C 8.24 g/m*3 7.98 C 17.7 km/h
421 23-12-2014 11:55:00 10.3 C 8.24 g/m*3 8.55 C 12.9 km/h
422 23-12-2014 12:00:00 10.3 C 8.24 g/m*3 8.55 C 12.9 km/h
423 23-12-2014 12:05:00 10.2 C 8.18 g/m*3 8.43 C 12.9 km/h
424 23-12-2014 12:10:00 10.2 C 8.18 g/m*3 8.03 C 16.1 km/h
425 23-12-2014 12:15:00 10.2 C 8.18 g/m*3 8.43 C 12.9 km/h
Sensor: Nr:Datum:Temp:Abs-Feuchte:Windchill:Wind:
Aussen-T/F 426 23-12-2014 12:20:00 10.2 C 8.18 g/m*3 7.86 C 17.7 km/h
427 23-12-2014 12:25:00 10.2 C 8.18 g/m*3 8.43 C 12.9 km/h
428 23-12-2014 13:05:00 10.3 C 9.58 g/m*3 8.16 C 16.1 km/h
429 23-12-2014 13:10:00 10.3 C 9.58 g/m*3 7.98 C 17.7 km/h
430 23-12-2014 13:15:00 10.3 C 8.24 g/m*3 8.55 C 12.9 km/h
431 23-12-2014 13:20:00 10.3 C 8.24 g/m*3 9.04 C 9.7 km/h
432 23-12-2014 13:25:00 10.3 C 8.24 g/m*3 8.78 C 11.3 km/h
433 23-12-2014 13:30:00 10.3 C 8.24 g/m*3 8.78 C 11.3 km/h
434 23-12-2014 13:35:00 10.3 C 8.24 g/m*3 8.55 C 12.9 km/h
435 23-12-2014 13:40:00 10.3 C 8.24 g/m*3 9.72 C 6.4 km/h
436 23-12-2014 13:45:00 10.3 C 8.24 g/m*3 9.34 C 8.1 km/h
437 23-12-2014 13:50:00 10.3 C 8.24 g/m*3 9.72 C 6.4 km/h
438 23-12-2014 13:55:00 10.3 C 8.24 g/m*3 8.78 C 11.3 km/h
439 23-12-2014 14:00:00 10.3 C 8.24 g/m*3 8.16 C 16.1 km/h
440 23-12-2014 14:05:00 10.4 C 8.29 g/m*3 8.67 C 12.9 km/h
441 23-12-2014 14:10:00 10.4 C 8.29 g/m*3 10.4 C 4.8 km/h
442 23-12-2014 14:15:00 10.5 C 8.34 g/m*3 8.07 C 19.3 km/h
443 23-12-2014 14:20:00 10.5 C 8.34 g/m*3 8.59 C 14.5 km/h
444 23-12-2014 14:25:00 10.5 C 8.34 g/m*3 8.8 C 12.9 km/h
445 23-12-2014 14:30:00 10.5 C 8.34 g/m*3 9.57 C 8.1 km/h
446 23-12-2014 14:35:00 10.5 C 8.34 g/m*3 9.28 C 9.7 km/h
447 23-12-2014 14:40:00 10.5 C 8.34 g/m*3 8.8 C 12.9 km/h
448 23-12-2014 14:45:00 10.4 C 8.29 g/m*3 8.67 C 12.9 km/h
449 23-12-2014 14:50:00 10.4 C 8.29 g/m*3 9.16 C 9.7 km/h
450 23-12-2014 14:55:00 10.4 C 8.29 g/m*3 8.67 C 12.9 km/h
Sensor: Nr:Datum:Temp:Abs-Feuchte:Windchill:Wind:
Aussen-T/F 451 23-12-2014 15:00:00 10.4 C 8.29 g/m*3 9.16 C 9.7 km/h
452 23-12-2014 15:05:00 10.4 C 8.29 g/m*3 9.46 C 8.1 km/h
453 23-12-2014 15:10:00 10.4 C 8.29 g/m*3 9.16 C 9.7 km/h
454 23-12-2014 15:15:00 10.3 C 8.24 g/m*3 9.04 C 9.7 km/h
455 23-12-2014 15:20:00 10.3 C 8.24 g/m*3 8.55 C 12.9 km/h
456 23-12-2014 15:25:00 10.3 C 8.24 g/m*3 7.98 C 17.7 km/h
457 23-12-2014 15:30:00 10.3 C 8.24 g/m*3 7.98 C 17.7 km/h
458 23-12-2014 15:35:00 10.3 C 8.24 g/m*3 8.55 C 12.9 km/h
459 23-12-2014 15:40:00 10.3 C 8.24 g/m*3 8.78 C 11.3 km/h
460 23-12-2014 15:45:00 10.3 C 8.24 g/m*3 9.34 C 8.1 km/h
461 23-12-2014 15:50:00 10.3 C 8.24 g/m*3 8.55 C 12.9 km/h
462 23-12-2014 15:55:00 10.3 C 8.24 g/m*3 8.55 C 12.9 km/h
463 23-12-2014 16:00:00 10.3 C 8.24 g/m*3 9.04 C 9.7 km/h
464 23-12-2014 16:05:00 10.3 C 8.24 g/m*3 9.04 C 9.7 km/h
465 23-12-2014 16:10:00 10.3 C 8.14 g/m*3 9.34 C 8.1 km/h
466 23-12-2014 16:15:00 10.2 C 8.18 g/m*3 9.22 C 8.1 km/h
467 23-12-2014 16:20:00 10.2 C 8.09 g/m*3 8.92 C 9.7 km/h
468 23-12-2014 16:25:00 10.2 C 8.09 g/m*3 8.92 C 9.7 km/h
469 23-12-2014 16:30:00 10.2 C 8.18 g/m*3 9.22 C 8.1 km/h
470 23-12-2014 16:35:00 10.2 C 8.09 g/m*3 8.92 C 9.7 km/h
471 23-12-2014 16:40:00 10.2 C 8.09 g/m*3 9.6 C 6.4 km/h
472 23-12-2014 16:45:00 10.1 C 8.13 g/m*3 10.1 C 4.8 km/h
473 23-12-2014 16:50:00 10.1 C 8.13 g/m*3 9.48 C 6.4 km/h
474 23-12-2014 16:55:00 10.1 C 8.13 g/m*3 8.8 C 9.7 km/h
475 23-12-2014 17:00:00 10.1 C 8.13 g/m*3 8.31 C 12.9 km/h
Sensor: Nr:Datum:Temp:Abs-Feuchte:Windchill:Wind:
Aussen-T/F 476 23-12-2014 17:05:00 10.1 C 8.04 g/m*3 8.8 C 9.7 km/h
477 23-12-2014 17:10:00 10.1 C 8.13 g/m*3 9.48 C 6.4 km/h
478 23-12-2014 17:15:00 10.1 C 8.04 g/m*3 8.31 C 12.9 km/h
479 23-12-2014 17:20:00 10.1 C 8.04 g/m*3 8.8 C 9.7 km/h
480 23-12-2014 17:25:00 10 C 8.08 g/m*3 8.99 C 8.1 km/h
481 23-12-2014 17:30:00 10 C 8.08 g/m*3 7.98 C 14.5 km/h
482 23-12-2014 17:35:00 10 C 8.08 g/m*3 8.19 C 12.9 km/h
483 23-12-2014 17:40:00 10 C 7.99 g/m*3 8.19 C 12.9 km/h
484 23-12-2014 17:45:00 9.9 C 8.03 g/m*3 8.3 C 11.3 km/h
485 23-12-2014 17:50:00 9.9 C 8.03 g/m*3 8.56 C 9.7 km/h
486 23-12-2014 17:55:00 9.9 C 7.94 g/m*3 7.85 C 14.5 km/h
487 23-12-2014 18:00:00 9.9 C 7.94 g/m*3 8.56 C 9.7 km/h
488 23-12-2014 18:05:00 9.9 C 7.94 g/m*3 8.56 C 9.7 km/h
489 23-12-2014 18:10:00 9.9 C 7.94 g/m*3 8.56 C 9.7 km/h
490 23-12-2014 18:15:00 9.9 C 7.94 g/m*3 8.56 C 9.7 km/h
491 23-12-2014 18:20:00 9.8 C 7.98 g/m*3 8.45 C 9.7 km/h
492 23-12-2014 18:25:00 9.8 C 7.89 g/m*3 8.18 C 11.3 km/h
493 23-12-2014 18:30:00 9.8 C 7.98 g/m*3 7.54 C 16.1 km/h
494 23-12-2014 18:35:00 9.8 C 7.89 g/m*3 8.75 C 8.1 km/h
495 23-12-2014 18:40:00 9.8 C 7.89 g/m*3 7.94 C 12.9 km/h
496 23-12-2014 18:45:00 9.8 C 7.89 g/m*3 7.94 C 12.9 km/h
497 23-12-2014 18:50:00 9.8 C 7.98 g/m*3 7.73 C 14.5 km/h
498 23-12-2014 18:55:00 9.8 C 7.98 g/m*3 8.18 C 11.3 km/h
499 23-12-2014 19:00:00 9.7 C 7.93 g/m*3 8.33 C 9.7 km/h
500 23-12-2014 19:05:00 9.7 C 7.93 g/m*3 8.06 C 11.3 km/h
Sensor: Nr:Datum:Temp:Abs-Feuchte:Windchill:Wind:
Aussen-T/F 501 23-12-2014 19:10:00 9.7 C 7.93 g/m*3 6.91 C 20.9 km/h
502 23-12-2014 19:15:00 9.7 C 7.93 g/m*3 9.02 C 6.4 km/h
503 23-12-2014 19:20:00 9.7 C 7.93 g/m*3 9.02 C 6.4 km/h
504 23-12-2014 19:25:00 9.6 C 7.79 g/m*3 7.7 C 12.9 km/h
505 23-12-2014 19:30:00 9.6 C 7.88 g/m*3 8.21 C 9.7 km/h
506 23-12-2014 19:35:00 9.6 C 7.88 g/m*3 7.7 C 12.9 km/h
507 23-12-2014 19:40:00 9.6 C 7.79 g/m*3 7.29 C 16.1 km/h
508 23-12-2014 19:45:00 9.6 C 7.79 g/m*3 6.79 C 20.9 km/h
509 23-12-2014 19:50:00 9.6 C 7.88 g/m*3 7.29 C 16.1 km/h
510 23-12-2014 19:55:00 9.6 C 7.79 g/m*3 7.48 C 14.5 km/h
511 23-12-2014 20:00:00 9.6 C 7.79 g/m*3 8.52 C 8.1 km/h
512 23-12-2014 20:05:00 9.5 C 7.83 g/m*3 9.5 C 4.8 km/h
513 23-12-2014 20:10:00 9.5 C 7.83 g/m*3 8.09 C 9.7 km/h
514 23-12-2014 20:15:00 9.4 C 7.78 g/m*3 7.7 C 11.3 km/h
515 23-12-2014 20:20:00 9.4 C 7.78 g/m*3 8.28 C 8.1 km/h
516 23-12-2014 20:25:00 9.4 C 7.78 g/m*3 7.97 C 9.7 km/h
517 23-12-2014 20:30:00 9.4 C 7.78 g/m*3 7.04 C 16.1 km/h
518 23-12-2014 20:35:00 9.4 C 7.69 g/m*3 7.46 C 12.9 km/h
519 23-12-2014 20:40:00 9.4 C 7.69 g/m*3 7.46 C 12.9 km/h
520 23-12-2014 20:45:00 9.4 C 7.69 g/m*3 8.28 C 8.1 km/h
521 23-12-2014 20:50:00 9.4 C 7.69 g/m*3 7.7 C 11.3 km/h
522 23-12-2014 20:55:00 9.4 C 7.69 g/m*3 7.7 C 11.3 km/h
523 23-12-2014 21:00:00 9.4 C 7.69 g/m*3 8.28 C 8.1 km/h
524 23-12-2014 21:05:00 9.3 C 7.64 g/m*3 7.33 C 12.9 km/h
525 23-12-2014 21:10:00 9.3 C 7.64 g/m*3 8.16 C 8.1 km/h
Sensor: Nr:Datum:Temp:Abs-Feuchte:Windchill:Wind:
Aussen-T/F 526 23-12-2014 21:15:00 9.3 C 7.64 g/m*3 8.56 C 6.4 km/h
527 23-12-2014 21:20:00 9.3 C 7.64 g/m*3 8.56 C 6.4 km/h
528 23-12-2014 21:25:00 9.2 C 7.59 g/m*3 8.05 C 8.1 km/h
529 23-12-2014 21:30:00 9.2 C 7.5 g/m*3 8.45 C 6.4 km/h
530 23-12-2014 21:35:00 9.3 C 7.46 g/m*3 7.33 C 12.9 km/h
531 23-12-2014 21:40:00 9.3 C 7.46 g/m*3 7.85 C 9.7 km/h
532 23-12-2014 21:45:00 9.3 C 7.37 g/m*3 6.73 C 17.7 km/h
533 23-12-2014 21:50:00 9.3 C 7.46 g/m*3 7.85 C 9.7 km/h
534 23-12-2014 21:55:00 9.3 C 7.46 g/m*3 7.85 C 9.7 km/h
535 23-12-2014 22:00:00 9.2 C 7.32 g/m*3 8.05 C 8.1 km/h
536 23-12-2014 22:05:00 9.2 C 7.32 g/m*3 7.73 C 9.7 km/h
537 23-12-2014 22:10:00 9.2 C 7.32 g/m*3 9.2 C 4.8 km/h
538 23-12-2014 22:15:00 9.2 C 7.32 g/m*3 9.2 C 4.8 km/h
539 23-12-2014 22:20:00 9.2 C 7.32 g/m*3 9.2 C 4.8 km/h
540 23-12-2014 22:25:00 9.2 C 7.32 g/m*3 8.05 C 8.1 km/h
541 23-12-2014 22:30:00 9.2 C 7.32 g/m*3 8.45 C 6.4 km/h
542 23-12-2014 22:35:00 9.1 C 7.28 g/m*3 7.33 C 11.3 km/h
543 23-12-2014 22:40:00 9.1 C 7.28 g/m*3 8.33 C 6.4 km/h
544 23-12-2014 22:45:00 9.1 C 7.28 g/m*3 9.1 C 4.8 km/h
545 23-12-2014 22:50:00 9.1 C 7.28 g/m*3 8.33 C 6.4 km/h
546 23-12-2014 22:55:00 9 C 7.23 g/m*3 7.21 C 11.3 km/h
547 23-12-2014 23:00:00 9 C 7.23 g/m*3 8.21 C 6.4 km/h
548 23-12-2014 23:05:00 8.9 C 7.18 g/m*3 7.69 C 8.1 km/h
549 23-12-2014 23:10:00 8.9 C 7.18 g/m*3 8.1 C 6.4 km/h
550 23-12-2014 23:15:00 8.9 C 7.1 g/m*3 8.1 C 6.4 km/h
Sensor: Nr:Datum:Temp:Abs-Feuchte:Windchill:Wind:
Aussen-T/F 551 23-12-2014 23:20:00 8.9 C 7.18 g/m*3 8.9 C 4.8 km/h
552 23-12-2014 23:25:00 8.8 C 7.14 g/m*3 7.98 C 6.4 km/h
553 23-12-2014 23:30:00 8.8 C 7.14 g/m*3 7.98 C 6.4 km/h
554 23-12-2014 23:35:00 8.8 C 7.14 g/m*3 8.8 C 4.8 km/h
555 23-12-2014 23:40:00 8.8 C 7.14 g/m*3 7.98 C 6.4 km/h
556 23-12-2014 23:45:00 8.7 C 7.09 g/m*3 7.13 C 9.7 km/h
557 23-12-2014 23:50:00 8.7 C 7.09 g/m*3 6.85 C 11.3 km/h
558 23-12-2014 23:55:00 8.7 C 7.09 g/m*3 7.87 C 6.4 km/h
559 24-12-2014 00:00:00 8.7 C 7.09 g/m*3 8.7 C 4.8 km/h
560 24-12-2014 00:05:00 8.7 C 7.09 g/m*3 7.13 C 9.7 km/h
561 24-12-2014 00:10:00 8.6 C 7.05 g/m*3 8.6 C 4.8 km/h
562 24-12-2014 00:15:00 8.6 C 7.05 g/m*3 7.34 C 8.1 km/h
563 24-12-2014 00:20:00 8.6 C 7.05 g/m*3 7.34 C 8.1 km/h
564 24-12-2014 00:25:00 8.5 C 7 g/m*3 8.5 C 3.2 km/h
565 24-12-2014 00:30:00 8.5 C 7.09 g/m*3 7.64 C 6.4 km/h
566 24-12-2014 00:35:00 8.4 C 6.96 g/m*3 7.11 C 8.1 km/h
567 24-12-2014 00:40:00 8.4 C 7.04 g/m*3 6.01 C 14.5 km/h
568 24-12-2014 00:45:00 8.4 C 7.04 g/m*3 8.4 C 4.8 km/h
569 24-12-2014 00:50:00 8.4 C 7.04 g/m*3 8.4 C 4.8 km/h
570 24-12-2014 00:55:00 8.3 C 7 g/m*3 8.3 C 1.6 km/h
571 24-12-2014 01:00:00 8.3 C 7 g/m*3 6.37 C 11.3 km/h
572 24-12-2014 01:05:00 8.2 C 7.03 g/m*3 8.2 C 4.8 km/h
573 24-12-2014 01:10:00 8.2 C 7.03 g/m*3 8.2 C 4.8 km/h
574 24-12-2014 01:15:00 8.2 C 7.03 g/m*3 5.99 C 12.9 km/h
575 24-12-2014 01:20:00 8.2 C 7.03 g/m*3 7.29 C 6.4 km/h
Sensor: Nr:Datum:Temp:Abs-Feuchte:Windchill:Wind:
Aussen-T/F 576 24-12-2014 01:25:00 8.2 C 6.95 g/m*3 5.76 C 14.5 km/h
577 24-12-2014 01:30:00 8.2 C 6.95 g/m*3 6.54 C 9.7 km/h
578 24-12-2014 01:35:00 8.2 C 6.95 g/m*3 8.2 C 4.8 km/h
579 24-12-2014 01:40:00 8.1 C 6.91 g/m*3 5.87 C 12.9 km/h
580 24-12-2014 01:45:00 8.1 C 6.91 g/m*3 6.42 C 9.7 km/h
581 24-12-2014 01:50:00 8.1 C 6.99 g/m*3 6.75 C 8.1 km/h
582 24-12-2014 01:55:00 8.1 C 6.99 g/m*3 8.1 C 4.8 km/h
583 24-12-2014 02:00:00 8 C 6.94 g/m*3 6.01 C 11.3 km/h
584 24-12-2014 02:05:00 7.9 C 6.82 g/m*3 5.89 C 11.3 km/h
585 24-12-2014 02:10:00 7.9 C 6.82 g/m*3 5.63 C 12.9 km/h
586 24-12-2014 02:15:00 7.9 C 6.82 g/m*3 6.18 C 9.7 km/h
587 24-12-2014 02:20:00 7.9 C 6.82 g/m*3 5.89 C 11.3 km/h
588 24-12-2014 02:25:00 7.8 C 6.77 g/m*3 5.77 C 11.3 km/h
589 24-12-2014 02:30:00 7.8 C 6.77 g/m*3 4.86 C 17.7 km/h
590 24-12-2014 02:35:00 7.8 C 6.86 g/m*3 4.86 C 17.7 km/h
591 24-12-2014 02:40:00 7.8 C 6.86 g/m*3 5.77 C 11.3 km/h
592 24-12-2014 02:45:00 7.7 C 6.81 g/m*3 5.65 C 11.3 km/h
593 24-12-2014 02:50:00 7.7 C 6.73 g/m*3 5.38 C 12.9 km/h
594 24-12-2014 02:55:00 7.7 C 6.81 g/m*3 5.15 C 14.5 km/h
595 24-12-2014 03:00:00 7.6 C 6.77 g/m*3 5.82 C 9.7 km/h
596 24-12-2014 03:05:00 7.6 C 6.77 g/m*3 5.26 C 12.9 km/h
597 24-12-2014 03:10:00 7.5 C 6.72 g/m*3 5.7 C 9.7 km/h
598 24-12-2014 03:15:00 7.4 C 6.68 g/m*3 6.37 C 6.4 km/h
599 24-12-2014 03:20:00 7.4 C 6.68 g/m*3 4.56 C 16.1 km/h
600 24-12-2014 03:25:00 7.4 C 6.68 g/m*3 4.36 C 17.7 km/h
Sensor: Nr:Datum:Temp:Abs-Feuchte:Windchill:Wind:
Aussen-T/F 601 24-12-2014 03:30:00 7.4 C 6.68 g/m*3 4.36 C 17.7 km/h
602 24-12-2014 03:35:00 7.4 C 6.68 g/m*3 4.17 C 19.3 km/h
603 24-12-2014 03:40:00 7.4 C 6.68 g/m*3 4.17 C 19.3 km/h
604 24-12-2014 03:45:00 7.4 C 6.68 g/m*3 5.28 C 11.3 km/h
605 24-12-2014 03:50:00 7.4 C 6.6 g/m*3 4.56 C 16.1 km/h
606 24-12-2014 03:55:00 7.3 C 6.64 g/m*3 5.47 C 9.7 km/h
607 24-12-2014 04:00:00 7.3 C 6.64 g/m*3 4.23 C 17.7 km/h
608 24-12-2014 04:05:00 7.3 C 6.56 g/m*3 6.25 C 6.4 km/h
609 24-12-2014 04:10:00 7.3 C 6.64 g/m*3 6.25 C 6.4 km/h
610 24-12-2014 04:15:00 7.3 C 6.64 g/m*3 7.3 C 4.8 km/h
611 24-12-2014 04:20:00 7.3 C 6.64 g/m*3 6.25 C 6.4 km/h
612 24-12-2014 04:25:00 7.3 C 6.56 g/m*3 4.44 C 16.1 km/h
613 24-12-2014 04:30:00 7.3 C 6.64 g/m*3 5.81 C 8.1 km/h
614 24-12-2014 04:35:00 7.3 C 6.56 g/m*3 5.81 C 8.1 km/h
615 24-12-2014 04:40:00 7.3 C 6.56 g/m*3 5.16 C 11.3 km/h
616 24-12-2014 04:45:00 7.4 C 6.52 g/m*3 4.56 C 16.1 km/h
617 24-12-2014 04:50:00 7.4 C 6.52 g/m*3 4.78 C 14.5 km/h
618 24-12-2014 04:55:00 7.4 C 6.6 g/m*3 5.58 C 9.7 km/h
619 24-12-2014 05:00:00 7.3 C 6.56 g/m*3 5.16 C 11.3 km/h
620 24-12-2014 05:05:00 7.3 C 6.56 g/m*3 4.05 C 19.3 km/h
621 24-12-2014 05:10:00 7.3 C 6.56 g/m*3 6.25 C 6.4 km/h
622 24-12-2014 05:15:00 7.3 C 6.56 g/m*3 5.81 C 8.1 km/h
623 24-12-2014 05:20:00 7.3 C 6.56 g/m*3 5.81 C 8.1 km/h
624 24-12-2014 05:25:00 7.4 C 6.6 g/m*3 5.28 C 11.3 km/h
625 24-12-2014 05:30:00 7.4 C 6.6 g/m*3 6.37 C 6.4 km/h
Sensor: Nr:Datum:Temp:Abs-Feuchte:Windchill:Wind:
Aussen-T/F 626 24-12-2014 05:35:00 7.4 C 6.6 g/m*3 5.58 C 9.7 km/h
627 24-12-2014 05:40:00 7.4 C 6.6 g/m*3 5.28 C 11.3 km/h
628 24-12-2014 05:45:00 7.3 C 6.56 g/m*3 5.16 C 11.3 km/h
629 24-12-2014 05:50:00 7.3 C 6.56 g/m*3 5.81 C 8.1 km/h
630 24-12-2014 05:55:00 7.3 C 6.56 g/m*3 4.9 C 12.9 km/h
631 24-12-2014 06:00:00 7.3 C 6.64 g/m*3 5.16 C 11.3 km/h
632 24-12-2014 06:05:00 7.3 C 6.64 g/m*3 5.16 C 11.3 km/h
633 24-12-2014 06:10:00 7.3 C 6.64 g/m*3 4.9 C 12.9 km/h
634 24-12-2014 06:15:00 7.3 C 6.64 g/m*3 4.66 C 14.5 km/h
635 24-12-2014 06:20:00 7.2 C 6.59 g/m*3 4.77 C 12.9 km/h
636 24-12-2014 06:25:00 7.2 C 6.59 g/m*3 5.35 C 9.7 km/h
637 24-12-2014 06:30:00 7.1 C 6.55 g/m*3 4.41 C 14.5 km/h
638 24-12-2014 06:35:00 7.1 C 6.55 g/m*3 4.19 C 16.1 km/h
639 24-12-2014 06:40:00 7.1 C 6.55 g/m*3 3.98 C 17.7 km/h
640 24-12-2014 06:45:00 7.1 C 6.63 g/m*3 4.92 C 11.3 km/h
641 24-12-2014 06:50:00 7.1 C 6.63 g/m*3 4.65 C 12.9 km/h
642 24-12-2014 06:55:00 7.1 C 6.63 g/m*3 4.92 C 11.3 km/h
643 24-12-2014 07:00:00 7.1 C 6.63 g/m*3 5.23 C 9.7 km/h
644 24-12-2014 07:05:00 7.1 C 6.63 g/m*3 4.92 C 11.3 km/h
645 24-12-2014 07:10:00 7.1 C 6.63 g/m*3 4.19 C 16.1 km/h
646 24-12-2014 07:15:00 7.1 C 6.63 g/m*3 5.23 C 9.7 km/h
647 24-12-2014 07:20:00 7.1 C 6.63 g/m*3 4.92 C 11.3 km/h
648 24-12-2014 07:25:00 7.1 C 6.63 g/m*3 5.58 C 8.1 km/h
649 24-12-2014 07:30:00 7.1 C 6.63 g/m*3 3.98 C 17.7 km/h
650 24-12-2014 07:35:00 7.2 C 6.67 g/m*3 4.77 C 12.9 km/h
Sensor: Nr:Datum:Temp:Abs-Feuchte:Windchill:Wind:
Aussen-T/F 651 24-12-2014 07:40:00 7.2 C 6.67 g/m*3 5.04 C 11.3 km/h
652 24-12-2014 07:45:00 7.2 C 6.67 g/m*3 5.04 C 11.3 km/h
653 24-12-2014 07:50:00 7.2 C 6.67 g/m*3 4.77 C 12.9 km/h
654 24-12-2014 07:55:00 7.2 C 6.67 g/m*3 4.53 C 14.5 km/h
655 24-12-2014 08:00:00 7.3 C 6.64 g/m*3 4.05 C 19.3 km/h
656 24-12-2014 08:05:00 7.3 C 6.72 g/m*3 6.25 C 6.4 km/h
657 24-12-2014 08:10:00 7.3 C 6.72 g/m*3 4.9 C 12.9 km/h
658 24-12-2014 08:15:00 7.3 C 6.72 g/m*3 4.9 C 12.9 km/h
659 24-12-2014 08:20:00 7.4 C 6.76 g/m*3 5.02 C 12.9 km/h
660 24-12-2014 08:25:00 7.4 C 6.68 g/m*3 5.28 C 11.3 km/h
661 24-12-2014 08:30:00 7.4 C 6.68 g/m*3 4.17 C 19.3 km/h
662 24-12-2014 08:35:00 7.6 C 6.77 g/m*3 4.81 C 16.1 km/h
663 24-12-2014 08:40:00 7.6 C 6.77 g/m*3 5.26 C 12.9 km/h
664 24-12-2014 08:45:00 7.6 C 6.77 g/m*3 4.81 C 16.1 km/h
665 24-12-2014 08:50:00 7.6 C 6.77 g/m*3 5.82 C 9.7 km/h
666 24-12-2014 08:55:00 7.7 C 6.81 g/m*3 4.55 C 19.3 km/h
667 24-12-2014 09:00:00 7.7 C 6.81 g/m*3 5.65 C 11.3 km/h
668 24-12-2014 09:05:00 7.7 C 6.81 g/m*3 4.22 C 22.5 km/h
669 24-12-2014 09:10:00 7.8 C 6.77 g/m*3 4.86 C 17.7 km/h
670 24-12-2014 09:15:00 7.8 C 6.77 g/m*3 4.51 C 20.9 km/h
671 24-12-2014 09:20:00 7.8 C 6.77 g/m*3 5.06 C 16.1 km/h
672 24-12-2014 09:25:00 7.9 C 6.82 g/m*3 4.47 C 22.5 km/h
673 24-12-2014 09:30:00 7.9 C 6.82 g/m*3 4.8 C 19.3 km/h
674 24-12-2014 09:35:00 7.9 C 6.82 g/m*3 4.8 C 19.3 km/h
675 24-12-2014 09:40:00 8 C 6.94 g/m*3 5.75 C 12.9 km/h
Sensor: Nr:Datum:Temp:Abs-Feuchte:Windchill:Wind:
Aussen-T/F 676 24-12-2014 09:45:00 8 C 6.94 g/m*3 5.3 C 16.1 km/h
677 24-12-2014 09:50:00 8 C 6.94 g/m*3 5.52 C 14.5 km/h
678 24-12-2014 09:55:00 8 C 6.94 g/m*3 5.52 C 14.5 km/h
679 24-12-2014 10:00:00 8.1 C 6.99 g/m*3 5.23 C 17.7 km/h
680 24-12-2014 10:05:00 8.1 C 6.99 g/m*3 5.05 C 19.3 km/h
681 24-12-2014 10:10:00 8.1 C 6.99 g/m*3 4.89 C 20.9 km/h
682 24-12-2014 10:15:00 8.1 C 6.99 g/m*3 5.23 C 17.7 km/h
683 24-12-2014 10:20:00 8.2 C 7.03 g/m*3 5.36 C 17.7 km/h
684 24-12-2014 10:25:00 8.2 C 7.03 g/m*3 5.55 C 16.1 km/h
685 24-12-2014 10:30:00 8.3 C 7 g/m*3 5.48 C 17.7 km/h
686 24-12-2014 10:35:00 8.3 C 7.08 g/m*3 5.89 C 14.5 km/h
687 24-12-2014 10:40:00 8.3 C 7 g/m*3 6.66 C 9.7 km/h
688 24-12-2014 10:45:00 8.3 C 7.08 g/m*3 6.66 C 9.7 km/h
689 24-12-2014 10:50:00 8.4 C 7.13 g/m*3 6.49 C 11.3 km/h
690 24-12-2014 10:55:00 8.4 C 7.13 g/m*3 6.01 C 14.5 km/h
691 24-12-2014 11:00:00 8.4 C 7.13 g/m*3 5.61 C 17.7 km/h
692 24-12-2014 11:05:00 8.4 C 7.13 g/m*3 6.01 C 14.5 km/h
693 24-12-2014 11:10:00 8.4 C 7.13 g/m*3 5.43 C 19.3 km/h
694 24-12-2014 11:15:00 8.5 C 7.17 g/m*3 5.56 C 19.3 km/h
695 24-12-2014 11:20:00 8.6 C 7.22 g/m*3 5.86 C 17.7 km/h
696 24-12-2014 11:25:00 8.6 C 7.22 g/m*3 5.86 C 17.7 km/h
697 24-12-2014 11:30:00 8.6 C 7.22 g/m*3 5.86 C 17.7 km/h
698 24-12-2014 11:35:00 8.6 C 7.22 g/m*3 6.25 C 14.5 km/h
699 24-12-2014 11:40:00 8.7 C 7.26 g/m*3 5.98 C 17.7 km/h
700 24-12-2014 11:45:00 8.7 C 7.35 g/m*3 6.17 C 16.1 km/h
Sensor: Nr:Datum:Temp:Abs-Feuchte:Windchill:Wind:
Aussen-T/F 701 24-12-2014 11:50:00 8.7 C 7.35 g/m*3 5.81 C 19.3 km/h
702 24-12-2014 11:55:00 8.8 C 7.4 g/m*3 6.3 C 16.1 km/h
703 24-12-2014 12:00:00 8.8 C 7.4 g/m*3 6.5 C 14.5 km/h
704 24-12-2014 12:05:00 8.9 C 7.45 g/m*3 6.85 C 12.9 km/h
705 24-12-2014 12:10:00 9.1 C 7.45 g/m*3 5.47 C 29 km/h
706 24-12-2014 12:15:00 9.2 C 7.5 g/m*3 5.6 C 29 km/h
707 24-12-2014 12:20:00 9.3 C 7.55 g/m*3 5.62 C 30.6 km/h
708 24-12-2014 12:25:00 9.3 C 7.55 g/m*3 5.62 C 30.6 km/h
709 24-12-2014 12:30:00 9.3 C 7.55 g/m*3 6.12 C 24.1 km/h
710 24-12-2014 12:35:00 9.3 C 7.55 g/m*3 6.56 C 19.3 km/h
711 24-12-2014 12:40:00 9.3 C 7.55 g/m*3 6.12 C 24.1 km/h
712 24-12-2014 12:45:00 9.3 C 7.55 g/m*3 6.12 C 24.1 km/h
713 24-12-2014 12:50:00 9.2 C 7.5 g/m*3 5.86 C 25.7 km/h
714 24-12-2014 12:55:00 9.2 C 7.59 g/m*3 6.99 C 14.5 km/h
715 24-12-2014 13:00:00 9.2 C 7.59 g/m*3 5.86 C 25.7 km/h
716 24-12-2014 13:05:00 9.2 C 7.59 g/m*3 5.99 C 24.1 km/h
717 24-12-2014 13:10:00 9.3 C 7.64 g/m*3 5.62 C 30.6 km/h
718 24-12-2014 13:15:00 9.3 C 7.64 g/m*3 6.26 C 22.5 km/h
719 24-12-2014 13:20:00 9.3 C 7.64 g/m*3 5.98 C 25.7 km/h
720 24-12-2014 13:25:00 9.3 C 7.64 g/m*3 6.26 C 22.5 km/h
721 24-12-2014 13:30:00 9.3 C 7.64 g/m*3 5.41 C 33.8 km/h
722 24-12-2014 13:35:00 9.3 C 7.64 g/m*3 5.41 C 33.8 km/h
723 24-12-2014 13:40:00 9.4 C 7.69 g/m*3 6.25 C 24.1 km/h
724 24-12-2014 13:45:00 9.5 C 7.65 g/m*3 6.37 C 24.1 km/h
725 24-12-2014 13:50:00 9.7 C 7.74 g/m*3 6.14 C 30.6 km/h
Sensor: Nr:Datum:Temp:Abs-Feuchte:Windchill:Wind:
Aussen-T/F 726 24-12-2014 13:55:00 9.8 C 7.7 g/m*3 6.89 C 22.5 km/h
727 24-12-2014 14:00:00 9.8 C 7.7 g/m*3 6.76 C 24.1 km/h
728 24-12-2014 14:05:00 9.9 C 7.75 g/m*3 6.1 C 35.4 km/h
729 24-12-2014 14:10:00 10.1 C 7.75 g/m*3 7.14 C 24.1 km/h
730 24-12-2014 14:15:00 10.1 C 7.75 g/m*3 7.73 C 17.7 km/h
731 24-12-2014 14:20:00 10.1 C 7.85 g/m*3 8.1 C 14.5 km/h
732 24-12-2014 14:25:00 10.2 C 7.8 g/m*3 7.27 C 24.1 km/h
733 24-12-2014 14:30:00 10.2 C 7.9 g/m*3 8.03 C 16.1 km/h
734 24-12-2014 14:35:00 10.2 C 7.9 g/m*3 7.7 C 19.3 km/h
735 24-12-2014 14:40:00 10.1 C 7.85 g/m*3 7.14 C 24.1 km/h
736 24-12-2014 14:45:00 10.1 C 7.85 g/m*3 7.73 C 17.7 km/h
737 24-12-2014 14:50:00 10.1 C 7.94 g/m*3 7.42 C 20.9 km/h
738 24-12-2014 14:55:00 10 C 7.89 g/m*3 7.44 C 19.3 km/h
739 24-12-2014 15:00:00 9.9 C 7.84 g/m*3 6.4 C 30.6 km/h
740 24-12-2014 15:05:00 9.9 C 7.84 g/m*3 6.3 C 32.2 km/h
741 24-12-2014 15:10:00 9.8 C 7.89 g/m*3 5.87 C 37 km/h
742 24-12-2014 15:15:00 9.8 C 7.89 g/m*3 5.87 C 37 km/h
743 24-12-2014 15:20:00 9.7 C 7.84 g/m*3 6.63 C 24.1 km/h
744 24-12-2014 15:25:00 9.6 C 7.79 g/m*3 7.11 C 17.7 km/h
745 24-12-2014 15:30:00 9.6 C 7.88 g/m*3 6.01 C 30.6 km/h
746 24-12-2014 15:35:00 9.6 C 7.88 g/m*3 6.79 C 20.9 km/h
747 24-12-2014 15:40:00 9.6 C 7.88 g/m*3 6.12 C 29 km/h
748 24-12-2014 15:45:00 9.5 C 7.83 g/m*3 5.88 C 30.6 km/h
749 24-12-2014 15:50:00 9.4 C 7.87 g/m*3 6.25 C 24.1 km/h
750 24-12-2014 15:55:00 9.4 C 7.87 g/m*3 6.38 C 22.5 km/h
Sensor: Nr:Datum:Temp:Abs-Feuchte:Windchill:Wind:
Aussen-T/F 751 24-12-2014 16:00:00 9.4 C 7.87 g/m*3 6.53 C 20.9 km/h
752 24-12-2014 16:05:00 9.4 C 7.87 g/m*3 6.38 C 22.5 km/h
753 24-12-2014 16:10:00 9.4 C 7.87 g/m*3 6.11 C 25.7 km/h
754 24-12-2014 16:15:00 9.3 C 7.91 g/m*3 6.41 C 20.9 km/h
755 24-12-2014 16:20:00 9.3 C 7.91 g/m*3 6.26 C 22.5 km/h
756 24-12-2014 16:25:00 9.2 C 7.86 g/m*3 6.13 C 22.5 km/h
757 24-12-2014 16:30:00 9.2 C 7.86 g/m*3 6.61 C 17.7 km/h
758 24-12-2014 16:35:00 9.2 C 7.95 g/m*3 6.28 C 20.9 km/h
759 24-12-2014 16:40:00 9.1 C 7.9 g/m*3 6.67 C 16.1 km/h
760 24-12-2014 16:45:00 9.1 C 7.99 g/m*3 5.86 C 24.1 km/h
761 24-12-2014 16:50:00 8.9 C 7.88 g/m*3 6.42 C 16.1 km/h
762 24-12-2014 16:55:00 8.9 C 7.97 g/m*3 5.33 C 27.4 km/h
763 24-12-2014 17:00:00 8.9 C 7.97 g/m*3 6.06 C 19.3 km/h
764 24-12-2014 17:05:00 8.8 C 7.92 g/m*3 4.97 C 30.6 km/h
765 24-12-2014 17:10:00 8.8 C 7.92 g/m*3 5.34 C 25.7 km/h
766 24-12-2014 17:15:00 8.9 C 7.97 g/m*3 6.42 C 16.1 km/h
767 24-12-2014 17:20:00 8.9 C 7.97 g/m*3 5.6 C 24.1 km/h
768 24-12-2014 17:25:00 8.9 C 7.97 g/m*3 5.75 C 22.5 km/h
769 24-12-2014 17:30:00 8.9 C 7.97 g/m*3 5.9 C 20.9 km/h
770 24-12-2014 17:35:00 8.9 C 7.97 g/m*3 5.6 C 24.1 km/h
771 24-12-2014 17:40:00 9 C 7.93 g/m*3 6.36 C 17.7 km/h
772 24-12-2014 17:45:00 9 C 7.93 g/m*3 5.87 C 22.5 km/h
773 24-12-2014 17:50:00 9.1 C 7.99 g/m*3 6 C 22.5 km/h
774 24-12-2014 17:55:00 9.1 C 7.99 g/m*3 5.59 C 27.4 km/h
775 24-12-2014 18:00:00 9.1 C 7.9 g/m*3 6 C 22.5 km/h
Sensor: Nr:Datum:Temp:Abs-Feuchte:Windchill:Wind:
Aussen-T/F 776 24-12-2014 18:05:00 9.2 C 7.95 g/m*3 6.99 C 14.5 km/h
777 24-12-2014 18:10:00 9.2 C 7.95 g/m*3 6.44 C 19.3 km/h
778 24-12-2014 18:15:00 9.2 C 7.95 g/m*3 6.28 C 20.9 km/h
779 24-12-2014 18:20:00 9.2 C 7.95 g/m*3 6.79 C 16.1 km/h
780 24-12-2014 18:25:00 9.2 C 7.95 g/m*3 6.99 C 14.5 km/h
781 24-12-2014 18:30:00 9.2 C 7.95 g/m*3 6.61 C 17.7 km/h
782 24-12-2014 18:35:00 9.2 C 7.95 g/m*3 6.28 C 20.9 km/h
783 24-12-2014 18:40:00 9.2 C 8.04 g/m*3 6.61 C 17.7 km/h
784 24-12-2014 18:45:00 9.2 C 8.04 g/m*3 7.21 C 12.9 km/h
785 24-12-2014 18:50:00 9.2 C 8.04 g/m*3 6.13 C 22.5 km/h
786 24-12-2014 18:55:00 9.2 C 8.04 g/m*3 6.28 C 20.9 km/h
787 24-12-2014 19:00:00 9.2 C 8.04 g/m*3 6.44 C 19.3 km/h
788 24-12-2014 19:05:00 9.2 C 8.04 g/m*3 6.61 C 17.7 km/h
789 24-12-2014 19:10:00 9.1 C 7.99 g/m*3 6.48 C 17.7 km/h
790 24-12-2014 19:15:00 9.1 C 7.99 g/m*3 6.48 C 17.7 km/h
791 24-12-2014 19:20:00 9.1 C 7.99 g/m*3 6.87 C 14.5 km/h
792 24-12-2014 19:25:00 9.2 C 8.04 g/m*3 6.79 C 16.1 km/h
793 24-12-2014 19:30:00 9.2 C 8.04 g/m*3 6.79 C 16.1 km/h
794 24-12-2014 19:35:00 9.3 C 8.09 g/m*3 7.58 C 11.3 km/h
795 24-12-2014 19:40:00 9.3 C 8.09 g/m*3 7.33 C 12.9 km/h
796 24-12-2014 19:45:00 9.3 C 8.09 g/m*3 6.73 C 17.7 km/h
797 24-12-2014 19:50:00 9.3 C 8.09 g/m*3 6.56 C 19.3 km/h
798 24-12-2014 19:55:00 9.4 C 8.14 g/m*3 6.25 C 24.1 km/h
799 24-12-2014 20:00:00 9.4 C 8.14 g/m*3 7.24 C 14.5 km/h
800 24-12-2014 20:05:00 9.4 C 8.14 g/m*3 7.24 C 14.5 km/h
Sensor: Nr:Datum:Temp:Abs-Feuchte:Windchill:Wind:
Aussen-T/F 801 24-12-2014 20:10:00 9.4 C 8.14 g/m*3 7.7 C 11.3 km/h
802 24-12-2014 20:15:00 9.4 C 8.14 g/m*3 6.69 C 19.3 km/h
803 24-12-2014 20:20:00 9.4 C 8.14 g/m*3 7.24 C 14.5 km/h
804 24-12-2014 20:25:00 9.5 C 8.19 g/m*3 6.82 C 19.3 km/h
805 24-12-2014 20:30:00 9.5 C 8.19 g/m*3 6.98 C 17.7 km/h
806 24-12-2014 20:35:00 9.4 C 8.23 g/m*3 7.97 C 9.7 km/h
807 24-12-2014 20:40:00 9.3 C 8.18 g/m*3 7.85 C 9.7 km/h
808 24-12-2014 20:45:00 9.2 C 8.22 g/m*3 7.46 C 11.3 km/h
809 24-12-2014 20:50:00 9.1 C 8.25 g/m*3 7.93 C 8.1 km/h
810 24-12-2014 20:55:00 9.1 C 8.25 g/m*3 7.93 C 8.1 km/h
811 24-12-2014 21:00:00 8.9 C 8.15 g/m*3 6.85 C 12.9 km/h
812 24-12-2014 21:05:00 8.7 C 8.04 g/m*3 6.38 C 14.5 km/h
813 24-12-2014 21:10:00 8.6 C 7.99 g/m*3 6.73 C 11.3 km/h
814 24-12-2014 21:15:00 8.6 C 7.99 g/m*3 7.01 C 9.7 km/h
815 24-12-2014 21:20:00 8.6 C 7.99 g/m*3 8.6 C 4.8 km/h
816 24-12-2014 21:40:00 8.1 C 7.74 g/m*3 8.1 C 1.6 km/h
817 24-12-2014 21:45:00 8.1 C 7.74 g/m*3 5.87 C 12.9 km/h
818 24-12-2014 21:50:00 8 C 7.69 g/m*3 7.06 C 6.4 km/h
819 24-12-2014 21:55:00 7.9 C 7.64 g/m*3 5.89 C 11.3 km/h
820 24-12-2014 22:00:00 7.9 C 7.64 g/m*3 5.89 C 11.3 km/h
821 24-12-2014 22:05:00 7.8 C 7.43 g/m*3 4.86 C 17.7 km/h
822 24-12-2014 22:10:00 7.7 C 7.3 g/m*3 4.93 C 16.1 km/h
823 24-12-2014 22:15:00 7.4 C 7.16 g/m*3 5.28 C 11.3 km/h
824 24-12-2014 22:20:00 7.3 C 7.11 g/m*3 4.9 C 12.9 km/h
825 24-12-2014 22:25:00 7.2 C 7.14 g/m*3 5.35 C 9.7 km/h
Sensor: Nr:Datum:Temp:Abs-Feuchte:Windchill:Wind:
Aussen-T/F 826 24-12-2014 22:30:00 7.2 C 7.14 g/m*3 6.13 C 6.4 km/h
827 24-12-2014 22:35:00 7.1 C 7.18 g/m*3 5.58 C 8.1 km/h
828 24-12-2014 22:40:00 7 C 7.13 g/m*3 5.46 C 8.1 km/h
829 24-12-2014 22:45:00 7 C 7.21 g/m*3 7 C 4.8 km/h
830 24-12-2014 22:50:00 6.9 C 7.16 g/m*3 6.9 C 4.8 km/h
831 24-12-2014 22:55:00 6.9 C 7.16 g/m*3 6.9 C 1.6 km/h
832 24-12-2014 23:00:00 6.9 C 7.16 g/m*3 6.9 C 4.8 km/h
833 24-12-2014 23:05:00 6.9 C 7.16 g/m*3 6.9 C 4.8 km/h
834 24-12-2014 23:10:00 6.9 C 7.16 g/m*3 6.9 C 4.8 km/h
835 24-12-2014 23:15:00 6.8 C 7.19 g/m*3 6.8 C 3.2 km/h
836 24-12-2014 23:20:00 6.8 C 7.11 g/m*3 6.8 C 3.2 km/h
837 24-12-2014 23:25:00 6.8 C 7.11 g/m*3 5.67 C 6.4 km/h
838 24-12-2014 23:30:00 6.8 C 7.11 g/m*3 6.8 C 3.2 km/h
839 24-12-2014 23:35:00 6.8 C 7.04 g/m*3 6.8 C 3.2 km/h
840 24-12-2014 23:40:00 6.8 C 7.04 g/m*3 5.67 C 6.4 km/h
841 24-12-2014 23:45:00 6.8 C 6.96 g/m*3 6.8 C 1.6 km/h
842 24-12-2014 23:50:00 6.7 C 6.99 g/m*3 6.7 C 3.2 km/h
843 24-12-2014 23:55:00 6.6 C 6.95 g/m*3 5.44 C 6.4 km/h
844 25-12-2014 00:00:00 6.6 C 6.95 g/m*3 6.6 C 4.8 km/h
845 25-12-2014 00:05:00 6.6 C 6.95 g/m*3 6.6 C 3.2 km/h
846 25-12-2014 00:10:00 6.6 C 6.95 g/m*3 6.6 C 1.6 km/h
847 25-12-2014 00:15:00 6.6 C 6.95 g/m*3 6.6 C 3.2 km/h
848 25-12-2014 00:20:00 6.5 C 6.9 g/m*3 6.5 C 3.2 km/h
849 25-12-2014 00:25:00 6.5 C 6.82 g/m*3 4.87 C 8.1 km/h
850 25-12-2014 00:30:00 6.6 C 6.64 g/m*3 4.99 C 8.1 km/h
Sensor: Nr:Datum:Temp:Abs-Feuchte:Windchill:Wind:
Aussen-T/F 851 25-12-2014 00:35:00 6.7 C 6.76 g/m*3 6.7 C 4.8 km/h
852 25-12-2014 00:40:00 6.7 C 6.76 g/m*3 5.11 C 8.1 km/h
853 25-12-2014 00:45:00 6.7 C 6.76 g/m*3 6.7 C 1.6 km/h
854 25-12-2014 00:50:00 6.7 C 6.61 g/m*3 6.7 C 3.2 km/h
855 25-12-2014 00:55:00 6.7 C 6.76 g/m*3 6.7 C 3.2 km/h
856 25-12-2014 01:00:00 6.6 C 6.57 g/m*3 6.6 C 3.2 km/h
857 25-12-2014 01:05:00 6.6 C 6.72 g/m*3 6.6 C 1.6 km/h
858 25-12-2014 01:10:00 6.5 C 6.67 g/m*3 5.33 C 6.4 km/h
859 25-12-2014 01:15:00 6.5 C 6.67 g/m*3 6.5 C 4.8 km/h
860 25-12-2014 01:20:00 6.5 C 6.67 g/m*3 6.5 C 1.6 km/h
861 25-12-2014 01:25:00 6.4 C 6.48 g/m*3 6.4 C 3.2 km/h
862 25-12-2014 01:30:00 6.4 C 6.56 g/m*3 6.4 C 3.2 km/h
863 25-12-2014 01:35:00 6.3 C 6.51 g/m*3 6.3 C 1.6 km/h
864 25-12-2014 01:40:00 6.2 C 6.32 g/m*3 4.98 C 6.4 km/h
865 25-12-2014 01:45:00 6.2 C 6.32 g/m*3 6.2 C 4.8 km/h
866 25-12-2014 01:50:00 6.1 C 6.28 g/m*3 6.1 C 1.6 km/h
867 25-12-2014 01:55:00 6 C 6.17 g/m*3 6 C 4.8 km/h
868 25-12-2014 02:00:00 6 C 6.17 g/m*3 4.28 C 8.1 km/h
869 25-12-2014 02:05:00 6 C 5.81 g/m*3 3.06 C 14.5 km/h
870 25-12-2014 02:10:00 6.1 C 5.77 g/m*3 4.04 C 9.7 km/h
871 25-12-2014 02:15:00 6.1 C 5.7 g/m*3 4.86 C 6.4 km/h
872 25-12-2014 02:20:00 5.9 C 5.77 g/m*3 5.9 C 3.2 km/h
873 25-12-2014 02:25:00 5.7 C 5.69 g/m*3 4.4 C 6.4 km/h
874 25-12-2014 02:30:00 5.6 C 5.66 g/m*3 4.29 C 6.4 km/h
875 25-12-2014 02:35:00 5.5 C 5.62 g/m*3 4.17 C 6.4 km/h
Sensor: Nr:Datum:Temp:Abs-Feuchte:Windchill:Wind:
Aussen-T/F 876 25-12-2014 02:40:00 5.5 C 5.55 g/m*3 2.99 C 11.3 km/h
877 25-12-2014 02:45:00 5.4 C 5.51 g/m*3 5.4 C 4.8 km/h
878 25-12-2014 02:50:00 5.3 C 5.61 g/m*3 3.94 C 6.4 km/h
879 25-12-2014 02:55:00 5.2 C 5.78 g/m*3 5.2 C 4.8 km/h
880 25-12-2014 03:00:00 5.1 C 5.68 g/m*3 5.1 C 3.2 km/h
881 25-12-2014 03:05:00 4.9 C 5.74 g/m*3 4.9 C 3.2 km/h
882 25-12-2014 03:10:00 4.7 C 5.66 g/m*3 3.25 C 6.4 km/h
883 25-12-2014 03:15:00 4.8 C 5.63 g/m*3 4.8 C 4.8 km/h
884 25-12-2014 03:20:00 4.8 C 5.63 g/m*3 4.8 C 4.8 km/h
885 25-12-2014 03:25:00 4.8 C 5.63 g/m*3 2.87 C 8.1 km/h
886 25-12-2014 03:30:00 4.9 C 5.54 g/m*3 4.9 C 4.8 km/h
887 25-12-2014 03:35:00 5.1 C 5.61 g/m*3 5.1 C 4.8 km/h
888 25-12-2014 03:40:00 5.2 C 5.58 g/m*3 3.34 C 8.1 km/h
889 25-12-2014 03:45:00 5.2 C 5.58 g/m*3 3.82 C 6.4 km/h
890 25-12-2014 03:50:00 5.2 C 5.65 g/m*3 5.2 C 4.8 km/h
891 25-12-2014 03:55:00 5.2 C 5.58 g/m*3 3.34 C 8.1 km/h
892 25-12-2014 04:00:00 5.2 C 5.65 g/m*3 3.34 C 8.1 km/h
893 25-12-2014 04:05:00 5.1 C 5.61 g/m*3 3.23 C 8.1 km/h
894 25-12-2014 04:10:00 5.2 C 5.58 g/m*3 3.82 C 6.4 km/h
895 25-12-2014 04:15:00 5.2 C 5.58 g/m*3 3.34 C 8.1 km/h
896 25-12-2014 04:20:00 5.1 C 5.68 g/m*3 5.1 C 4.8 km/h
897 25-12-2014 04:25:00 5.1 C 5.68 g/m*3 5.1 C 4.8 km/h
898 25-12-2014 04:30:00 4.9 C 5.6 g/m*3 3.48 C 6.4 km/h
899 25-12-2014 04:35:00 4.9 C 5.67 g/m*3 3.48 C 6.4 km/h
900 25-12-2014 04:40:00 4.8 C 5.63 g/m*3 4.8 C 4.8 km/h
Sensor: Nr:Datum:Temp:Abs-Feuchte:Windchill:Wind:
Aussen-T/F 901 25-12-2014 04:45:00 4.8 C 5.63 g/m*3 3.36 C 6.4 km/h
902 25-12-2014 04:50:00 4.8 C 5.63 g/m*3 4.8 C 4.8 km/h
903 25-12-2014 04:55:00 4.8 C 5.63 g/m*3 4.8 C 4.8 km/h
904 25-12-2014 05:00:00 4.8 C 5.63 g/m*3 2.87 C 8.1 km/h
905 25-12-2014 05:05:00 4.8 C 5.7 g/m*3 3.36 C 6.4 km/h
906 25-12-2014 05:10:00 4.8 C 5.7 g/m*3 3.36 C 6.4 km/h
907 25-12-2014 05:15:00 4.8 C 5.7 g/m*3 4.8 C 4.8 km/h
908 25-12-2014 05:20:00 4.7 C 5.66 g/m*3 2.76 C 8.1 km/h
909 25-12-2014 05:25:00 4.7 C 5.66 g/m*3 3.25 C 6.4 km/h
910 25-12-2014 05:30:00 4.7 C 5.66 g/m*3 3.25 C 6.4 km/h
911 25-12-2014 05:35:00 4.7 C 5.73 g/m*3 4.7 C 3.2 km/h
912 25-12-2014 05:40:00 4.6 C 5.69 g/m*3 4.6 C 4.8 km/h
913 25-12-2014 05:45:00 4.4 C 5.68 g/m*3 4.4 C 4.8 km/h
914 25-12-2014 05:50:00 4.4 C 5.62 g/m*3 4.4 C 4.8 km/h
915 25-12-2014 05:55:00 4.4 C 5.68 g/m*3 4.4 C 4.8 km/h
916 25-12-2014 06:00:00 4.3 C 5.58 g/m*3 2.78 C 6.4 km/h
917 25-12-2014 06:05:00 4.3 C 5.64 g/m*3 4.3 C 4.8 km/h
918 25-12-2014 06:10:00 4.4 C 5.62 g/m*3 4.4 C 4.8 km/h
919 25-12-2014 06:15:00 4.3 C 5.58 g/m*3 4.3 C 3.2 km/h
920 25-12-2014 06:20:00 4.2 C 5.61 g/m*3 4.2 C 3.2 km/h
921 25-12-2014 06:25:00 4.1 C 5.57 g/m*3 4.1 C 3.2 km/h
922 25-12-2014 06:30:00 4 C 5.59 g/m*3 2.44 C 6.4 km/h
923 25-12-2014 06:35:00 3.9 C 5.56 g/m*3 3.9 C 3.2 km/h
924 25-12-2014 06:40:00 3.8 C 5.58 g/m*3 3.8 C 3.2 km/h
925 25-12-2014 06:45:00 3.6 C 5.51 g/m*3 3.6 C 3.2 km/h
Sensor: Nr:Datum:Temp:Abs-Feuchte:Windchill:Wind:
Aussen-T/F 926 25-12-2014 06:50:00 3.5 C 5.53 g/m*3 3.5 C 4.8 km/h
927 25-12-2014 06:55:00 3.4 C 5.5 g/m*3 1.23 C 8.1 km/h
928 25-12-2014 07:00:00 3.4 C 5.5 g/m*3 1.75 C 6.4 km/h
929 25-12-2014 07:05:00 3.4 C 5.5 g/m*3 3.4 C 4.8 km/h
930 25-12-2014 07:10:00 3.5 C 5.53 g/m*3 3.5 C 4.8 km/h
931 25-12-2014 07:15:00 3.7 C 5.55 g/m*3 1.58 C 8.1 km/h
932 25-12-2014 07:20:00 3.6 C 5.51 g/m*3 3.6 C 3.2 km/h
933 25-12-2014 07:25:00 3.6 C 5.51 g/m*3 1.98 C 6.4 km/h
934 25-12-2014 07:30:00 3.7 C 5.55 g/m*3 2.09 C 6.4 km/h
935 25-12-2014 07:35:00 3.8 C 5.52 g/m*3 1.7 C 8.1 km/h
936 25-12-2014 07:40:00 3.8 C 5.52 g/m*3 1.7 C 8.1 km/h
937 25-12-2014 07:45:00 3.8 C 5.52 g/m*3 2.21 C 6.4 km/h
938 25-12-2014 07:50:00 3.8 C 5.52 g/m*3 0.94 C 11.3 km/h
939 25-12-2014 07:55:00 3.9 C 5.49 g/m*3 1.06 C 11.3 km/h
940 25-12-2014 08:00:00 4.1 C 5.5 g/m*3 2.05 C 8.1 km/h
941 25-12-2014 08:05:00 4.2 C 5.54 g/m*3 2.17 C 8.1 km/h
942 25-12-2014 08:10:00 4.1 C 5.5 g/m*3 2.05 C 8.1 km/h
943 25-12-2014 08:15:00 4.1 C 5.57 g/m*3 2.55 C 6.4 km/h
944 25-12-2014 08:20:00 4.2 C 5.54 g/m*3 0.36 C 17.7 km/h
945 25-12-2014 08:25:00 4.2 C 5.54 g/m*3 1.12 C 12.9 km/h
946 25-12-2014 08:30:00 4.3 C 5.51 g/m*3 0.72 C 16.1 km/h
947 25-12-2014 08:35:00 4.4 C 5.55 g/m*3 1.67 C 11.3 km/h
948 25-12-2014 08:40:00 4.4 C 5.55 g/m*3 1.09 C 14.5 km/h
949 25-12-2014 08:45:00 4.4 C 5.55 g/m*3 0.61 C 17.7 km/h
950 25-12-2014 08:50:00 4.3 C 5.51 g/m*3 1.89 C 9.7 km/h
Sensor: Nr:Datum:Temp:Abs-Feuchte:Windchill:Wind:
Aussen-T/F 951 25-12-2014 08:55:00 4.3 C 5.51 g/m*3 1.89 C 9.7 km/h
952 25-12-2014 09:00:00 4.2 C 5.54 g/m*3 1.43 C 11.3 km/h
953 25-12-2014 09:05:00 4.1 C 5.5 g/m*3 2.05 C 8.1 km/h
954 25-12-2014 09:10:00 4.1 C 5.5 g/m*3 1.65 C 9.7 km/h
955 25-12-2014 09:15:00 4.1 C 5.5 g/m*3 4.1 C 4.8 km/h
956 25-12-2014 10:10:00 4.6 C 6.62 g/m*3 2.25 C 9.7 km/h
957 25-12-2014 10:15:00 4.7 C 5.73 g/m*3 1.73 C 12.9 km/h
958 25-12-2014 10:20:00 4.9 C 5.74 g/m*3 2.61 C 9.7 km/h
959 25-12-2014 10:25:00 5.1 C 5.75 g/m*3 2.51 C 11.3 km/h
960 25-12-2014 10:30:00 5.2 C 5.78 g/m*3 2.63 C 11.3 km/h
961 25-12-2014 10:35:00 5.2 C 5.78 g/m*3 3.82 C 6.4 km/h
962 25-12-2014 10:40:00 5.3 C 5.82 g/m*3 2.46 C 12.9 km/h
963 25-12-2014 10:45:00 5.3 C 5.75 g/m*3 3.46 C 8.1 km/h
964 25-12-2014 10:50:00 5.4 C 5.79 g/m*3 2.58 C 12.9 km/h
965 25-12-2014 10:55:00 5.5 C 5.83 g/m*3 3.32 C 9.7 km/h
966 25-12-2014 11:00:00 5.5 C 5.83 g/m*3 3.7 C 8.1 km/h
967 25-12-2014 11:05:00 5.6 C 5.87 g/m*3 2.83 C 12.9 km/h
968 25-12-2014 11:10:00 5.6 C 5.87 g/m*3 3.11 C 11.3 km/h
969 25-12-2014 11:15:00 5.6 C 5.8 g/m*3 2.83 C 12.9 km/h
970 25-12-2014 11:20:00 5.6 C 5.8 g/m*3 2.11 C 17.7 km/h
971 25-12-2014 11:25:00 5.6 C 5.8 g/m*3 3.11 C 11.3 km/h
972 25-12-2014 11:30:00 5.6 C 5.8 g/m*3 3.44 C 9.7 km/h
973 25-12-2014 11:35:00 5.7 C 5.91 g/m*3 3.23 C 11.3 km/h
974 25-12-2014 11:40:00 5.8 C 5.87 g/m*3 3.68 C 9.7 km/h
975 25-12-2014 11:45:00 5.8 C 5.95 g/m*3 4.52 C 6.4 km/h
Sensor: Nr:Datum:Temp:Abs-Feuchte:Windchill:Wind:
Aussen-T/F 976 25-12-2014 11:50:00 5.8 C 5.95 g/m*3 3.36 C 11.3 km/h
977 25-12-2014 11:55:00 5.9 C 5.91 g/m*3 4.17 C 8.1 km/h
978 25-12-2014 12:00:00 6 C 5.95 g/m*3 2.82 C 16.1 km/h
979 25-12-2014 12:05:00 6 C 5.95 g/m*3 3.6 C 11.3 km/h
980 25-12-2014 12:10:00 6 C 5.95 g/m*3 3.6 C 11.3 km/h
981 25-12-2014 12:15:00 6 C 5.95 g/m*3 3.31 C 12.9 km/h
982 25-12-2014 12:20:00 6 C 5.95 g/m*3 3.6 C 11.3 km/h
983 25-12-2014 12:25:00 5.9 C 5.98 g/m*3 3.8 C 9.7 km/h
984 25-12-2014 12:30:00 6 C 5.95 g/m*3 4.28 C 8.1 km/h
985 25-12-2014 12:35:00 6 C 6.02 g/m*3 3.92 C 9.7 km/h
986 25-12-2014 12:40:00 6 C 6.02 g/m*3 4.75 C 6.4 km/h
987 25-12-2014 12:45:00 6 C 6.02 g/m*3 6 C 4.8 km/h
988 25-12-2014 12:50:00 5.9 C 6.06 g/m*3 3.48 C 11.3 km/h
989 25-12-2014 12:55:00 5.9 C 6.06 g/m*3 4.63 C 6.4 km/h
990 25-12-2014 13:00:00 5.9 C 6.13 g/m*3 3.48 C 11.3 km/h
991 25-12-2014 13:05:00 5.9 C 6.13 g/m*3 3.19 C 12.9 km/h
992 25-12-2014 13:10:00 5.9 C 6.13 g/m*3 3.8 C 9.7 km/h
993 25-12-2014 13:15:00 6 C 6.17 g/m*3 6 C 4.8 km/h
994 25-12-2014 13:20:00 6 C 6.17 g/m*3 4.28 C 8.1 km/h
995 25-12-2014 13:25:00 6.1 C 6.21 g/m*3 3.43 C 12.9 km/h
996 25-12-2014 13:30:00 6.2 C 6.18 g/m*3 4.15 C 9.7 km/h
997 25-12-2014 13:35:00 6.3 C 6.22 g/m*3 5.1 C 6.4 km/h
998 25-12-2014 13:40:00 6.3 C 6.22 g/m*3 4.64 C 8.1 km/h
999 25-12-2014 13:45:00 6.3 C 6.29 g/m*3 6.3 C 4.8 km/h
1000 25-12-2014 13:50:00 6.3 C 6.29 g/m*3 6.3 C 4.8 km/h
Sensor: Nr:Datum:Temp:Abs-Feuchte:Windchill:Wind:
Aussen-T/F 1001 25-12-2014 13:55:00 6.3 C 6.22 g/m*3 5.1 C 6.4 km/h
1002 25-12-2014 14:00:00 6.4 C 6.26 g/m*3 4.08 C 11.3 km/h
1003 25-12-2014 14:05:00 6.4 C 6.26 g/m*3 4.75 C 8.1 km/h
1004 25-12-2014 14:10:00 6.5 C 6.22 g/m*3 4.2 C 11.3 km/h
1005 25-12-2014 14:15:00 6.6 C 6.27 g/m*3 6.6 C 4.8 km/h
1006 25-12-2014 14:20:00 6.7 C 6.23 g/m*3 4.17 C 12.9 km/h
1007 25-12-2014 14:25:00 6.8 C 6.27 g/m*3 3.82 C 16.1 km/h
1008 25-12-2014 14:30:00 6.8 C 6.27 g/m*3 4.29 C 12.9 km/h
1009 25-12-2014 14:35:00 6.8 C 6.27 g/m*3 4.04 C 14.5 km/h
1010 25-12-2014 14:40:00 6.8 C 6.19 g/m*3 3.61 C 17.7 km/h
1011 25-12-2014 14:45:00 6.9 C 6.16 g/m*3 4.41 C 12.9 km/h
1012 25-12-2014 14:50:00 6.9 C 6.16 g/m*3 4.41 C 12.9 km/h
1013 25-12-2014 14:55:00 7 C 6.2 g/m*3 4.29 C 14.5 km/h
1014 25-12-2014 15:00:00 7 C 6.12 g/m*3 4.53 C 12.9 km/h
1015 25-12-2014 15:05:00 7 C 6.12 g/m*3 4.53 C 12.9 km/h
1016 25-12-2014 15:10:00 6.9 C 6.16 g/m*3 5.34 C 8.1 km/h
1017 25-12-2014 15:15:00 6.9 C 6.16 g/m*3 4.16 C 14.5 km/h
1018 25-12-2014 15:20:00 6.9 C 6.16 g/m*3 4.16 C 14.5 km/h
1019 25-12-2014 15:25:00 6.9 C 6.08 g/m*3 3.94 C 16.1 km/h
1020 25-12-2014 15:30:00 6.8 C 6.12 g/m*3 3.82 C 16.1 km/h
1021 25-12-2014 15:35:00 6.8 C 6.12 g/m*3 4.04 C 14.5 km/h
1022 25-12-2014 15:40:00 6.8 C 6.12 g/m*3 5.22 C 8.1 km/h
1023 25-12-2014 15:45:00 6.8 C 6.12 g/m*3 4.56 C 11.3 km/h
1024 25-12-2014 15:50:00 6.8 C 6.19 g/m*3 4.56 C 11.3 km/h
1025 25-12-2014 15:55:00 6.7 C 6.23 g/m*3 4.17 C 12.9 km/h
Sensor: Nr:Datum:Temp:Abs-Feuchte:Windchill:Wind:
Aussen-T/F 1026 25-12-2014 16:00:00 6.5 C 6.15 g/m*3 3.23 C 17.7 km/h
1027 25-12-2014 16:05:00 6.4 C 6.18 g/m*3 3.8 C 12.9 km/h
1028 25-12-2014 16:10:00 6.3 C 6.22 g/m*3 5.1 C 6.4 km/h
1029 25-12-2014 16:15:00 6.2 C 6.18 g/m*3 3.84 C 11.3 km/h
1030 25-12-2014 16:20:00 6.2 C 6.1 g/m*3 3.56 C 12.9 km/h
1031 25-12-2014 16:25:00 6.3 C 6.14 g/m*3 4.64 C 8.1 km/h
1032 25-12-2014 16:30:00 6.3 C 6.14 g/m*3 4.27 C 9.7 km/h
1033 25-12-2014 16:35:00 6.4 C 6.11 g/m*3 4.75 C 8.1 km/h
1034 25-12-2014 16:40:00 6.4 C 6.11 g/m*3 5.21 C 6.4 km/h
1035 25-12-2014 16:45:00 6.3 C 6.14 g/m*3 6.3 C 3.2 km/h
1036 25-12-2014 16:50:00 6.3 C 6.14 g/m*3 4.27 C 9.7 km/h
1037 25-12-2014 16:55:00 6.2 C 6.25 g/m*3 2.86 C 17.7 km/h
1038 25-12-2014 17:00:00 5.6 C 6.01 g/m*3 3.11 C 11.3 km/h
1039 25-12-2014 17:05:00 5.6 C 6.01 g/m*3 3.81 C 8.1 km/h
1040 25-12-2014 17:10:00 5.6 C 6.29 g/m*3 5.6 C 3.2 km/h
1041 25-12-2014 17:15:00 5.6 C 6.29 g/m*3 4.29 C 6.4 km/h
1042 25-12-2014 18:10:00 4.3 C 5.97 g/m*3 2.29 C 8.1 km/h
1043 25-12-2014 18:15:00 4.3 C 5.97 g/m*3 2.78 C 6.4 km/h
1044 25-12-2014 18:20:00 4.3 C 5.97 g/m*3 4.3 C 4.8 km/h
1045 25-12-2014 18:25:00 4.3 C 5.97 g/m*3 2.78 C 6.4 km/h
1046 25-12-2014 18:30:00 4.3 C 5.97 g/m*3 4.3 C 4.8 km/h
1047 25-12-2014 18:35:00 4.3 C 5.97 g/m*3 2.78 C 6.4 km/h
1048 25-12-2014 18:40:00 4.3 C 5.97 g/m*3 2.29 C 8.1 km/h
1049 25-12-2014 19:20:00 4.2 C 5.99 g/m*3 2.17 C 8.1 km/h
1050 25-12-2014 19:25:00 4.3 C 6.03 g/m*3 2.29 C 8.1 km/h
Sensor: Nr:Datum:Temp:Abs-Feuchte:Windchill:Wind:
Aussen-T/F 1051 25-12-2014 19:30:00 4.3 C 6.03 g/m*3 2.29 C 8.1 km/h
1052 25-12-2014 19:35:00 4.3 C 6.03 g/m*3 1.55 C 11.3 km/h
1053 25-12-2014 19:40:00 4.3 C 6.03 g/m*3 2.78 C 6.4 km/h
1054 25-12-2014 19:45:00 4.3 C 5.97 g/m*3 2.78 C 6.4 km/h
1055 25-12-2014 19:50:00 4.3 C 5.97 g/m*3 2.78 C 6.4 km/h
1056 25-12-2014 19:55:00 4.4 C 6.01 g/m*3 2.4 C 8.1 km/h
1057 25-12-2014 20:00:00 4.4 C 6.01 g/m*3 2.4 C 8.1 km/h
1058 25-12-2014 20:05:00 4.4 C 6.01 g/m*3 2.4 C 8.1 km/h
1059 25-12-2014 20:10:00 4.4 C 6.01 g/m*3 2.01 C 9.7 km/h
1060 25-12-2014 20:15:00 4.4 C 6.01 g/m*3 4.4 C 4.8 km/h
1061 25-12-2014 20:20:00 4.4 C 6.01 g/m*3 4.4 C 4.8 km/h
1062 25-12-2014 22:55:00 2.6 C 5.79 g/m*3 2.6 C 0 km/h
1063 25-12-2014 23:00:00 2.6 C 5.79 g/m*3 2.6 C 0 km/h
1064 25-12-2014 23:05:00 2.6 C 5.79 g/m*3 2.6 C 3.2 km/h
1065 25-12-2014 23:45:00 1.9 C 5.3 g/m*3 1.9 C 1.6 km/h
1066 25-12-2014 23:50:00 1.8 C 5.26 g/m*3 1.8 C 0 km/h
1067 25-12-2014 23:55:00 1.8 C 5.26 g/m*3 1.8 C 1.6 km/h
1068 26-12-2014 00:00:00 1.9 C 5.35 g/m*3 1.9 C 1.6 km/h
1069 26-12-2014 00:05:00 2.1 C 5.43 g/m*3 2.1 C 1.6 km/h
1070 26-12-2014 00:10:00 2.1 C 5.43 g/m*3 2.1 C 0 km/h
1071 26-12-2014 00:15:00 2.1 C 5.43 g/m*3 2.1 C 0 km/h
1072 26-12-2014 00:20:00 2.1 C 5.43 g/m*3 2.1 C 1.6 km/h
1073 26-12-2014 00:25:00 2.1 C 5.43 g/m*3 2.1 C 0 km/h
1074 26-12-2014 00:30:00 2.1 C 5.43 g/m*3 2.1 C 0 km/h
1075 26-12-2014 00:35:00 2.1 C 5.43 g/m*3 2.1 C 1.6 km/h
Sensor: Nr:Datum:Temp:Abs-Feuchte:Windchill:Wind:
Aussen-T/F 1076 26-12-2014 00:40:00 2.1 C 5.43 g/m*3 2.1 C 0 km/h
1077 26-12-2014 00:45:00 2.2 C 5.46 g/m*3 2.2 C 0 km/h
1078 26-12-2014 00:50:00 2.2 C 5.46 g/m*3 2.2 C 0 km/h
1079 26-12-2014 00:55:00 2.2 C 5.46 g/m*3 2.2 C 0 km/h
1080 26-12-2014 01:00:00 2.2 C 5.46 g/m*3 2.2 C 0 km/h
1081 26-12-2014 01:05:00 2.2 C 5.46 g/m*3 2.2 C 0 km/h
1082 26-12-2014 01:10:00 2.2 C 5.46 g/m*3 2.2 C 0 km/h
1083 26-12-2014 01:15:00 2.2 C 5.46 g/m*3 2.2 C 0 km/h
1084 26-12-2014 01:20:00 2.3 C 5.5 g/m*3 2.3 C 0 km/h
1085 26-12-2014 01:25:00 2.3 C 5.5 g/m*3 0.47 C 6.4 km/h
1086 26-12-2014 01:30:00 2.3 C 5.5 g/m*3 2.3 C 3.2 km/h
1087 26-12-2014 01:35:00 2.2 C 5.46 g/m*3 2.2 C 4.8 km/h
1088 26-12-2014 01:40:00 2.2 C 5.46 g/m*3 2.2 C 4.8 km/h
1089 26-12-2014 01:45:00 2.2 C 5.46 g/m*3 2.2 C 1.6 km/h
1090 26-12-2014 05:40:00 3.2 C 6.03 g/m*3 3.2 C 1.6 km/h
1091 26-12-2014 05:45:00 3.2 C 6.03 g/m*3 3.2 C 3.2 km/h
1092 26-12-2014 05:50:00 3.2 C 6.03 g/m*3 3.2 C 4.8 km/h
1093 26-12-2014 10:30:00 3.2 C 6.03 g/m*3 3.2 C 4.8 km/h
1094 26-12-2014 10:35:00 3.2 C 6.03 g/m*3 3.2 C 4.8 km/h
1095 26-12-2014 14:05:00 3.5 C 5.84 g/m*3 3.5 C 0 km/h
1096 26-12-2014 14:10:00 3.6 C 5.88 g/m*3 3.6 C 0 km/h
1097 26-12-2014 14:15:00 3.6 C 5.88 g/m*3 3.6 C 0 km/h
1098 26-12-2014 14:20:00 3.6 C 5.88 g/m*3 3.6 C 0 km/h
1099 26-12-2014 14:40:00 3.7 C 5.92 g/m*3 3.7 C 0 km/h
1100 26-12-2014 14:45:00 3.7 C 5.98 g/m*3 3.7 C 0 km/h
Sensor: Nr:Datum:Temp:Abs-Feuchte:Windchill:Wind:
Aussen-T/F 1101 26-12-2014 14:50:00 3.8 C 6.02 g/m*3 3.8 C 0 km/h
1102 26-12-2014 14:55:00 3.8 C 6.02 g/m*3 3.8 C 0 km/h
1103 26-12-2014 15:00:00 3.8 C 6.02 g/m*3 3.8 C 0 km/h
1104 26-12-2014 15:05:00 3.8 C 6.02 g/m*3 3.8 C 1.6 km/h
1105 26-12-2014 15:10:00 3.8 C 6.02 g/m*3 3.8 C 1.6 km/h
1106 26-12-2014 15:15:00 3.7 C 5.98 g/m*3 3.7 C 1.6 km/h
1107 26-12-2014 15:20:00 3.7 C 5.98 g/m*3 3.7 C 0 km/h
1108 26-12-2014 15:25:00 3.7 C 5.98 g/m*3 3.7 C 0 km/h
1109 26-12-2014 15:30:00 3.7 C 5.98 g/m*3 3.7 C 0 km/h
1110 26-12-2014 15:35:00 3.7 C 5.98 g/m*3 3.7 C 0 km/h
1111 26-12-2014 15:40:00 3.7 C 5.98 g/m*3 3.7 C 0 km/h
1112 26-12-2014 15:45:00 3.7 C 5.98 g/m*3 3.7 C 0 km/h
1113 26-12-2014 15:50:00 3.7 C 5.98 g/m*3 3.7 C 0 km/h
1114 26-12-2014 15:55:00 3.6 C 5.94 g/m*3 3.6 C 0 km/h
1115 26-12-2014 16:00:00 3.5 C 5.9 g/m*3 3.5 C 0 km/h
1116 26-12-2014 16:05:00 3.4 C 5.86 g/m*3 3.4 C 0 km/h
1117 26-12-2014 16:10:00 3.3 C 5.82 g/m*3 3.3 C 0 km/h
1118 26-12-2014 16:15:00 3.2 C 5.79 g/m*3 3.2 C 0 km/h
1119 26-12-2014 16:20:00 3.1 C 5.75 g/m*3 3.1 C 0 km/h
1120 26-12-2014 16:25:00 3.1 C 5.75 g/m*3 3.1 C 0 km/h
1121 26-12-2014 16:30:00 3 C 5.71 g/m*3 3 C 0 km/h
1122 26-12-2014 16:35:00 2.9 C 5.67 g/m*3 2.9 C 1.6 km/h
1123 26-12-2014 16:40:00 2.9 C 5.67 g/m*3 2.9 C 1.6 km/h
1124 26-12-2014 16:45:00 2.9 C 5.67 g/m*3 2.9 C 0 km/h
1125 26-12-2014 16:50:00 2.8 C 5.63 g/m*3 2.8 C 0 km/h
Sensor: Nr:Datum:Temp:Abs-Feuchte:Windchill:Wind:
Aussen-T/F 1126 26-12-2014 16:55:00 2.8 C 5.69 g/m*3 2.8 C 0 km/h
1127 26-12-2014 17:00:00 2.9 C 5.73 g/m*3 2.9 C 0 km/h
1128 26-12-2014 17:05:00 2.9 C 5.73 g/m*3 2.9 C 0 km/h
1129 26-12-2014 17:10:00 2.9 C 5.73 g/m*3 2.9 C 0 km/h
1130 26-12-2014 17:15:00 2.9 C 5.73 g/m*3 2.9 C 0 km/h
1131 26-12-2014 17:20:00 2.9 C 5.73 g/m*3 2.9 C 1.6 km/h
1132 26-12-2014 17:25:00 3.1 C 5.81 g/m*3 3.1 C 1.6 km/h
1133 26-12-2014 17:30:00 3.1 C 5.81 g/m*3 3.1 C 0 km/h
1134 26-12-2014 17:35:00 2.9 C 5.73 g/m*3 2.9 C 0 km/h
1135 26-12-2014 17:40:00 2.7 C 5.65 g/m*3 2.7 C 0 km/h
1136 26-12-2014 17:45:00 2.4 C 5.48 g/m*3 2.4 C 0 km/h
1137 26-12-2014 17:50:00 2.3 C 5.44 g/m*3 2.3 C 0 km/h
1138 26-12-2014 17:55:00 2.1 C 5.37 g/m*3 2.1 C 0 km/h
1139 26-12-2014 18:00:00 2 C 5.33 g/m*3 2 C 0 km/h
1140 26-12-2014 18:05:00 1.9 C 5.35 g/m*3 1.9 C 0 km/h
1141 26-12-2014 18:10:00 1.8 C 5.32 g/m*3 1.8 C 0 km/h
1142 26-12-2014 18:15:00 1.7 C 5.23 g/m*3 1.7 C 0 km/h
1143 26-12-2014 18:20:00 1.7 C 5.28 g/m*3 1.7 C 0 km/h
1144 26-12-2014 18:25:00 1.6 C 5.25 g/m*3 1.6 C 0 km/h
1145 26-12-2014 18:30:00 1.6 C 5.25 g/m*3 1.6 C 0 km/h
1146 26-12-2014 18:35:00 1.6 C 5.25 g/m*3 1.6 C 0 km/h
1147 26-12-2014 18:40:00 1.6 C 5.25 g/m*3 1.6 C 0 km/h
1148 26-12-2014 18:45:00 1.5 C 5.21 g/m*3 1.5 C 0 km/h
1149 26-12-2014 18:50:00 1.5 C 5.21 g/m*3 1.5 C 0 km/h
1150 26-12-2014 18:55:00 1.6 C 5.25 g/m*3 1.6 C 0 km/h
Sensor: Nr:Datum:Temp:Abs-Feuchte:Windchill:Wind:
Aussen-T/F 1151 26-12-2014 19:00:00 1.6 C 5.25 g/m*3 1.6 C 0 km/h
1152 26-12-2014 19:05:00 1.5 C 5.21 g/m*3 1.5 C 0 km/h
1153 26-12-2014 19:10:00 1.4 C 5.17 g/m*3 1.4 C 0 km/h
1154 26-12-2014 19:15:00 1.3 C 5.14 g/m*3 1.3 C 0 km/h
1155 26-12-2014 19:20:00 1.3 C 5.14 g/m*3 1.3 C 0 km/h
1156 26-12-2014 19:25:00 1.3 C 5.14 g/m*3 1.3 C 0 km/h
1157 26-12-2014 19:30:00 1.3 C 5.14 g/m*3 1.3 C 1.6 km/h
1158 26-12-2014 19:35:00 1.3 C 5.14 g/m*3 1.3 C 0 km/h
1159 26-12-2014 19:40:00 1.4 C 5.17 g/m*3 1.4 C 0 km/h
1160 26-12-2014 19:45:00 1.4 C 5.17 g/m*3 1.4 C 1.6 km/h
1161 26-12-2014 19:50:00 1.3 C 5.14 g/m*3 1.3 C 0 km/h
1162 26-12-2014 19:55:00 1.3 C 5.14 g/m*3 1.3 C 0 km/h
1163 26-12-2014 20:00:00 1.3 C 5.14 g/m*3 1.3 C 0 km/h
1164 26-12-2014 20:05:00 1.3 C 5.14 g/m*3 1.3 C 0 km/h
1165 26-12-2014 20:10:00 1.3 C 5.14 g/m*3 1.3 C 0 km/h
1166 26-12-2014 20:15:00 1.4 C 5.17 g/m*3 1.4 C 1.6 km/h
1167 26-12-2014 20:20:00 1.6 C 5.3 g/m*3 1.6 C 0 km/h
1168 26-12-2014 20:25:00 1.6 C 5.3 g/m*3 1.6 C 0 km/h
1169 26-12-2014 20:30:00 1.6 C 5.3 g/m*3 1.6 C 1.6 km/h
1170 26-12-2014 20:35:00 1.6 C 5.3 g/m*3 1.6 C 1.6 km/h
1171 26-12-2014 20:40:00 1.6 C 5.3 g/m*3 1.6 C 3.2 km/h
1172 26-12-2014 20:45:00 1.6 C 5.3 g/m*3 1.6 C 1.6 km/h
1173 26-12-2014 20:50:00 1.5 C 5.26 g/m*3 1.5 C 1.6 km/h
1174 26-12-2014 20:55:00 1.5 C 5.26 g/m*3 1.5 C 1.6 km/h
1175 26-12-2014 21:00:00 1.6 C 5.3 g/m*3 1.6 C 1.6 km/h
Sensor: Nr:Datum:Temp:Abs-Feuchte:Windchill:Wind:
Aussen-T/F 1176 26-12-2014 21:05:00 1.6 C 5.3 g/m*3 1.6 C 1.6 km/h
1177 26-12-2014 21:10:00 1.7 C 5.34 g/m*3 1.7 C 1.6 km/h
1178 26-12-2014 21:15:00 1.7 C 5.34 g/m*3 1.7 C 3.2 km/h
1179 26-12-2014 21:20:00 1.7 C 5.34 g/m*3 1.7 C 1.6 km/h
1180 26-12-2014 21:25:00 1.8 C 5.37 g/m*3 1.8 C 3.2 km/h
1181 26-12-2014 21:30:00 1.8 C 5.37 g/m*3 1.8 C 1.6 km/h
1182 26-12-2014 21:35:00 2 C 5.45 g/m*3 2 C 3.2 km/h
1183 26-12-2014 21:40:00 2.1 C 5.48 g/m*3 2.1 C 1.6 km/h
1184 26-12-2014 21:45:00 2.2 C 5.52 g/m*3 2.2 C 3.2 km/h
1185 26-12-2014 21:50:00 2.2 C 5.52 g/m*3 2.2 C 0 km/h
1186 26-12-2014 21:55:00 2.2 C 5.52 g/m*3 2.2 C 0 km/h
1187 26-12-2014 22:00:00 2.2 C 5.52 g/m*3 2.2 C 0 km/h
1188 26-12-2014 22:05:00 2.2 C 5.52 g/m*3 2.2 C 1.6 km/h
1189 26-12-2014 22:10:00 2.2 C 5.52 g/m*3 2.2 C 0 km/h
1190 26-12-2014 22:15:00 2.1 C 5.48 g/m*3 2.1 C 3.2 km/h
1191 26-12-2014 22:20:00 2.1 C 5.48 g/m*3 2.1 C 1.6 km/h
1192 26-12-2014 22:25:00 2.1 C 5.48 g/m*3 2.1 C 0 km/h
1193 26-12-2014 22:30:00 2.1 C 5.48 g/m*3 2.1 C 0 km/h
1194 26-12-2014 22:35:00 2.1 C 5.48 g/m*3 2.1 C 0 km/h
1195 26-12-2014 22:40:00 2 C 5.45 g/m*3 2 C 0 km/h
1196 26-12-2014 22:45:00 2 C 5.45 g/m*3 2 C 0 km/h
1197 26-12-2014 22:50:00 1.9 C 5.41 g/m*3 1.9 C 0 km/h
1198 26-12-2014 22:55:00 1.9 C 5.41 g/m*3 1.9 C 0 km/h
1199 26-12-2014 23:00:00 1.9 C 5.41 g/m*3 1.9 C 0 km/h
1200 26-12-2014 23:05:00 1.9 C 5.41 g/m*3 1.9 C 0 km/h
Sensor: Nr:Datum:Temp:Abs-Feuchte:Windchill:Wind:
Aussen-T/F 1201 26-12-2014 23:10:00 1.8 C 5.37 g/m*3 1.8 C 0 km/h
1202 26-12-2014 23:15:00 1.8 C 5.37 g/m*3 1.8 C 0 km/h
1203 26-12-2014 23:20:00 1.8 C 5.37 g/m*3 1.8 C 0 km/h
1204 26-12-2014 23:25:00 1.8 C 5.37 g/m*3 1.8 C 0 km/h
1205 26-12-2014 23:30:00 1.8 C 5.37 g/m*3 1.8 C 0 km/h
1206 26-12-2014 23:35:00 1.8 C 5.37 g/m*3 1.8 C 0 km/h
1207 26-12-2014 23:40:00 1.7 C 5.34 g/m*3 1.7 C 0 km/h
1208 26-12-2014 23:45:00 1.7 C 5.34 g/m*3 1.7 C 0 km/h
1209 26-12-2014 23:50:00 1.8 C 5.37 g/m*3 1.8 C 3.2 km/h
1210 26-12-2014 23:55:00 1.8 C 5.37 g/m*3 1.8 C 0 km/h
1211 27-12-2014 00:00:00 1.8 C 5.37 g/m*3 1.8 C 3.2 km/h
1212 27-12-2014 00:05:00 1.8 C 5.37 g/m*3 1.8 C 0 km/h
1213 27-12-2014 00:10:00 1.8 C 5.37 g/m*3 1.8 C 0 km/h
1214 27-12-2014 00:15:00 1.8 C 5.37 g/m*3 1.8 C 0 km/h
1215 27-12-2014 00:20:00 1.8 C 5.37 g/m*3 1.8 C 1.6 km/h
1216 27-12-2014 00:25:00 1.8 C 5.37 g/m*3 1.8 C 0 km/h
1217 27-12-2014 00:30:00 1.8 C 5.32 g/m*3 1.8 C 0 km/h
1218 27-12-2014 00:35:00 1.8 C 5.32 g/m*3 1.8 C 0 km/h
1219 27-12-2014 00:40:00 1.8 C 5.32 g/m*3 1.8 C 0 km/h
1220 27-12-2014 00:45:00 1.8 C 5.32 g/m*3 1.8 C 1.6 km/h
1221 27-12-2014 00:50:00 1.8 C 5.37 g/m*3 1.8 C 0 km/h
1222 27-12-2014 00:55:00 1.8 C 5.32 g/m*3 1.8 C 1.6 km/h
1223 27-12-2014 01:00:00 1.7 C 5.28 g/m*3 1.7 C 0 km/h
1224 27-12-2014 01:05:00 1.7 C 5.28 g/m*3 1.7 C 0 km/h
1225 27-12-2014 01:10:00 1.7 C 5.28 g/m*3 1.7 C 3.2 km/h
Sensor: Nr:Datum:Temp:Abs-Feuchte:Windchill:Wind:
Aussen-T/F 1226 27-12-2014 01:15:00 1.7 C 5.28 g/m*3 1.7 C 1.6 km/h
1227 27-12-2014 01:20:00 1.7 C 5.28 g/m*3 1.7 C 0 km/h
1228 27-12-2014 01:25:00 1.7 C 5.28 g/m*3 1.7 C 3.2 km/h
1229 27-12-2014 01:30:00 1.7 C 5.28 g/m*3 1.7 C 3.2 km/h
1230 27-12-2014 01:35:00 1.7 C 5.34 g/m*3 1.7 C 3.2 km/h
1231 27-12-2014 01:40:00 1.7 C 5.34 g/m*3 1.7 C 1.6 km/h
1232 27-12-2014 01:45:00 1.7 C 5.34 g/m*3 1.7 C 0 km/h
1233 27-12-2014 01:50:00 1.7 C 5.28 g/m*3 1.7 C 1.6 km/h
1234 27-12-2014 01:55:00 1.8 C 5.37 g/m*3 1.8 C 3.2 km/h
1235 27-12-2014 02:00:00 1.8 C 5.37 g/m*3 1.8 C 3.2 km/h
1236 27-12-2014 02:05:00 1.8 C 5.32 g/m*3 1.8 C 0 km/h
1237 27-12-2014 02:10:00 1.8 C 5.37 g/m*3 1.8 C 1.6 km/h
1238 27-12-2014 02:15:00 1.8 C 5.37 g/m*3 1.8 C 0 km/h
1239 27-12-2014 02:20:00 1.8 C 5.37 g/m*3 1.8 C 0 km/h
1240 27-12-2014 02:25:00 1.8 C 5.37 g/m*3 1.8 C 3.2 km/h
1241 27-12-2014 02:30:00 1.9 C 5.41 g/m*3 1.9 C 1.6 km/h
1242 27-12-2014 02:35:00 1.9 C 5.41 g/m*3 1.9 C 1.6 km/h
1243 27-12-2014 02:40:00 1.9 C 5.41 g/m*3 1.9 C 4.8 km/h
1244 27-12-2014 02:45:00 1.9 C 5.35 g/m*3 1.9 C 4.8 km/h
1245 27-12-2014 02:50:00 1.9 C 5.35 g/m*3 1.9 C 1.6 km/h
1246 27-12-2014 02:55:00 1.9 C 5.35 g/m*3 1.9 C 0 km/h
1247 27-12-2014 03:00:00 1.9 C 5.35 g/m*3 1.9 C 1.6 km/h
1248 27-12-2014 03:05:00 1.9 C 5.35 g/m*3 1.9 C 0 km/h
1249 27-12-2014 03:10:00 2 C 5.39 g/m*3 2 C 0 km/h
1250 27-12-2014 03:15:00 1.9 C 5.35 g/m*3 1.9 C 3.2 km/h
Sensor: Nr:Datum:Temp:Abs-Feuchte:Windchill:Wind:
Aussen-T/F 1251 27-12-2014 03:20:00 1.9 C 5.35 g/m*3 1.9 C 3.2 km/h
1252 27-12-2014 03:25:00 1.9 C 5.35 g/m*3 1.9 C 1.6 km/h
1253 27-12-2014 03:30:00 2 C 5.39 g/m*3 2 C 1.6 km/h
1254 27-12-2014 03:35:00 2 C 5.39 g/m*3 2 C 0 km/h
1255 27-12-2014 03:40:00 2.1 C 5.43 g/m*3 2.1 C 0 km/h
1256 27-12-2014 03:45:00 2.1 C 5.43 g/m*3 2.1 C 0 km/h
1257 27-12-2014 03:50:00 2.1 C 5.43 g/m*3 2.1 C 1.6 km/h
1258 27-12-2014 03:55:00 2.1 C 5.43 g/m*3 2.1 C 1.6 km/h
1259 27-12-2014 04:00:00 2.2 C 5.46 g/m*3 2.2 C 3.2 km/h
1260 27-12-2014 04:05:00 2.2 C 5.46 g/m*3 2.2 C 1.6 km/h
1261 27-12-2014 04:10:00 2.2 C 5.46 g/m*3 2.2 C 0 km/h
1262 27-12-2014 04:15:00 2.2 C 5.46 g/m*3 2.2 C 4.8 km/h
1263 27-12-2014 04:20:00 2.3 C 5.5 g/m*3 2.3 C 4.8 km/h
1264 27-12-2014 04:25:00 2.3 C 5.5 g/m*3 2.3 C 3.2 km/h
1265 27-12-2014 04:30:00 2.3 C 5.5 g/m*3 2.3 C 1.6 km/h
1266 27-12-2014 05:45:00 1.8 C 5.21 g/m*3 1.8 C 3.2 km/h
1267 27-12-2014 05:50:00 1.8 C 5.21 g/m*3 -0.1 C 6.4 km/h
1268 27-12-2014 05:55:00 1.8 C 5.21 g/m*3 -2.11 C 14.5 km/h
1269 27-12-2014 06:00:00 1.8 C 5.21 g/m*3 1.8 C 4.8 km/h
1270 27-12-2014 06:05:00 1.8 C 5.21 g/m*3 1.8 C 4.8 km/h
1271 27-12-2014 06:10:00 1.8 C 5.21 g/m*3 1.8 C 4.8 km/h
1272 27-12-2014 06:15:00 1.8 C 5.21 g/m*3 1.8 C 4.8 km/h
1273 27-12-2014 06:20:00 1.8 C 5.21 g/m*3 1.8 C 3.2 km/h
1274 27-12-2014 06:25:00 1.8 C 5.21 g/m*3 -1.09 C 9.7 km/h
1275 27-12-2014 06:30:00 1.8 C 5.21 g/m*3 -0.1 C 6.4 km/h
Sensor: Nr:Datum:Temp:Abs-Feuchte:Windchill:Wind:
Aussen-T/F 1276 27-12-2014 06:50:00 1.7 C 5.17 g/m*3 -0.22 C 6.4 km/h
1277 27-12-2014 06:55:00 1.6 C 5.14 g/m*3 -0.89 C 8.1 km/h
1278 27-12-2014 07:00:00 1.6 C 5.14 g/m*3 -0.89 C 8.1 km/h
1279 27-12-2014 07:05:00 1.6 C 5.14 g/m*3 -1.33 C 9.7 km/h
1280 27-12-2014 07:10:00 1.6 C 5.14 g/m*3 -0.89 C 8.1 km/h
1281 27-12-2014 07:30:00 1.4 C 5.07 g/m*3 -0.56 C 6.4 km/h
1282 27-12-2014 07:35:00 1.3 C 5.03 g/m*3 -1.69 C 9.7 km/h
1283 27-12-2014 07:40:00 1.3 C 5.03 g/m*3 -1.69 C 9.7 km/h
1284 27-12-2014 07:45:00 1.3 C 5.03 g/m*3 -2.07 C 11.3 km/h
1285 27-12-2014 07:50:00 1.3 C 5.03 g/m*3 -0.68 C 6.4 km/h
1286 27-12-2014 07:55:00 1.3 C 5.03 g/m*3 -2.41 C 12.9 km/h
1287 27-12-2014 08:00:00 1.3 C 5.03 g/m*3 -2.41 C 12.9 km/h
1288 27-12-2014 08:05:00 1.3 C 5.03 g/m*3 -2.07 C 11.3 km/h
1289 27-12-2014 08:10:00 1.3 C 5.03 g/m*3 -2.41 C 12.9 km/h
1290 27-12-2014 09:05:00 1.3 C 4.98 g/m*3 -1.69 C 9.7 km/h
1291 27-12-2014 09:10:00 1.3 C 5.03 g/m*3 -1.24 C 8.1 km/h
1292 27-12-2014 09:15:00 1.2 C 5 g/m*3 -2.19 C 11.3 km/h
1293 27-12-2014 09:20:00 1.2 C 5 g/m*3 -1.36 C 8.1 km/h
1294 27-12-2014 09:25:00 1.1 C 4.96 g/m*3 -0.91 C 6.4 km/h
1295 27-12-2014 09:30:00 1.2 C 5 g/m*3 -0.8 C 6.4 km/h
1296 27-12-2014 09:35:00 1.2 C 5.05 g/m*3 -1.8 C 9.7 km/h
1297 27-12-2014 09:40:00 1.2 C 5 g/m*3 -1.36 C 8.1 km/h
1298 27-12-2014 09:45:00 1.2 C 5 g/m*3 -1.8 C 9.7 km/h
1299 27-12-2014 09:50:00 1.2 C 5 g/m*3 -1.36 C 8.1 km/h
1300 27-12-2014 09:55:00 1.3 C 5.03 g/m*3 1.3 C 4.8 km/h
Sensor: Nr:Datum:Temp:Abs-Feuchte:Windchill:Wind:
Aussen-T/F 1301 27-12-2014 10:00:00 1.3 C 5.03 g/m*3 1.3 C 4.8 km/h
1302 27-12-2014 10:05:00 1.3 C 5.03 g/m*3 -1.24 C 8.1 km/h
1303 27-12-2014 10:10:00 1.3 C 5.03 g/m*3 -1.24 C 8.1 km/h
1304 27-12-2014 10:15:00 1.3 C 5.03 g/m*3 -0.68 C 6.4 km/h
1305 27-12-2014 10:20:00 1.3 C 5.03 g/m*3 1.3 C 4.8 km/h
1306 27-12-2014 10:25:00 1.3 C 5.03 g/m*3 1.3 C 4.8 km/h
1307 27-12-2014 10:30:00 1.3 C 5.09 g/m*3 -1.24 C 8.1 km/h
1308 27-12-2014 10:35:00 1.3 C 5.09 g/m*3 -0.68 C 6.4 km/h
1309 27-12-2014 10:40:00 1.4 C 5.12 g/m*3 -0.56 C 6.4 km/h
1310 27-12-2014 10:45:00 1.4 C 5.12 g/m*3 -1.12 C 8.1 km/h
1311 27-12-2014 10:50:00 1.4 C 5.12 g/m*3 1.4 C 4.8 km/h
1312 27-12-2014 10:55:00 1.5 C 5.16 g/m*3 -1.45 C 9.7 km/h
1313 27-12-2014 11:00:00 1.5 C 5.16 g/m*3 -0.45 C 6.4 km/h
1314 27-12-2014 11:05:00 1.5 C 5.16 g/m*3 -1.01 C 8.1 km/h
1315 27-12-2014 11:10:00 1.6 C 5.19 g/m*3 -0.33 C 6.4 km/h
1316 27-12-2014 11:15:00 1.6 C 5.14 g/m*3 -0.33 C 6.4 km/h
1317 27-12-2014 11:20:00 1.6 C 5.14 g/m*3 -0.89 C 8.1 km/h
1318 27-12-2014 11:25:00 1.6 C 5.14 g/m*3 -1.33 C 9.7 km/h
1319 27-12-2014 12:05:00 1.3 C 5.09 g/m*3 1.3 C 4.8 km/h
1320 27-12-2014 12:10:00 1.3 C 5.09 g/m*3 -1.24 C 8.1 km/h
1321 27-12-2014 12:15:00 1.3 C 5.09 g/m*3 1.3 C 3.2 km/h
1322 27-12-2014 12:20:00 1.3 C 5.09 g/m*3 -1.69 C 9.7 km/h
1323 27-12-2014 12:25:00 1.3 C 5.09 g/m*3 -0.68 C 6.4 km/h
1324 27-12-2014 12:30:00 1.3 C 5.09 g/m*3 -1.24 C 8.1 km/h
1325 27-12-2014 12:35:00 1.3 C 5.09 g/m*3 1.3 C 4.8 km/h
Sensor: Nr:Datum:Temp:Abs-Feuchte:Windchill:Wind:
Aussen-T/F 1326 27-12-2014 12:40:00 1.3 C 5.09 g/m*3 1.3 C 4.8 km/h
1327 27-12-2014 12:45:00 1.3 C 5.09 g/m*3 -1.24 C 8.1 km/h
1328 27-12-2014 12:50:00 1.5 C 5.16 g/m*3 -1.01 C 8.1 km/h
1329 27-12-2014 12:55:00 1.6 C 5.19 g/m*3 1.6 C 4.8 km/h
1330 27-12-2014 13:00:00 1.6 C 5.19 g/m*3 1.6 C 4.8 km/h
1331 27-12-2014 13:40:00 1.9 C 5.24 g/m*3 -0.54 C 8.1 km/h
1332 27-12-2014 13:45:00 1.9 C 5.24 g/m*3 0.01 C 6.4 km/h
1333 27-12-2014 13:50:00 1.9 C 5.24 g/m*3 1.9 C 3.2 km/h
1334 27-12-2014 13:55:00 1.9 C 5.24 g/m*3 1.9 C 4.8 km/h
1335 27-12-2014 14:00:00 1.9 C 5.24 g/m*3 1.9 C 4.8 km/h
1336 27-12-2014 14:20:00 2.1 C 5.31 g/m*3 2.1 C 3.2 km/h
1337 27-12-2014 14:25:00 2.1 C 5.31 g/m*3 2.1 C 1.6 km/h
1338 27-12-2014 14:30:00 2.1 C 5.31 g/m*3 2.1 C 1.6 km/h
1339 27-12-2014 14:35:00 2.2 C 5.35 g/m*3 2.2 C 1.6 km/h
1340 27-12-2014 14:40:00 2.2 C 5.35 g/m*3 2.2 C 1.6 km/h
1341 27-12-2014 14:45:00 2.2 C 5.35 g/m*3 2.2 C 1.6 km/h
1342 27-12-2014 14:50:00 2.2 C 5.29 g/m*3 2.2 C 3.2 km/h
1343 27-12-2014 14:55:00 2.2 C 5.29 g/m*3 2.2 C 1.6 km/h
1344 27-12-2014 15:00:00 2.2 C 5.29 g/m*3 -0.18 C 8.1 km/h
1345 27-12-2014 15:05:00 2.2 C 5.29 g/m*3 2.2 C 1.6 km/h
1346 27-12-2014 15:10:00 2.3 C 5.33 g/m*3 2.3 C 4.8 km/h
1347 27-12-2014 15:15:00 2.3 C 5.33 g/m*3 2.3 C 3.2 km/h
1348 27-12-2014 15:20:00 2.3 C 5.33 g/m*3 -0.07 C 8.1 km/h
1349 27-12-2014 15:25:00 2.3 C 5.33 g/m*3 2.3 C 1.6 km/h
1350 27-12-2014 15:30:00 2.3 C 5.33 g/m*3 2.3 C 3.2 km/h
Sensor: Nr:Datum:Temp:Abs-Feuchte:Windchill:Wind:
Aussen-T/F 1351 27-12-2014 15:35:00 2.1 C 5.26 g/m*3 2.1 C 3.2 km/h
1352 27-12-2014 15:40:00 2.1 C 5.26 g/m*3 0.24 C 6.4 km/h
1353 27-12-2014 15:45:00 2.1 C 5.26 g/m*3 2.1 C 4.8 km/h
1354 27-12-2014 15:50:00 1.9 C 5.19 g/m*3 1.9 C 4.8 km/h
1355 27-12-2014 15:55:00 1.8 C 5.15 g/m*3 1.8 C 4.8 km/h
1356 27-12-2014 16:00:00 1.8 C 5.21 g/m*3 -0.1 C 6.4 km/h
1357 27-12-2014 16:05:00 1.8 C 5.21 g/m*3 1.8 C 4.8 km/h
1358 27-12-2014 16:10:00 1.7 C 5.17 g/m*3 -0.77 C 8.1 km/h
1359 27-12-2014 16:15:00 1.7 C 5.17 g/m*3 -1.59 C 11.3 km/h
1360 27-12-2014 16:20:00 1.7 C 5.17 g/m*3 -0.22 C 6.4 km/h
1361 27-12-2014 16:25:00 1.7 C 5.17 g/m*3 1.7 C 4.8 km/h
1362 27-12-2014 16:30:00 1.7 C 5.17 g/m*3 -0.22 C 6.4 km/h
1363 27-12-2014 16:35:00 1.7 C 5.17 g/m*3 1.7 C 3.2 km/h
1364 27-12-2014 18:55:00 0.8 C 4.81 g/m*3 0.8 C 3.2 km/h
1365 27-12-2014 19:00:00 0.8 C 4.76 g/m*3 -3.62 C 16.1 km/h
1366 27-12-2014 19:05:00 0.7 C 4.73 g/m*3 0.7 C 3.2 km/h
1367 27-12-2014 19:10:00 0.7 C 4.73 g/m*3 -3.15 C 12.9 km/h
1368 27-12-2014 19:15:00 0.7 C 4.73 g/m*3 0.7 C 4.8 km/h
1369 27-12-2014 19:20:00 0.6 C 4.65 g/m*3 -1.49 C 6.4 km/h
1370 27-12-2014 19:25:00 0.6 C 4.65 g/m*3 0.6 C 1.6 km/h
1371 27-12-2014 19:30:00 0.6 C 4.65 g/m*3 -2.06 C 8.1 km/h
1372 27-12-2014 19:35:00 0.6 C 4.65 g/m*3 -2.52 C 9.7 km/h
1373 27-12-2014 19:40:00 0.6 C 4.65 g/m*3 -1.49 C 6.4 km/h
1374 27-12-2014 19:45:00 0.6 C 4.65 g/m*3 -1.49 C 6.4 km/h
1375 27-12-2014 19:50:00 0.5 C 4.61 g/m*3 -3.39 C 12.9 km/h
Sensor: Nr:Datum:Temp:Abs-Feuchte:Windchill:Wind:
Aussen-T/F 1376 27-12-2014 19:55:00 0.5 C 4.61 g/m*3 -2.18 C 8.1 km/h
1377 27-12-2014 20:00:00 0.4 C 4.53 g/m*3 -3.16 C 11.3 km/h
1378 27-12-2014 20:05:00 0.4 C 4.53 g/m*3 -3.16 C 11.3 km/h
1379 27-12-2014 20:10:00 0.4 C 4.53 g/m*3 -1.72 C 6.4 km/h
1380 27-12-2014 20:15:00 0.4 C 4.53 g/m*3 -2.76 C 9.7 km/h
1381 27-12-2014 20:20:00 0.4 C 4.53 g/m*3 -2.76 C 9.7 km/h
1382 27-12-2014 20:25:00 0.4 C 4.48 g/m*3 -2.76 C 9.7 km/h
1383 27-12-2014 20:30:00 0.4 C 4.48 g/m*3 -2.3 C 8.1 km/h
1384 27-12-2014 20:35:00 0.3 C 4.45 g/m*3 -3.28 C 11.3 km/h
1385 27-12-2014 20:40:00 0.3 C 4.45 g/m*3 -2.42 C 8.1 km/h
1386 27-12-2014 20:45:00 0.3 C 4.45 g/m*3 -2.42 C 8.1 km/h
1387 27-12-2014 20:50:00 0.3 C 4.45 g/m*3 -1.84 C 6.4 km/h
1388 27-12-2014 20:55:00 0.3 C 4.45 g/m*3 -1.84 C 6.4 km/h
1389 27-12-2014 21:00:00 0.3 C 4.45 g/m*3 0.3 C 4.8 km/h
1390 27-12-2014 21:05:00 0.3 C 4.45 g/m*3 -1.84 C 6.4 km/h
1391 27-12-2014 21:10:00 0.3 C 4.45 g/m*3 -2.42 C 8.1 km/h
1392 27-12-2014 21:15:00 0.3 C 4.45 g/m*3 0.3 C 1.6 km/h
1393 27-12-2014 21:20:00 0.3 C 4.45 g/m*3 -2.42 C 8.1 km/h
1394 27-12-2014 21:25:00 0.3 C 4.45 g/m*3 0.3 C 4.8 km/h
1395 27-12-2014 21:30:00 0.3 C 4.4 g/m*3 -1.84 C 6.4 km/h
1396 27-12-2014 21:35:00 0.3 C 4.4 g/m*3 0.3 C 3.2 km/h
1397 27-12-2014 21:40:00 0.3 C 4.45 g/m*3 0.3 C 1.6 km/h
1398 27-12-2014 21:45:00 0.3 C 4.4 g/m*3 -2.42 C 8.1 km/h
1399 27-12-2014 21:50:00 0.3 C 4.4 g/m*3 0.3 C 4.8 km/h
1400 27-12-2014 21:55:00 0.3 C 4.4 g/m*3 -2.88 C 9.7 km/h
Sensor: Nr:Datum:Temp:Abs-Feuchte:Windchill:Wind:
Aussen-T/F 1401 27-12-2014 22:00:00 0.3 C 4.4 g/m*3 -3.28 C 11.3 km/h
1402 28-12-2014 05:40:00 -2 C 3.29 g/m*3 -5.62 C 9.7 km/h
1403 28-12-2014 05:45:00 -2 C 3.29 g/m*3 -5.62 C 9.7 km/h
1404 28-12-2014 05:50:00 -2 C 3.33 g/m*3 -5.62 C 9.7 km/h
1405 28-12-2014 05:55:00 -2 C 3.33 g/m*3 -6.43 C 12.9 km/h
1406 28-12-2014 06:00:00 -2.1 C 3.31 g/m*3 -6.17 C 11.3 km/h
1407 28-12-2014 06:05:00 -2.1 C 3.31 g/m*3 -6.9 C 14.5 km/h
1408 28-12-2014 06:10:00 -2.2 C 3.28 g/m*3 -6.68 C 12.9 km/h
1409 28-12-2014 06:15:00 -2.2 C 3.28 g/m*3 -5.86 C 9.7 km/h
1410 28-12-2014 06:20:00 -2.2 C 3.24 g/m*3 -7.34 C 16.1 km/h
1411 28-12-2014 06:25:00 -2.2 C 3.28 g/m*3 -6.29 C 11.3 km/h
1412 28-12-2014 06:30:00 -2.2 C 3.28 g/m*3 -6.29 C 11.3 km/h
1413 28-12-2014 06:35:00 -2.2 C 3.28 g/m*3 -6.29 C 11.3 km/h
1414 28-12-2014 06:40:00 -2.3 C 3.26 g/m*3 -6.8 C 12.9 km/h
1415 28-12-2014 06:45:00 -2.3 C 3.26 g/m*3 -7.15 C 14.5 km/h
1416 28-12-2014 06:50:00 -2.3 C 3.26 g/m*3 -6.41 C 11.3 km/h
1417 28-12-2014 06:55:00 -2.3 C 3.26 g/m*3 -5.98 C 9.7 km/h
1418 28-12-2014 07:00:00 -2.3 C 3.26 g/m*3 -5.98 C 9.7 km/h
1419 28-12-2014 07:05:00 -2.3 C 3.3 g/m*3 -6.8 C 12.9 km/h
1420 28-12-2014 07:10:00 -2.3 C 3.3 g/m*3 -5.98 C 9.7 km/h
1421 28-12-2014 07:15:00 -2.4 C 3.28 g/m*3 -6.53 C 11.3 km/h
1422 28-12-2014 07:20:00 -2.4 C 3.28 g/m*3 -4.95 C 6.4 km/h
1423 28-12-2014 07:25:00 -2.4 C 3.28 g/m*3 -5.59 C 8.1 km/h
1424 28-12-2014 07:30:00 -2.5 C 3.26 g/m*3 -5.71 C 8.1 km/h
1425 28-12-2014 07:35:00 -2.5 C 3.3 g/m*3 -7.04 C 12.9 km/h
Sensor: Nr:Datum:Temp:Abs-Feuchte:Windchill:Wind:
Aussen-T/F 1426 28-12-2014 07:40:00 -2.6 C 3.27 g/m*3 -7.17 C 12.9 km/h
1427 28-12-2014 07:45:00 -2.7 C 3.25 g/m*3 -6.9 C 11.3 km/h
1428 28-12-2014 07:50:00 -2.8 C 3.23 g/m*3 -7.76 C 14.5 km/h
1429 28-12-2014 07:55:00 -2.9 C 3.2 g/m*3 -6.18 C 8.1 km/h
1430 28-12-2014 08:00:00 -3 C 3.18 g/m*3 -5.65 C 6.4 km/h
1431 28-12-2014 08:05:00 -3 C 3.18 g/m*3 -3 C 4.8 km/h
1432 28-12-2014 08:10:00 -3.2 C 3.18 g/m*3 -5.88 C 6.4 km/h
1433 28-12-2014 08:15:00 -3.2 C 3.18 g/m*3 -3.2 C 3.2 km/h
1434 28-12-2014 08:20:00 -3.3 C 3.15 g/m*3 -7.17 C 9.7 km/h
1435 28-12-2014 08:25:00 -3.3 C 3.15 g/m*3 -5.99 C 6.4 km/h
1436 28-12-2014 08:30:00 -3.4 C 3.13 g/m*3 -6.77 C 8.1 km/h
1437 28-12-2014 08:35:00 -3.4 C 3.13 g/m*3 -3.4 C 4.8 km/h
1438 28-12-2014 08:40:00 -3.5 C 3.11 g/m*3 -3.5 C 1.6 km/h
1439 28-12-2014 08:45:00 -3.6 C 3.12 g/m*3 -3.6 C 1.6 km/h
1440 28-12-2014 08:50:00 -3.7 C 3.1 g/m*3 -3.7 C 1.6 km/h
1441 28-12-2014 08:55:00 -3.7 C 3.1 g/m*3 -8.1 C 11.3 km/h
1442 28-12-2014 09:00:00 -3.7 C 3.1 g/m*3 -3.7 C 3.2 km/h
1443 28-12-2014 09:05:00 -3.7 C 3.06 g/m*3 -3.7 C 3.2 km/h
1444 28-12-2014 09:10:00 -3.7 C 3.1 g/m*3 -3.7 C 4.8 km/h
1445 28-12-2014 09:15:00 -3.8 C 3.08 g/m*3 -3.8 C 4.8 km/h
1446 28-12-2014 09:20:00 -3.8 C 3.08 g/m*3 -3.8 C 3.2 km/h
1447 28-12-2014 09:25:00 -3.9 C 3.06 g/m*3 -6.69 C 6.4 km/h
1448 28-12-2014 09:30:00 -3.9 C 3.02 g/m*3 -3.9 C 4.8 km/h
1449 28-12-2014 09:35:00 -3.9 C 3.02 g/m*3 -3.9 C 4.8 km/h
1450 28-12-2014 09:40:00 -3.8 C 3.01 g/m*3 -6.57 C 6.4 km/h
Sensor: Nr:Datum:Temp:Abs-Feuchte:Windchill:Wind:
Aussen-T/F 1451 28-12-2014 09:45:00 -3.8 C 3.01 g/m*3 -6.57 C 6.4 km/h
1452 28-12-2014 09:50:00 -3.8 C 3.01 g/m*3 -6.57 C 6.4 km/h
1453 28-12-2014 09:55:00 -3.7 C 3.03 g/m*3 -7.12 C 8.1 km/h
1454 28-12-2014 10:00:00 -3.7 C 2.99 g/m*3 -7.12 C 8.1 km/h
1455 28-12-2014 10:05:00 -3.7 C 2.99 g/m*3 -3.7 C 3.2 km/h
1456 28-12-2014 10:10:00 -3.7 C 2.99 g/m*3 -3.7 C 1.6 km/h
1457 28-12-2014 10:15:00 -3.7 C 2.95 g/m*3 -7.12 C 8.1 km/h
1458 28-12-2014 10:20:00 -3.7 C 2.99 g/m*3 -3.7 C 1.6 km/h
1459 28-12-2014 10:25:00 -3.7 C 3.06 g/m*3 -3.7 C 0 km/h
1460 28-12-2014 10:30:00 -3.8 C 3.12 g/m*3 -3.8 C 3.2 km/h
1461 28-12-2014 10:35:00 -3.9 C 3.09 g/m*3 -3.9 C 3.2 km/h
1462 28-12-2014 10:40:00 -3.9 C 3.02 g/m*3 -7.35 C 8.1 km/h
1463 28-12-2014 10:45:00 -3.8 C 3.08 g/m*3 -3.8 C 4.8 km/h
1464 28-12-2014 10:50:00 -3.9 C 3.02 g/m*3 -3.9 C 3.2 km/h
1465 28-12-2014 10:55:00 -3.8 C 2.97 g/m*3 -3.8 C 3.2 km/h
1466 28-12-2014 11:00:00 -3.8 C 3.08 g/m*3 -3.8 C 4.8 km/h
1467 28-12-2014 11:05:00 -3.8 C 3.01 g/m*3 -6.57 C 6.4 km/h
1468 28-12-2014 11:10:00 -3.7 C 2.84 g/m*3 -7.12 C 8.1 km/h
1469 28-12-2014 11:15:00 -3.5 C 2.81 g/m*3 -6.22 C 6.4 km/h
1470 28-12-2014 11:20:00 -3.4 C 2.83 g/m*3 -7.74 C 11.3 km/h
1471 28-12-2014 11:25:00 -3.3 C 2.85 g/m*3 -8.02 C 12.9 km/h
1472 28-12-2014 11:30:00 -3.2 C 2.79 g/m*3 -7.5 C 11.3 km/h
1473 28-12-2014 11:35:00 -3.1 C 2.81 g/m*3 -7.78 C 12.9 km/h
1474 28-12-2014 11:40:00 -3.1 C 2.77 g/m*3 -6.93 C 9.7 km/h
1475 28-12-2014 11:45:00 -3 C 2.75 g/m*3 -6.3 C 8.1 km/h
Sensor: Nr:Datum:Temp:Abs-Feuchte:Windchill:Wind:
Aussen-T/F 1476 28-12-2014 11:50:00 -2.9 C 2.81 g/m*3 -6.18 C 8.1 km/h
1477 28-12-2014 11:55:00 -2.9 C 2.77 g/m*3 -7.89 C 14.5 km/h
1478 28-12-2014 12:00:00 -2.9 C 2.77 g/m*3 -6.18 C 8.1 km/h
1479 28-12-2014 12:05:00 -2.8 C 2.79 g/m*3 -6.57 C 9.7 km/h
1480 28-12-2014 12:10:00 -2.8 C 2.79 g/m*3 -7.41 C 12.9 km/h
1481 28-12-2014 12:15:00 -2.7 C 2.77 g/m*3 -6.45 C 9.7 km/h
1482 28-12-2014 12:20:00 -2.6 C 2.67 g/m*3 -6.77 C 11.3 km/h
1483 28-12-2014 12:25:00 -2.5 C 2.65 g/m*3 -6.65 C 11.3 km/h
1484 28-12-2014 12:30:00 -2.4 C 2.7 g/m*3 -5.59 C 8.1 km/h
1485 28-12-2014 12:35:00 -2.3 C 2.64 g/m*3 -6.41 C 11.3 km/h
1486 28-12-2014 12:40:00 -2.3 C 2.6 g/m*3 -5.98 C 9.7 km/h
1487 28-12-2014 12:45:00 -2.2 C 2.62 g/m*3 -6.29 C 11.3 km/h
1488 28-12-2014 12:50:00 -2.2 C 2.66 g/m*3 -4.72 C 6.4 km/h
1489 28-12-2014 12:55:00 -2.2 C 2.7 g/m*3 -5.86 C 9.7 km/h
1490 28-12-2014 13:00:00 -2.1 C 2.72 g/m*3 -5.24 C 8.1 km/h
1491 28-12-2014 13:05:00 -2.1 C 2.76 g/m*3 -5.74 C 9.7 km/h
1492 28-12-2014 13:10:00 -2 C 2.78 g/m*3 -6.43 C 12.9 km/h
1493 28-12-2014 13:15:00 -2 C 2.78 g/m*3 -5.62 C 9.7 km/h
1494 28-12-2014 13:20:00 -1.9 C 2.8 g/m*3 -5.5 C 9.7 km/h
1495 28-12-2014 13:25:00 -1.9 C 2.76 g/m*3 -5 C 8.1 km/h
1496 28-12-2014 13:30:00 -1.9 C 2.84 g/m*3 -4.38 C 6.4 km/h
1497 28-12-2014 13:35:00 -1.9 C 2.8 g/m*3 -5.5 C 9.7 km/h
1498 28-12-2014 13:40:00 -1.9 C 2.89 g/m*3 -5 C 8.1 km/h
1499 28-12-2014 13:45:00 -1.9 C 2.84 g/m*3 -5 C 8.1 km/h
1500 28-12-2014 13:50:00 -1.9 C 2.84 g/m*3 -4.38 C 6.4 km/h
Sensor: Nr:Datum:Temp:Abs-Feuchte:Windchill:Wind:
Aussen-T/F 1501 28-12-2014 13:55:00 -1.8 C 2.82 g/m*3 -5.38 C 9.7 km/h
1502 28-12-2014 14:00:00 -1.7 C 2.84 g/m*3 -4.15 C 6.4 km/h
1503 28-12-2014 14:05:00 -1.7 C 2.84 g/m*3 -1.7 C 4.8 km/h
1504 28-12-2014 14:10:00 -1.6 C 2.86 g/m*3 -1.6 C 4.8 km/h
1505 28-12-2014 14:15:00 -1.6 C 2.86 g/m*3 -4.03 C 6.4 km/h
1506 28-12-2014 14:20:00 -1.6 C 2.9 g/m*3 -4.03 C 6.4 km/h
1507 28-12-2014 14:25:00 -1.5 C 2.88 g/m*3 -4.53 C 8.1 km/h
1508 28-12-2014 14:30:00 -1.5 C 2.92 g/m*3 -3.91 C 6.4 km/h
1509 28-12-2014 14:35:00 -1.5 C 2.92 g/m*3 -1.5 C 1.6 km/h
1510 28-12-2014 14:40:00 -1.5 C 3.14 g/m*3 -1.5 C 4.8 km/h
1511 28-12-2014 14:45:00 -1.7 C 3.27 g/m*3 -1.7 C 1.6 km/h
1512 28-12-2014 14:50:00 -1.8 C 3.08 g/m*3 -1.8 C 4.8 km/h
1513 28-12-2014 14:55:00 -1.7 C 2.97 g/m*3 -5.69 C 11.3 km/h
1514 28-12-2014 15:00:00 -1.6 C 3.03 g/m*3 -4.65 C 8.1 km/h
1515 28-12-2014 15:05:00 -1.5 C 3.06 g/m*3 -4.53 C 8.1 km/h
1516 28-12-2014 15:10:00 -1.4 C 3.08 g/m*3 -4.42 C 8.1 km/h
1517 28-12-2014 15:15:00 -1.4 C 3.03 g/m*3 -5.33 C 11.3 km/h
1518 28-12-2014 15:20:00 -1.3 C 3.01 g/m*3 -4.78 C 9.7 km/h
1519 28-12-2014 15:25:00 -1.3 C 3.05 g/m*3 -5.58 C 12.9 km/h
1520 28-12-2014 15:30:00 -1.2 C 3.08 g/m*3 -3.57 C 6.4 km/h
1521 28-12-2014 15:35:00 -1.2 C 3.03 g/m*3 -5.09 C 11.3 km/h
1522 28-12-2014 15:40:00 -1.2 C 3.03 g/m*3 -5.09 C 11.3 km/h
1523 28-12-2014 15:45:00 -1.2 C 2.99 g/m*3 -5.46 C 12.9 km/h
1524 28-12-2014 15:50:00 -1.2 C 2.99 g/m*3 -5.46 C 12.9 km/h
1525 28-12-2014 15:55:00 -1.2 C 2.94 g/m*3 -5.09 C 11.3 km/h
Sensor: Nr:Datum:Temp:Abs-Feuchte:Windchill:Wind:
Aussen-T/F 1526 28-12-2014 16:00:00 -1.3 C 2.97 g/m*3 -3.68 C 6.4 km/h
1527 28-12-2014 16:05:00 -1.3 C 3.01 g/m*3 -1.3 C 4.8 km/h
1528 28-12-2014 16:10:00 -1.4 C 3.08 g/m*3 -1.4 C 3.2 km/h
1529 28-12-2014 16:15:00 -1.5 C 3.01 g/m*3 -4.53 C 8.1 km/h
1530 28-12-2014 16:20:00 -1.6 C 3.08 g/m*3 -1.6 C 4.8 km/h
1531 28-12-2014 16:25:00 -1.7 C 3.01 g/m*3 -4.15 C 6.4 km/h
1532 28-12-2014 16:30:00 -1.7 C 3.06 g/m*3 -1.7 C 3.2 km/h
1533 28-12-2014 16:35:00 -1.7 C 3.06 g/m*3 -4.15 C 6.4 km/h
1534 28-12-2014 16:40:00 -1.8 C 3.12 g/m*3 -1.8 C 3.2 km/h
1535 28-12-2014 16:45:00 -1.8 C 3.16 g/m*3 -1.8 C 1.6 km/h
1536 28-12-2014 16:50:00 -1.9 C 3.1 g/m*3 -1.9 C 3.2 km/h
1537 28-12-2014 16:55:00 -2 C 3.16 g/m*3 -2 C 3.2 km/h
1538 28-12-2014 17:00:00 -2.2 C 3.24 g/m*3 -2.2 C 3.2 km/h
1539 28-12-2014 17:05:00 -2.4 C 3.28 g/m*3 -2.4 C 1.6 km/h
1540 28-12-2014 17:10:00 -2.6 C 3.27 g/m*3 -2.6 C 3.2 km/h
1541 28-12-2014 17:15:00 -2.7 C 3.25 g/m*3 -2.7 C 3.2 km/h
1542 28-12-2014 17:20:00 -2.8 C 3.27 g/m*3 -2.8 C 1.6 km/h
1543 28-12-2014 17:25:00 -2.8 C 3.27 g/m*3 -2.8 C 0 km/h
1544 28-12-2014 17:30:00 -2.9 C 3.28 g/m*3 -2.9 C 0 km/h
1545 28-12-2014 17:35:00 -2.9 C 3.28 g/m*3 -2.9 C 0 km/h
1546 28-12-2014 17:40:00 -3.1 C 3.28 g/m*3 -3.1 C 0 km/h
1547 28-12-2014 17:45:00 -3.1 C 3.32 g/m*3 -3.1 C 0 km/h
1548 28-12-2014 17:50:00 -3.2 C 3.29 g/m*3 -3.2 C 0 km/h
1549 28-12-2014 17:55:00 -3.3 C 3.27 g/m*3 -3.3 C 0 km/h
1550 28-12-2014 18:00:00 -3.4 C 3.28 g/m*3 -3.4 C 4.8 km/h
Sensor: Nr:Datum:Temp:Abs-Feuchte:Windchill:Wind:
Aussen-T/F 1551 28-12-2014 18:05:00 -3.4 C 3.32 g/m*3 -6.11 C 6.4 km/h
1552 28-12-2014 18:10:00 -3.4 C 3.32 g/m*3 -6.11 C 6.4 km/h
1553 28-12-2014 18:15:00 -3.4 C 3.32 g/m*3 -6.11 C 6.4 km/h
1554 28-12-2014 18:20:00 -3.4 C 3.28 g/m*3 -3.4 C 4.8 km/h
1555 28-12-2014 18:25:00 -3.4 C 3.28 g/m*3 -6.11 C 6.4 km/h
1556 28-12-2014 18:30:00 -3.3 C 3.31 g/m*3 -3.3 C 4.8 km/h
1557 28-12-2014 18:35:00 -3.3 C 3.31 g/m*3 -5.99 C 6.4 km/h
1558 28-12-2014 18:40:00 -3.2 C 3.29 g/m*3 -7.05 C 9.7 km/h
1559 28-12-2014 18:45:00 -3.1 C 3.28 g/m*3 -3.1 C 3.2 km/h
1560 28-12-2014 18:50:00 -3.1 C 3.24 g/m*3 -3.1 C 4.8 km/h
1561 28-12-2014 18:55:00 -3 C 3.26 g/m*3 -3 C 1.6 km/h
1562 28-12-2014 19:00:00 -3.2 C 3.25 g/m*3 -3.2 C 3.2 km/h
1563 28-12-2014 19:05:00 -3.3 C 3.27 g/m*3 -3.3 C 4.8 km/h
1564 28-12-2014 19:10:00 -3.4 C 3.25 g/m*3 -3.4 C 3.2 km/h
1565 28-12-2014 19:15:00 -3.5 C 3.26 g/m*3 -3.5 C 4.8 km/h
1566 28-12-2014 19:20:00 -3.6 C 3.27 g/m*3 -3.6 C 1.6 km/h
1567 28-12-2014 19:25:00 -3.7 C 3.25 g/m*3 -3.7 C 1.6 km/h
1568 28-12-2014 19:30:00 -3.8 C 3.23 g/m*3 -3.8 C 1.6 km/h
1569 28-12-2014 19:35:00 -3.9 C 3.24 g/m*3 -3.9 C 4.8 km/h
1570 28-12-2014 19:40:00 -3.9 C 3.24 g/m*3 -3.9 C 1.6 km/h
1571 28-12-2014 19:45:00 -3.9 C 3.24 g/m*3 -3.9 C 3.2 km/h
1572 28-12-2014 19:50:00 -3.9 C 3.28 g/m*3 -3.9 C 4.8 km/h
1573 28-12-2014 19:55:00 -3.9 C 3.28 g/m*3 -6.69 C 6.4 km/h
1574 28-12-2014 20:00:00 -4.1 C 3.23 g/m*3 -4.1 C 3.2 km/h
1575 28-12-2014 20:05:00 -4.2 C 3.21 g/m*3 -4.2 C 3.2 km/h
Sensor: Nr:Datum:Temp:Abs-Feuchte:Windchill:Wind:
Aussen-T/F 1576 28-12-2014 20:10:00 -4.2 C 3.21 g/m*3 -4.2 C 4.8 km/h
1577 28-12-2014 20:15:00 -4.2 C 3.25 g/m*3 -4.2 C 4.8 km/h
1578 28-12-2014 20:20:00 -4.3 C 3.22 g/m*3 -4.3 C 4.8 km/h
1579 28-12-2014 20:25:00 -4.2 C 3.25 g/m*3 -4.2 C 1.6 km/h
1580 28-12-2014 20:30:00 -4.2 C 3.25 g/m*3 -4.2 C 4.8 km/h
1581 28-12-2014 20:35:00 -4.3 C 3.22 g/m*3 -4.3 C 4.8 km/h
1582 28-12-2014 20:40:00 -4.3 C 3.22 g/m*3 -4.3 C 4.8 km/h
1583 28-12-2014 20:45:00 -4.3 C 3.26 g/m*3 -4.3 C 4.8 km/h
1584 28-12-2014 20:50:00 -4.3 C 3.26 g/m*3 -7.15 C 6.4 km/h
1585 28-12-2014 20:55:00 -4.3 C 3.26 g/m*3 -4.3 C 4.8 km/h
1586 28-12-2014 21:00:00 -4.3 C 3.26 g/m*3 -4.3 C 3.2 km/h
1587 28-12-2014 21:05:00 -4.3 C 3.26 g/m*3 -4.3 C 4.8 km/h
1588 28-12-2014 21:10:00 -4.4 C 3.24 g/m*3 -4.4 C 4.8 km/h
1589 28-12-2014 21:15:00 -4.4 C 3.24 g/m*3 -4.4 C 4.8 km/h
1590 28-12-2014 21:20:00 -4.5 C 3.21 g/m*3 -4.5 C 4.8 km/h
1591 28-12-2014 21:25:00 -4.5 C 3.21 g/m*3 -4.5 C 4.8 km/h
1592 28-12-2014 21:30:00 -4.5 C 3.21 g/m*3 -4.5 C 4.8 km/h
1593 28-12-2014 21:35:00 -4.5 C 3.21 g/m*3 -4.5 C 1.6 km/h
1594 28-12-2014 21:40:00 -4.6 C 3.19 g/m*3 -4.6 C 3.2 km/h
1595 28-12-2014 21:45:00 -4.6 C 3.19 g/m*3 -4.6 C 3.2 km/h
1596 28-12-2014 21:50:00 -4.7 C 3.17 g/m*3 -4.7 C 4.8 km/h
1597 28-12-2014 21:55:00 -4.8 C 3.14 g/m*3 -4.8 C 3.2 km/h
1598 28-12-2014 22:00:00 -4.8 C 3.14 g/m*3 -4.8 C 3.2 km/h
1599 28-12-2014 22:05:00 -4.8 C 3.14 g/m*3 -4.8 C 3.2 km/h
1600 28-12-2014 22:10:00 -4.8 C 3.14 g/m*3 -4.8 C 1.6 km/h
Sensor: Nr:Datum:Temp:Abs-Feuchte:Windchill:Wind:
Aussen-T/F 1601 28-12-2014 22:15:00 -4.9 C 3.12 g/m*3 -4.9 C 3.2 km/h
1602 28-12-2014 22:20:00 -4.9 C 3.12 g/m*3 -4.9 C 0 km/h
1603 28-12-2014 22:25:00 -5.1 C 3.08 g/m*3 -5.1 C 1.6 km/h
1604 28-12-2014 22:30:00 -5.2 C 3.05 g/m*3 -5.2 C 3.2 km/h
1605 28-12-2014 22:35:00 -5.2 C 3.05 g/m*3 -5.2 C 0 km/h
1606 28-12-2014 22:40:00 -5.3 C 3.03 g/m*3 -5.3 C 0 km/h
1607 28-12-2014 22:45:00 -5.3 C 3.03 g/m*3 -5.3 C 0 km/h
1608 28-12-2014 22:50:00 -5.3 C 3.07 g/m*3 -5.3 C 1.6 km/h
1609 28-12-2014 22:55:00 -5.2 C 3.09 g/m*3 -5.2 C 1.6 km/h
1610 28-12-2014 23:00:00 -5.1 C 3.11 g/m*3 -5.1 C 1.6 km/h
1611 28-12-2014 23:05:00 -4.8 C 3.21 g/m*3 -4.8 C 1.6 km/h
1612 28-12-2014 23:10:00 -4.7 C 3.24 g/m*3 -4.7 C 3.2 km/h
1613 28-12-2014 23:15:00 -4.6 C 3.22 g/m*3 -4.6 C 1.6 km/h
1614 28-12-2014 23:20:00 -4.6 C 3.22 g/m*3 -4.6 C 1.6 km/h
1615 28-12-2014 23:25:00 -4.5 C 3.25 g/m*3 -4.5 C 1.6 km/h
1616 28-12-2014 23:30:00 -4.4 C 3.27 g/m*3 -4.4 C 1.6 km/h
1617 28-12-2014 23:35:00 -4.4 C 3.27 g/m*3 -4.4 C 3.2 km/h
1618 28-12-2014 23:40:00 -4.4 C 3.27 g/m*3 -4.4 C 1.6 km/h
1619 28-12-2014 23:45:00 -4.3 C 3.29 g/m*3 -4.3 C 4.8 km/h
1620 28-12-2014 23:50:00 -4.3 C 3.26 g/m*3 -4.3 C 0 km/h
1621 28-12-2014 23:55:00 -4.3 C 3.26 g/m*3 -4.3 C 3.2 km/h
1622 29-12-2014 00:00:00 -4.2 C 3.28 g/m*3 -4.2 C 3.2 km/h
1623 29-12-2014 00:05:00 -4.2 C 3.28 g/m*3 -7.03 C 6.4 km/h
1624 29-12-2014 00:10:00 -4.1 C 3.31 g/m*3 -6.92 C 6.4 km/h
1625 29-12-2014 00:15:00 -4.1 C 3.27 g/m*3 -4.1 C 4.8 km/h
Sensor: Nr:Datum:Temp:Abs-Feuchte:Windchill:Wind:
Aussen-T/F 1626 29-12-2014 00:20:00 -4 C 3.33 g/m*3 -4 C 3.2 km/h
1627 29-12-2014 00:25:00 -3.9 C 3.32 g/m*3 -3.9 C 1.6 km/h
1628 29-12-2014 00:30:00 -3.9 C 3.32 g/m*3 -3.9 C 4.8 km/h
1629 29-12-2014 00:35:00 -3.8 C 3.34 g/m*3 -3.8 C 1.6 km/h
1630 29-12-2014 00:40:00 -3.8 C 3.34 g/m*3 -3.8 C 3.2 km/h
1631 29-12-2014 00:45:00 -3.7 C 3.36 g/m*3 -3.7 C 1.6 km/h
1632 29-12-2014 00:50:00 -3.6 C 3.35 g/m*3 -3.6 C 1.6 km/h
1633 29-12-2014 00:55:00 -3.6 C 3.35 g/m*3 -6.34 C 6.4 km/h
1634 29-12-2014 01:00:00 -3.6 C 3.35 g/m*3 -3.6 C 4.8 km/h
1635 29-12-2014 01:05:00 -3.5 C 3.37 g/m*3 -6.88 C 8.1 km/h
1636 29-12-2014 01:10:00 -3.6 C 3.35 g/m*3 -3.6 C 4.8 km/h
1637 29-12-2014 01:15:00 -3.6 C 3.35 g/m*3 -7.53 C 9.7 km/h
1638 29-12-2014 01:20:00 -3.5 C 3.34 g/m*3 -7.41 C 9.7 km/h
1639 29-12-2014 01:25:00 -3.4 C 3.36 g/m*3 -7.29 C 9.7 km/h
1640 29-12-2014 01:30:00 -3.4 C 3.36 g/m*3 -3.4 C 3.2 km/h
1641 29-12-2014 01:35:00 -3.5 C 3.34 g/m*3 -3.5 C 1.6 km/h
1642 29-12-2014 01:40:00 -3.6 C 3.31 g/m*3 -3.6 C 0 km/h
1643 29-12-2014 01:45:00 -3.7 C 3.29 g/m*3 -3.7 C 0 km/h
1644 29-12-2014 01:50:00 -3.9 C 3.28 g/m*3 -7.35 C 8.1 km/h
1645 29-12-2014 01:55:00 -4 C 3.26 g/m*3 -7.47 C 8.1 km/h
1646 29-12-2014 02:00:00 -4.1 C 3.23 g/m*3 -8.12 C 9.7 km/h
1647 29-12-2014 02:05:00 -4.1 C 3.23 g/m*3 -4.1 C 4.8 km/h
1648 29-12-2014 02:10:00 -4.1 C 3.23 g/m*3 -4.1 C 4.8 km/h
1649 29-12-2014 02:15:00 -4.1 C 3.23 g/m*3 -4.1 C 4.8 km/h
1650 29-12-2014 02:20:00 -4.2 C 3.21 g/m*3 -7.03 C 6.4 km/h
Sensor: Nr:Datum:Temp:Abs-Feuchte:Windchill:Wind:
Aussen-T/F 1651 29-12-2014 02:25:00 -4.3 C 3.19 g/m*3 -4.3 C 4.8 km/h
1652 29-12-2014 02:30:00 -4.3 C 3.19 g/m*3 -4.3 C 0 km/h
1653 29-12-2014 02:35:00 -4.4 C 3.2 g/m*3 -4.4 C 4.8 km/h
1654 29-12-2014 02:40:00 -4.4 C 3.24 g/m*3 -4.4 C 3.2 km/h
1655 29-12-2014 02:45:00 -4.2 C 3.28 g/m*3 -7.71 C 8.1 km/h
1656 29-12-2014 02:50:00 -4.1 C 3.27 g/m*3 -4.1 C 4.8 km/h
1657 29-12-2014 02:55:00 -3.9 C 3.32 g/m*3 -6.69 C 6.4 km/h
1658 29-12-2014 03:00:00 -3.8 C 3.34 g/m*3 -7.24 C 8.1 km/h
1659 29-12-2014 03:05:00 -3.7 C 3.33 g/m*3 -7.12 C 8.1 km/h
1660 29-12-2014 03:10:00 -3.6 C 3.35 g/m*3 -7.98 C 11.3 km/h
1661 29-12-2014 03:15:00 -3.6 C 3.35 g/m*3 -7.53 C 9.7 km/h
1662 29-12-2014 03:20:00 -3.4 C 3.36 g/m*3 -8.14 C 12.9 km/h
1663 29-12-2014 03:25:00 -3.3 C 3.38 g/m*3 -8.02 C 12.9 km/h
1664 29-12-2014 03:30:00 -3.2 C 3.41 g/m*3 -7.9 C 12.9 km/h
1665 29-12-2014 03:35:00 -3.2 C 3.41 g/m*3 -7.9 C 12.9 km/h
1666 29-12-2014 03:40:00 -3.2 C 3.37 g/m*3 -8.26 C 14.5 km/h
1667 29-12-2014 03:45:00 -3.2 C 3.37 g/m*3 -8.26 C 14.5 km/h
1668 29-12-2014 03:50:00 -3.2 C 3.37 g/m*3 -7.5 C 11.3 km/h
1669 29-12-2014 03:55:00 -3.1 C 3.39 g/m*3 -8.46 C 16.1 km/h
1670 29-12-2014 04:00:00 -3.1 C 3.39 g/m*3 -6.41 C 8.1 km/h
1671 29-12-2014 04:05:00 -3.1 C 3.35 g/m*3 -8.13 C 14.5 km/h
1672 29-12-2014 04:10:00 -2.9 C 3.4 g/m*3 -7.14 C 11.3 km/h
1673 29-12-2014 04:15:00 -2.8 C 3.43 g/m*3 -7.41 C 12.9 km/h
1674 29-12-2014 04:20:00 -2.8 C 3.43 g/m*3 -7.76 C 14.5 km/h
1675 29-12-2014 04:25:00 -2.7 C 3.45 g/m*3 -7.29 C 12.9 km/h
Sensor: Nr:Datum:Temp:Abs-Feuchte:Windchill:Wind:
Aussen-T/F 1676 29-12-2014 04:30:00 -2.7 C 3.41 g/m*3 -7.29 C 12.9 km/h
1677 29-12-2014 04:35:00 -2.7 C 3.45 g/m*3 -7.96 C 16.1 km/h
1678 29-12-2014 04:40:00 -2.7 C 3.53 g/m*3 -7.64 C 14.5 km/h
1679 29-12-2014 04:45:00 -2.8 C 3.55 g/m*3 -7.41 C 12.9 km/h
1680 29-12-2014 04:50:00 -2.9 C 3.6 g/m*3 -8.21 C 16.1 km/h
1681 29-12-2014 04:55:00 -3 C 3.61 g/m*3 -7.65 C 12.9 km/h
1682 29-12-2014 05:00:00 -3.1 C 3.63 g/m*3 -7.38 C 11.3 km/h
1683 29-12-2014 05:05:00 -3.1 C 3.63 g/m*3 -8.13 C 14.5 km/h
1684 29-12-2014 05:10:00 -3.1 C 3.63 g/m*3 -8.13 C 14.5 km/h
1685 29-12-2014 05:15:00 -3.1 C 3.63 g/m*3 -7.78 C 12.9 km/h
1686 29-12-2014 05:20:00 -3.1 C 3.63 g/m*3 -6.41 C 8.1 km/h
1687 29-12-2014 05:25:00 -3 C 3.65 g/m*3 -6.81 C 9.7 km/h
1688 29-12-2014 05:30:00 -2.8 C 3.71 g/m*3 -7.76 C 14.5 km/h
1689 29-12-2014 05:35:00 -2.8 C 3.71 g/m*3 -7.02 C 11.3 km/h
1690 29-12-2014 05:40:00 -2.8 C 3.71 g/m*3 -7.41 C 12.9 km/h
1691 29-12-2014 05:45:00 -2.8 C 3.71 g/m*3 -7.41 C 12.9 km/h
1692 29-12-2014 05:50:00 -2.9 C 3.72 g/m*3 -6.69 C 9.7 km/h
1693 29-12-2014 05:55:00 -2.8 C 3.75 g/m*3 -7.76 C 14.5 km/h
1694 29-12-2014 06:00:00 -2.8 C 3.75 g/m*3 -6.06 C 8.1 km/h
1695 29-12-2014 06:05:00 -2.8 C 3.75 g/m*3 -7.02 C 11.3 km/h
1696 29-12-2014 06:10:00 -2.8 C 3.75 g/m*3 -7.02 C 11.3 km/h
1697 29-12-2014 06:15:00 -2.7 C 3.77 g/m*3 -6.9 C 11.3 km/h
1698 29-12-2014 06:20:00 -2.8 C 3.75 g/m*3 -6.57 C 9.7 km/h
1699 29-12-2014 06:25:00 -2.8 C 3.75 g/m*3 -6.57 C 9.7 km/h
1700 29-12-2014 06:30:00 -2.7 C 3.77 g/m*3 -6.9 C 11.3 km/h
Sensor: Nr:Datum:Temp:Abs-Feuchte:Windchill:Wind:
Aussen-T/F 1701 29-12-2014 06:35:00 -2.6 C 3.8 g/m*3 -5.83 C 8.1 km/h
1702 29-12-2014 06:40:00 -2.5 C 3.83 g/m*3 -5.71 C 8.1 km/h
1703 29-12-2014 06:45:00 -2.4 C 3.85 g/m*3 -6.1 C 9.7 km/h
1704 29-12-2014 06:50:00 -2.3 C 3.88 g/m*3 -7.15 C 14.5 km/h
1705 29-12-2014 06:55:00 -2.3 C 3.88 g/m*3 -5.47 C 8.1 km/h
1706 29-12-2014 07:00:00 -2.2 C 3.91 g/m*3 -4.72 C 6.4 km/h
1707 29-12-2014 07:05:00 -2.2 C 3.91 g/m*3 -5.86 C 9.7 km/h
1708 29-12-2014 07:10:00 -2.1 C 3.93 g/m*3 -2.1 C 4.8 km/h
1709 29-12-2014 07:15:00 -2 C 3.96 g/m*3 -5.12 C 8.1 km/h
1710 29-12-2014 07:20:00 -1.9 C 4.03 g/m*3 -5.5 C 9.7 km/h
1711 29-12-2014 07:25:00 -1.9 C 4.03 g/m*3 -4.38 C 6.4 km/h
1712 29-12-2014 07:30:00 -1.8 C 4.06 g/m*3 -1.8 C 4.8 km/h
1713 29-12-2014 07:35:00 -1.8 C 4.06 g/m*3 -1.8 C 3.2 km/h
1714 29-12-2014 07:40:00 -1.8 C 4.06 g/m*3 -1.8 C 0 km/h
1715 29-12-2014 07:45:00 -1.8 C 4.06 g/m*3 -1.8 C 0 km/h
1716 29-12-2014 07:50:00 -1.8 C 4.06 g/m*3 -1.8 C 0 km/h
1717 29-12-2014 07:55:00 -1.8 C 4.06 g/m*3 -1.8 C 0 km/h
1718 29-12-2014 08:00:00 -1.7 C 4.09 g/m*3 -1.7 C 3.2 km/h
1719 29-12-2014 08:05:00 -1.7 C 4.09 g/m*3 -1.7 C 4.8 km/h
1720 29-12-2014 08:10:00 -1.6 C 4.16 g/m*3 -1.6 C 3.2 km/h
1721 29-12-2014 08:15:00 -1.6 C 4.16 g/m*3 -1.6 C 1.6 km/h
1722 29-12-2014 08:20:00 -1.6 C 4.16 g/m*3 -1.6 C 1.6 km/h
1723 29-12-2014 08:25:00 -1.5 C 4.19 g/m*3 -1.5 C 3.2 km/h
1724 29-12-2014 08:30:00 -1.5 C 4.19 g/m*3 -1.5 C 3.2 km/h
1725 29-12-2014 08:35:00 -1.4 C 4.18 g/m*3 -1.4 C 1.6 km/h
Sensor: Nr:Datum:Temp:Abs-Feuchte:Windchill:Wind:
Aussen-T/F 1726 29-12-2014 08:40:00 -1.4 C 4.18 g/m*3 -1.4 C 1.6 km/h
1727 29-12-2014 08:45:00 -1.4 C 4.22 g/m*3 -1.4 C 1.6 km/h
1728 29-12-2014 08:50:00 -1.3 C 4.25 g/m*3 -1.3 C 1.6 km/h
1729 29-12-2014 08:55:00 -1.3 C 4.25 g/m*3 -1.3 C 0 km/h
1730 29-12-2014 09:00:00 -1.3 C 4.25 g/m*3 -1.3 C 0 km/h
1731 29-12-2014 09:05:00 -1.3 C 4.25 g/m*3 -1.3 C 3.2 km/h
1732 29-12-2014 09:10:00 -1.3 C 4.21 g/m*3 -1.3 C 3.2 km/h
1733 29-12-2014 09:15:00 -1.4 C 4.18 g/m*3 -3.8 C 6.4 km/h
1734 29-12-2014 09:20:00 -1.4 C 4.18 g/m*3 -1.4 C 3.2 km/h
1735 29-12-2014 09:25:00 -1.3 C 4.21 g/m*3 -1.3 C 1.6 km/h
1736 29-12-2014 09:30:00 -1.3 C 4.21 g/m*3 -1.3 C 4.8 km/h
1737 29-12-2014 09:35:00 -1.3 C 4.25 g/m*3 -1.3 C 4.8 km/h
1738 29-12-2014 09:40:00 -1.3 C 4.25 g/m*3 -1.3 C 1.6 km/h
1739 29-12-2014 09:45:00 -1.3 C 4.25 g/m*3 -1.3 C 3.2 km/h
1740 29-12-2014 09:50:00 -1.2 C 4.28 g/m*3 -1.2 C 1.6 km/h
1741 29-12-2014 09:55:00 -1.2 C 4.28 g/m*3 -1.2 C 0 km/h
1742 29-12-2014 10:00:00 -1.1 C 4.31 g/m*3 -1.1 C 3.2 km/h
1743 29-12-2014 10:05:00 -0.9 C 4.37 g/m*3 -0.9 C 3.2 km/h
1744 29-12-2014 10:10:00 -0.9 C 4.37 g/m*3 -0.9 C 1.6 km/h
1745 29-12-2014 10:15:00 -0.8 C 4.4 g/m*3 -0.8 C 3.2 km/h
1746 29-12-2014 10:20:00 -0.8 C 4.4 g/m*3 -0.8 C 4.8 km/h
1747 29-12-2014 10:25:00 -0.7 C 4.43 g/m*3 -0.7 C 0 km/h
1748 29-12-2014 10:30:00 -0.6 C 4.46 g/m*3 -2.88 C 6.4 km/h
1749 29-12-2014 10:35:00 -0.5 C 4.49 g/m*3 -2.76 C 6.4 km/h
1750 29-12-2014 10:40:00 -0.5 C 4.45 g/m*3 -0.5 C 3.2 km/h
Sensor: Nr:Datum:Temp:Abs-Feuchte:Windchill:Wind:
Aussen-T/F 1751 29-12-2014 10:45:00 -0.4 C 4.48 g/m*3 -0.4 C 4.8 km/h
1752 29-12-2014 10:50:00 -0.4 C 4.48 g/m*3 -0.4 C 4.8 km/h
1753 29-12-2014 10:55:00 -0.3 C 4.51 g/m*3 -0.3 C 3.2 km/h
1754 29-12-2014 11:00:00 -0.3 C 4.51 g/m*3 -0.3 C 4.8 km/h
1755 29-12-2014 11:05:00 -0.3 C 4.51 g/m*3 -2.53 C 6.4 km/h
1756 29-12-2014 11:10:00 -0.3 C 4.51 g/m*3 -0.3 C 3.2 km/h
1757 29-12-2014 11:15:00 -0.2 C 4.54 g/m*3 -0.2 C 3.2 km/h
1758 29-12-2014 11:20:00 -0.1 C 4.62 g/m*3 -0.1 C 3.2 km/h
1759 29-12-2014 11:25:00 0.1 C 4.68 g/m*3 0.1 C 4.8 km/h
1760 29-12-2014 11:30:00 0.4 C 4.78 g/m*3 -1.72 C 6.4 km/h
1761 29-12-2014 11:35:00 0.6 C 4.85 g/m*3 0.6 C 3.2 km/h
1762 29-12-2014 11:40:00 0.7 C 4.88 g/m*3 0.7 C 3.2 km/h
1763 29-12-2014 11:45:00 0.8 C 4.91 g/m*3 0.8 C 3.2 km/h
1764 29-12-2014 11:50:00 0.9 C 4.95 g/m*3 -1.14 C 6.4 km/h
1765 29-12-2014 11:55:00 1.2 C 5.05 g/m*3 1.2 C 4.8 km/h
1766 29-12-2014 12:00:00 1.2 C 5.05 g/m*3 -1.8 C 9.7 km/h
1767 29-12-2014 12:05:00 1.7 C 5.23 g/m*3 -0.22 C 6.4 km/h
1768 29-12-2014 12:10:00 1.8 C 5.26 g/m*3 -0.1 C 6.4 km/h
1769 29-12-2014 12:15:00 1.9 C 5.3 g/m*3 -0.54 C 8.1 km/h
1770 29-12-2014 12:20:00 1.9 C 5.3 g/m*3 1.9 C 3.2 km/h
1771 29-12-2014 13:15:00 2.7 C 5.42 g/m*3 0.4 C 8.1 km/h
1772 29-12-2014 13:20:00 2.7 C 5.42 g/m*3 0.4 C 8.1 km/h
1773 29-12-2014 13:25:00 2.7 C 5.42 g/m*3 -0.38 C 11.3 km/h
1774 29-12-2014 13:30:00 2.7 C 5.42 g/m*3 -0.02 C 9.7 km/h
1775 29-12-2014 13:35:00 2.8 C 5.46 g/m*3 0.52 C 8.1 km/h
Sensor: Nr:Datum:Temp:Abs-Feuchte:Windchill:Wind:
Aussen-T/F 1776 29-12-2014 13:40:00 2.8 C 5.46 g/m*3 0.52 C 8.1 km/h
1777 29-12-2014 13:45:00 2.8 C 5.46 g/m*3 0.52 C 8.1 km/h
1778 29-12-2014 13:50:00 2.8 C 5.46 g/m*3 0.1 C 9.7 km/h
1779 29-12-2014 13:55:00 2.8 C 5.46 g/m*3 -0.59 C 12.9 km/h
1780 29-12-2014 14:00:00 2.8 C 5.46 g/m*3 1.05 C 6.4 km/h
1781 29-12-2014 14:40:00 2.9 C 5.43 g/m*3 2.9 C 3.2 km/h
1782 29-12-2014 14:45:00 3 C 5.47 g/m*3 3 C 3.2 km/h
1783 29-12-2014 14:50:00 3 C 5.41 g/m*3 3 C 4.8 km/h
1784 29-12-2014 14:55:00 2.9 C 5.37 g/m*3 0.22 C 9.7 km/h
1785 29-12-2014 15:00:00 2.9 C 5.37 g/m*3 2.9 C 4.8 km/h
1786 29-12-2014 15:05:00 2.9 C 5.37 g/m*3 2.9 C 3.2 km/h
1787 29-12-2014 15:25:00 2.9 C 5.26 g/m*3 0.22 C 9.7 km/h
1788 29-12-2014 15:30:00 2.9 C 5.26 g/m*3 0.22 C 9.7 km/h
1789 29-12-2014 15:35:00 2.9 C 5.26 g/m*3 2.9 C 4.8 km/h
1790 29-12-2014 15:40:00 2.8 C 5.22 g/m*3 -0.59 C 12.9 km/h
1791 29-12-2014 15:45:00 2.8 C 5.22 g/m*3 -0.26 C 11.3 km/h
1792 29-12-2014 15:50:00 2.8 C 5.22 g/m*3 -0.59 C 12.9 km/h
1793 29-12-2014 15:55:00 2.8 C 5.22 g/m*3 -0.59 C 12.9 km/h
1794 29-12-2014 16:00:00 2.8 C 5.22 g/m*3 -0.26 C 11.3 km/h
1795 29-12-2014 16:05:00 2.7 C 5.13 g/m*3 -0.71 C 12.9 km/h
1796 29-12-2014 16:10:00 2.7 C 5.07 g/m*3 -1.27 C 16.1 km/h
1797 29-12-2014 16:15:00 2.7 C 5.01 g/m*3 -1 C 14.5 km/h
1798 29-12-2014 16:20:00 2.7 C 4.95 g/m*3 -1.74 C 19.3 km/h
1799 29-12-2014 16:25:00 2.7 C 4.95 g/m*3 -0.38 C 11.3 km/h
1800 29-12-2014 16:30:00 2.6 C 4.92 g/m*3 -1.39 C 16.1 km/h
Sensor: Nr:Datum:Temp:Abs-Feuchte:Windchill:Wind:
Aussen-T/F 1801 29-12-2014 16:35:00 2.6 C 4.86 g/m*3 -0.5 C 11.3 km/h
1802 29-12-2014 16:40:00 2.5 C 4.83 g/m*3 -0.26 C 9.7 km/h
1803 29-12-2014 16:45:00 2.5 C 4.83 g/m*3 -0.26 C 9.7 km/h
1804 29-12-2014 16:50:00 2.4 C 4.8 g/m*3 0.05 C 8.1 km/h
1805 29-12-2014 16:55:00 2.4 C 4.8 g/m*3 0.05 C 8.1 km/h
1806 29-12-2014 17:00:00 2.4 C 4.85 g/m*3 2.4 C 4.8 km/h
1807 29-12-2014 17:05:00 2.3 C 4.88 g/m*3 2.3 C 3.2 km/h
1808 29-12-2014 17:10:00 2.3 C 4.88 g/m*3 2.3 C 3.2 km/h
1809 29-12-2014 17:15:00 2.3 C 4.88 g/m*3 2.3 C 3.2 km/h
1810 29-12-2014 17:20:00 2.3 C 4.88 g/m*3 -0.07 C 8.1 km/h
1811 29-12-2014 17:25:00 2.3 C 4.88 g/m*3 2.3 C 4.8 km/h
1812 29-12-2014 17:30:00 2.2 C 4.84 g/m*3 -0.18 C 8.1 km/h
1813 29-12-2014 17:35:00 2.2 C 4.84 g/m*3 0.36 C 6.4 km/h
1814 29-12-2014 17:40:00 2.1 C 4.81 g/m*3 -0.3 C 8.1 km/h
1815 29-12-2014 17:45:00 2.1 C 4.81 g/m*3 -0.73 C 9.7 km/h
1816 29-12-2014 17:50:00 2.1 C 4.81 g/m*3 2.1 C 4.8 km/h
1817 29-12-2014 17:55:00 2 C 4.78 g/m*3 0.13 C 6.4 km/h
1818 29-12-2014 18:00:00 1.9 C 4.75 g/m*3 -1.35 C 11.3 km/h
1819 29-12-2014 18:05:00 1.9 C 4.75 g/m*3 -0.54 C 8.1 km/h
1820 29-12-2014 18:10:00 1.9 C 4.69 g/m*3 0.01 C 6.4 km/h
1821 29-12-2014 18:15:00 1.9 C 4.69 g/m*3 -0.54 C 8.1 km/h
1822 29-12-2014 18:20:00 1.9 C 4.69 g/m*3 0.01 C 6.4 km/h
1823 29-12-2014 18:25:00 1.9 C 4.69 g/m*3 1.9 C 4.8 km/h
1824 29-12-2014 18:30:00 1.9 C 4.69 g/m*3 1.9 C 1.6 km/h
1825 29-12-2014 18:35:00 1.8 C 4.66 g/m*3 -1.47 C 11.3 km/h
Sensor: Nr:Datum:Temp:Abs-Feuchte:Windchill:Wind:
Aussen-T/F 1826 29-12-2014 18:40:00 1.8 C 4.6 g/m*3 -0.1 C 6.4 km/h
1827 29-12-2014 18:45:00 1.8 C 4.55 g/m*3 -1.09 C 9.7 km/h
1828 29-12-2014 18:50:00 1.9 C 4.58 g/m*3 -1.35 C 11.3 km/h
1829 29-12-2014 18:55:00 1.9 C 4.58 g/m*3 -0.54 C 8.1 km/h
1830 29-12-2014 19:00:00 1.9 C 4.58 g/m*3 0.01 C 6.4 km/h
1831 29-12-2014 19:05:00 1.8 C 4.6 g/m*3 -1.09 C 9.7 km/h
1832 29-12-2014 19:10:00 1.8 C 4.55 g/m*3 -0.1 C 6.4 km/h
1833 29-12-2014 19:15:00 1.8 C 4.55 g/m*3 -0.1 C 6.4 km/h
1834 29-12-2014 19:20:00 1.8 C 4.55 g/m*3 1.8 C 3.2 km/h
1835 29-12-2014 19:25:00 1.8 C 4.55 g/m*3 1.8 C 4.8 km/h
1836 29-12-2014 19:30:00 1.8 C 4.55 g/m*3 -1.09 C 9.7 km/h
1837 29-12-2014 19:35:00 1.7 C 4.52 g/m*3 -0.77 C 8.1 km/h
1838 29-12-2014 19:40:00 1.7 C 4.52 g/m*3 1.7 C 3.2 km/h
1839 29-12-2014 19:45:00 1.7 C 4.46 g/m*3 1.7 C 4.8 km/h
1840 29-12-2014 19:50:00 1.7 C 4.52 g/m*3 -0.22 C 6.4 km/h
1841 29-12-2014 19:55:00 1.7 C 4.52 g/m*3 1.7 C 3.2 km/h
1842 29-12-2014 20:00:00 1.6 C 4.49 g/m*3 1.6 C 3.2 km/h
1843 29-12-2014 20:05:00 1.6 C 4.49 g/m*3 -1.33 C 9.7 km/h
1844 29-12-2014 20:10:00 1.6 C 4.49 g/m*3 -0.33 C 6.4 km/h
1845 29-12-2014 20:15:00 1.6 C 4.49 g/m*3 -0.33 C 6.4 km/h
1846 29-12-2014 20:20:00 1.5 C 4.4 g/m*3 -0.45 C 6.4 km/h
1847 29-12-2014 20:25:00 1.5 C 4.4 g/m*3 -1.45 C 9.7 km/h
1848 29-12-2014 20:30:00 1.5 C 4.46 g/m*3 1.5 C 1.6 km/h
1849 29-12-2014 20:35:00 1.5 C 4.46 g/m*3 1.5 C 3.2 km/h
1850 29-12-2014 20:40:00 1.4 C 4.43 g/m*3 1.4 C 4.8 km/h
Sensor: Nr:Datum:Temp:Abs-Feuchte:Windchill:Wind:
Aussen-T/F 1851 29-12-2014 20:45:00 1.4 C 4.43 g/m*3 1.4 C 4.8 km/h
1852 29-12-2014 20:50:00 1.5 C 4.4 g/m*3 1.5 C 3.2 km/h
1853 29-12-2014 20:55:00 1.5 C 4.46 g/m*3 1.5 C 3.2 km/h
1854 29-12-2014 21:00:00 1.5 C 4.4 g/m*3 -1.01 C 8.1 km/h
1855 29-12-2014 21:05:00 1.5 C 4.4 g/m*3 1.5 C 4.8 km/h
1856 29-12-2014 21:10:00 1.5 C 4.4 g/m*3 -0.45 C 6.4 km/h
1857 29-12-2014 21:15:00 1.5 C 4.4 g/m*3 -0.45 C 6.4 km/h
1858 29-12-2014 21:20:00 1.4 C 4.43 g/m*3 1.4 C 4.8 km/h
1859 29-12-2014 21:25:00 1.4 C 4.43 g/m*3 -0.56 C 6.4 km/h
1860 29-12-2014 21:30:00 1.4 C 4.43 g/m*3 1.4 C 4.8 km/h
1861 29-12-2014 21:35:00 1.4 C 4.43 g/m*3 1.4 C 3.2 km/h
1862 29-12-2014 21:40:00 1.4 C 4.43 g/m*3 1.4 C 3.2 km/h
1863 29-12-2014 21:45:00 1.3 C 4.34 g/m*3 -0.68 C 6.4 km/h
1864 29-12-2014 21:50:00 1.3 C 4.34 g/m*3 1.3 C 3.2 km/h
1865 29-12-2014 21:55:00 1.3 C 4.4 g/m*3 1.3 C 3.2 km/h
1866 29-12-2014 22:00:00 1.3 C 4.4 g/m*3 1.3 C 1.6 km/h
1867 29-12-2014 22:05:00 1.3 C 4.4 g/m*3 1.3 C 1.6 km/h
1868 29-12-2014 22:10:00 1.2 C 4.42 g/m*3 1.2 C 1.6 km/h
1869 29-12-2014 22:15:00 1.1 C 4.34 g/m*3 1.1 C 3.2 km/h
1870 29-12-2014 22:20:00 0.9 C 4.43 g/m*3 0.9 C 1.6 km/h
1871 29-12-2014 22:25:00 0.7 C 4.37 g/m*3 0.7 C 1.6 km/h
1872 29-12-2014 22:30:00 0.6 C 4.34 g/m*3 0.6 C 0 km/h
1873 29-12-2014 22:35:00 0.4 C 4.38 g/m*3 0.4 C 1.6 km/h
1874 29-12-2014 22:40:00 0.3 C 4.4 g/m*3 0.3 C 4.8 km/h
1875 29-12-2014 22:45:00 0.3 C 4.45 g/m*3 0.3 C 4.8 km/h
Sensor: Nr:Datum:Temp:Abs-Feuchte:Windchill:Wind:
Aussen-T/F 1876 29-12-2014 22:50:00 0.2 C 4.42 g/m*3 0.2 C 3.2 km/h
1877 29-12-2014 22:55:00 0.2 C 4.47 g/m*3 0.2 C 4.8 km/h
1878 29-12-2014 23:00:00 0.1 C 4.44 g/m*3 0.1 C 1.6 km/h
1879 29-12-2014 23:05:00 0.1 C 4.39 g/m*3 0.1 C 1.6 km/h
1880 29-12-2014 23:10:00 0 C 4.36 g/m*3 0 C 0 km/h
1881 29-12-2014 23:15:00 -0.1 C 4.38 g/m*3 -0.1 C 1.6 km/h
1882 29-12-2014 23:20:00 -0.1 C 4.33 g/m*3 -0.1 C 0 km/h
1883 29-12-2014 23:25:00 -0.1 C 4.33 g/m*3 -0.1 C 0 km/h
1884 29-12-2014 23:30:00 0 C 4.41 g/m*3 0 C 0 km/h
1885 29-12-2014 23:35:00 0.1 C 4.39 g/m*3 0.1 C 0 km/h
1886 29-12-2014 23:40:00 0.1 C 4.39 g/m*3 0.1 C 0 km/h
1887 29-12-2014 23:45:00 0.1 C 4.39 g/m*3 0.1 C 0 km/h
1888 29-12-2014 23:50:00 0.2 C 4.42 g/m*3 0.2 C 0 km/h
1889 29-12-2014 23:55:00 0.2 C 4.42 g/m*3 0.2 C 0 km/h
1890 30-12-2014 00:00:00 0.3 C 4.45 g/m*3 0.3 C 0 km/h
1891 30-12-2014 00:05:00 0.3 C 4.45 g/m*3 0.3 C 0 km/h
1892 30-12-2014 00:10:00 0.3 C 4.45 g/m*3 0.3 C 0 km/h
1893 30-12-2014 00:15:00 0.3 C 4.45 g/m*3 0.3 C 0 km/h
1894 30-12-2014 00:55:00 0.4 C 4.48 g/m*3 0.4 C 1.6 km/h
1895 30-12-2014 01:00:00 0.3 C 4.45 g/m*3 0.3 C 3.2 km/h
1896 30-12-2014 01:05:00 0.3 C 4.5 g/m*3 0.3 C 1.6 km/h
1897 30-12-2014 01:10:00 0.3 C 4.5 g/m*3 0.3 C 0 km/h
1898 30-12-2014 09:25:00 1.2 C 5.05 g/m*3 1.2 C 3.2 km/h
1899 30-12-2014 09:30:00 1.2 C 5.05 g/m*3 1.2 C 1.6 km/h
1900 30-12-2014 09:35:00 1.3 C 5.09 g/m*3 1.3 C 1.6 km/h
Sensor: Nr:Datum:Temp:Abs-Feuchte:Windchill:Wind:
Aussen-T/F 1901 30-12-2014 09:40:00 1.3 C 5.09 g/m*3 1.3 C 1.6 km/h
1902 30-12-2014 09:45:00 1.4 C 5.12 g/m*3 1.4 C 0 km/h
1903 30-12-2014 09:50:00 1.4 C 5.12 g/m*3 1.4 C 1.6 km/h
1904 30-12-2014 09:55:00 1.5 C 5.16 g/m*3 1.5 C 1.6 km/h
1905 30-12-2014 10:00:00 1.6 C 5.19 g/m*3 1.6 C 0 km/h
1906 30-12-2014 10:05:00 1.7 C 5.23 g/m*3 1.7 C 1.6 km/h
1907 30-12-2014 10:10:00 1.7 C 5.23 g/m*3 1.7 C 1.6 km/h
1908 30-12-2014 10:15:00 1.8 C 5.26 g/m*3 1.8 C 1.6 km/h
1909 30-12-2014 10:20:00 1.8 C 5.26 g/m*3 1.8 C 3.2 km/h
1910 30-12-2014 10:25:00 1.8 C 5.26 g/m*3 1.8 C 1.6 km/h
1911 30-12-2014 10:30:00 1.9 C 5.3 g/m*3 1.9 C 1.6 km/h
1912 30-12-2014 10:35:00 2 C 5.33 g/m*3 2 C 3.2 km/h
1913 30-12-2014 10:40:00 2.2 C 5.41 g/m*3 2.2 C 3.2 km/h
1914 30-12-2014 10:45:00 2.2 C 5.41 g/m*3 2.2 C 3.2 km/h
1915 30-12-2014 10:50:00 2.3 C 5.44 g/m*3 2.3 C 3.2 km/h
1916 30-12-2014 10:55:00 2.3 C 5.44 g/m*3 2.3 C 3.2 km/h
1917 30-12-2014 11:00:00 2.4 C 5.48 g/m*3 2.4 C 3.2 km/h
1918 30-12-2014 11:05:00 2.5 C 5.52 g/m*3 2.5 C 0 km/h
1919 30-12-2014 11:10:00 2.6 C 5.56 g/m*3 2.6 C 4.8 km/h
1920 30-12-2014 11:15:00 2.8 C 5.57 g/m*3 2.8 C 3.2 km/h
1921 30-12-2014 11:20:00 2.9 C 5.61 g/m*3 2.9 C 1.6 km/h
1922 30-12-2014 11:25:00 3 C 5.59 g/m*3 1.28 C 6.4 km/h
1923 30-12-2014 11:30:00 2.9 C 5.55 g/m*3 2.9 C 0 km/h
1924 30-12-2014 11:35:00 2.9 C 5.55 g/m*3 2.9 C 4.8 km/h
1925 30-12-2014 11:40:00 3 C 5.59 g/m*3 3 C 3.2 km/h
Sensor: Nr:Datum:Temp:Abs-Feuchte:Windchill:Wind:
Aussen-T/F 1926 30-12-2014 11:45:00 3.1 C 5.63 g/m*3 3.1 C 0 km/h
1927 30-12-2014 11:50:00 3.2 C 5.6 g/m*3 3.2 C 1.6 km/h
1928 30-12-2014 11:55:00 3.2 C 5.6 g/m*3 3.2 C 3.2 km/h
1929 30-12-2014 12:00:00 3.3 C 5.64 g/m*3 3.3 C 3.2 km/h
1930 30-12-2014 12:05:00 3.4 C 5.62 g/m*3 3.4 C 1.6 km/h
1931 30-12-2014 12:10:00 3.4 C 5.62 g/m*3 3.4 C 3.2 km/h
1932 30-12-2014 12:15:00 3.6 C 5.69 g/m*3 3.6 C 1.6 km/h
1933 30-12-2014 12:20:00 3.6 C 5.63 g/m*3 3.6 C 3.2 km/h
1934 30-12-2014 12:25:00 3.7 C 5.67 g/m*3 3.7 C 3.2 km/h
1935 30-12-2014 12:30:00 3.7 C 5.67 g/m*3 3.7 C 1.6 km/h
1936 30-12-2014 12:35:00 3.7 C 5.67 g/m*3 3.7 C 3.2 km/h
1937 30-12-2014 12:40:00 3.7 C 5.61 g/m*3 3.7 C 0 km/h
1938 30-12-2014 12:45:00 3.6 C 5.57 g/m*3 3.6 C 0 km/h
1939 30-12-2014 12:50:00 3.6 C 5.63 g/m*3 3.6 C 3.2 km/h
1940 30-12-2014 12:55:00 3.6 C 5.63 g/m*3 3.6 C 0 km/h
1941 30-12-2014 13:00:00 3.5 C 5.6 g/m*3 3.5 C 0 km/h
1942 30-12-2014 13:05:00 3.3 C 5.52 g/m*3 3.3 C 0 km/h
1943 30-12-2014 13:10:00 3.3 C 5.52 g/m*3 3.3 C 1.6 km/h
1944 30-12-2014 13:15:00 3.2 C 5.54 g/m*3 3.2 C 0 km/h
1945 30-12-2014 13:20:00 3.2 C 5.54 g/m*3 3.2 C 0 km/h
1946 30-12-2014 13:25:00 3.2 C 5.54 g/m*3 3.2 C 1.6 km/h
1947 30-12-2014 13:30:00 3.2 C 5.54 g/m*3 3.2 C 1.6 km/h
1948 30-12-2014 13:35:00 3.3 C 5.58 g/m*3 3.3 C 0 km/h
1949 30-12-2014 13:40:00 3.3 C 5.58 g/m*3 3.3 C 0 km/h
1950 30-12-2014 13:45:00 3.3 C 5.58 g/m*3 3.3 C 0 km/h
Sensor: Nr:Datum:Temp:Abs-Feuchte:Windchill:Wind:
Aussen-T/F 1951 30-12-2014 13:50:00 3.2 C 5.54 g/m*3 3.2 C 0 km/h
1952 30-12-2014 13:55:00 3.2 C 5.54 g/m*3 3.2 C 0 km/h
1953 30-12-2014 14:00:00 3.4 C 5.62 g/m*3 3.4 C 4.8 km/h
1954 30-12-2014 14:05:00 3.7 C 5.67 g/m*3 2.09 C 6.4 km/h
1955 30-12-2014 14:10:00 3.8 C 5.65 g/m*3 2.21 C 6.4 km/h
1956 30-12-2014 14:15:00 4.1 C 5.7 g/m*3 2.55 C 6.4 km/h
1957 30-12-2014 14:20:00 4.2 C 5.67 g/m*3 0.84 C 14.5 km/h
1958 30-12-2014 14:25:00 4.3 C 5.71 g/m*3 0.97 C 14.5 km/h
1959 30-12-2014 14:30:00 4.3 C 5.71 g/m*3 4.3 C 4.8 km/h
1960 30-12-2014 14:35:00 4.3 C 5.64 g/m*3 2.29 C 8.1 km/h
1961 30-12-2014 14:40:00 4.3 C 5.64 g/m*3 4.3 C 4.8 km/h
1962 30-12-2014 14:45:00 4.3 C 5.64 g/m*3 2.78 C 6.4 km/h
1963 30-12-2014 14:50:00 4.2 C 5.61 g/m*3 4.2 C 3.2 km/h
1964 30-12-2014 14:55:00 4.2 C 5.67 g/m*3 4.2 C 3.2 km/h
1965 30-12-2014 15:00:00 4.1 C 5.63 g/m*3 2.05 C 8.1 km/h
1966 30-12-2014 15:05:00 4 C 5.59 g/m*3 2.44 C 6.4 km/h
1967 30-12-2014 15:10:00 4.1 C 5.63 g/m*3 1.65 C 9.7 km/h
1968 30-12-2014 15:15:00 4.2 C 5.67 g/m*3 2.17 C 8.1 km/h
1969 30-12-2014 15:20:00 4.2 C 5.67 g/m*3 1.43 C 11.3 km/h
1970 30-12-2014 15:25:00 4.3 C 5.71 g/m*3 2.78 C 6.4 km/h
1971 30-12-2014 15:30:00 4.3 C 5.77 g/m*3 4.3 C 3.2 km/h
1972 30-12-2014 15:35:00 4.3 C 5.77 g/m*3 4.3 C 4.8 km/h
1973 30-12-2014 15:40:00 4.3 C 5.77 g/m*3 4.3 C 4.8 km/h
1974 30-12-2014 15:45:00 4.2 C 5.73 g/m*3 4.2 C 3.2 km/h
1975 30-12-2014 15:50:00 4.1 C 5.76 g/m*3 4.1 C 4.8 km/h
Sensor: Nr:Datum:Temp:Abs-Feuchte:Windchill:Wind:
Aussen-T/F 1976 30-12-2014 15:55:00 4.1 C 5.76 g/m*3 2.05 C 8.1 km/h
1977 30-12-2014 16:00:00 4.1 C 5.76 g/m*3 4.1 C 3.2 km/h
1978 30-12-2014 16:05:00 3.9 C 5.68 g/m*3 3.9 C 4.8 km/h
1979 30-12-2014 16:10:00 3.8 C 5.65 g/m*3 3.8 C 1.6 km/h
1980 30-12-2014 16:15:00 3.7 C 5.67 g/m*3 3.7 C 1.6 km/h
1981 30-12-2014 16:20:00 3.6 C 5.63 g/m*3 3.6 C 1.6 km/h
1982 30-12-2014 16:25:00 3.5 C 5.6 g/m*3 3.5 C 1.6 km/h
1983 30-12-2014 16:30:00 3.3 C 5.58 g/m*3 3.3 C 1.6 km/h
1984 30-12-2014 16:35:00 3.3 C 5.58 g/m*3 3.3 C 3.2 km/h
1985 30-12-2014 16:40:00 3.3 C 5.58 g/m*3 3.3 C 1.6 km/h
1986 30-12-2014 16:45:00 3.2 C 5.54 g/m*3 3.2 C 4.8 km/h
1987 30-12-2014 16:50:00 3.3 C 5.58 g/m*3 1.11 C 8.1 km/h
1988 30-12-2014 16:55:00 3.3 C 5.64 g/m*3 1.63 C 6.4 km/h
1989 30-12-2014 17:00:00 3.3 C 5.58 g/m*3 3.3 C 1.6 km/h
1990 30-12-2014 17:05:00 3.3 C 5.58 g/m*3 3.3 C 4.8 km/h
1991 30-12-2014 17:10:00 3.3 C 5.58 g/m*3 3.3 C 4.8 km/h
1992 30-12-2014 17:15:00 3.3 C 5.58 g/m*3 3.3 C 3.2 km/h
1993 30-12-2014 17:20:00 3.2 C 5.54 g/m*3 3.2 C 1.6 km/h
1994 30-12-2014 17:25:00 3.1 C 5.51 g/m*3 3.1 C 3.2 km/h
1995 30-12-2014 17:30:00 3 C 5.53 g/m*3 3 C 1.6 km/h
1996 30-12-2014 17:35:00 3.1 C 5.57 g/m*3 3.1 C 1.6 km/h
1997 30-12-2014 17:40:00 3.2 C 5.6 g/m*3 3.2 C 3.2 km/h
1998 30-12-2014 17:45:00 3.2 C 5.54 g/m*3 3.2 C 3.2 km/h
1999 30-12-2014 17:50:00 3.2 C 5.54 g/m*3 3.2 C 3.2 km/h
2000 30-12-2014 17:55:00 3.2 C 5.54 g/m*3 3.2 C 0 km/h
Sensor: Nr:Datum:Temp:Abs-Feuchte:Windchill:Wind:
Aussen-T/F 2001 30-12-2014 18:00:00 3 C 5.47 g/m*3 3 C 3.2 km/h
2002 30-12-2014 18:05:00 2.9 C 5.49 g/m*3 2.9 C 0 km/h
2003 30-12-2014 18:10:00 2.8 C 5.46 g/m*3 2.8 C 3.2 km/h
2004 30-12-2014 18:15:00 2.7 C 5.42 g/m*3 2.7 C 1.6 km/h
2005 30-12-2014 18:20:00 2.6 C 5.38 g/m*3 2.6 C 3.2 km/h
2006 30-12-2014 18:25:00 2.5 C 5.35 g/m*3 2.5 C 3.2 km/h
2007 30-12-2014 18:30:00 2.4 C 5.31 g/m*3 2.4 C 3.2 km/h
2008 30-12-2014 18:35:00 2.4 C 5.37 g/m*3 2.4 C 3.2 km/h
2009 30-12-2014 18:40:00 2.3 C 5.33 g/m*3 2.3 C 1.6 km/h
2010 30-12-2014 18:45:00 2.3 C 5.33 g/m*3 2.3 C 3.2 km/h
2011 30-12-2014 18:50:00 2.2 C 5.29 g/m*3 2.2 C 3.2 km/h
2012 30-12-2014 18:55:00 2.3 C 5.33 g/m*3 2.3 C 3.2 km/h
2013 30-12-2014 19:00:00 2.2 C 5.29 g/m*3 2.2 C 1.6 km/h
2014 30-12-2014 19:05:00 2.2 C 5.35 g/m*3 2.2 C 1.6 km/h
2015 30-12-2014 19:10:00 2.2 C 5.35 g/m*3 2.2 C 1.6 km/h
2016 30-12-2014 19:15:00 2.2 C 5.29 g/m*3 2.2 C 3.2 km/h
2017 30-12-2014 19:20:00 2.1 C 5.31 g/m*3 2.1 C 1.6 km/h
2018 30-12-2014 19:25:00 2.2 C 5.35 g/m*3 2.2 C 1.6 km/h
2019 30-12-2014 19:30:00 2.2 C 5.35 g/m*3 2.2 C 1.6 km/h
2020 30-12-2014 19:35:00 2.2 C 5.35 g/m*3 2.2 C 1.6 km/h
2021 30-12-2014 19:40:00 2.2 C 5.35 g/m*3 2.2 C 1.6 km/h
2022 30-12-2014 19:45:00 2.2 C 5.29 g/m*3 2.2 C 3.2 km/h
2023 30-12-2014 19:50:00 2.2 C 5.29 g/m*3 2.2 C 4.8 km/h
2024 30-12-2014 19:55:00 2.3 C 5.33 g/m*3 2.3 C 4.8 km/h
2025 30-12-2014 20:00:00 2.4 C 5.31 g/m*3 2.4 C 3.2 km/h
Sensor: Nr:Datum:Temp:Abs-Feuchte:Windchill:Wind:
Aussen-T/F 2026 30-12-2014 20:05:00 2.5 C 5.35 g/m*3 2.5 C 1.6 km/h
2027 30-12-2014 20:10:00 2.4 C 5.25 g/m*3 2.4 C 0 km/h
2028 30-12-2014 20:15:00 2.4 C 5.25 g/m*3 2.4 C 0 km/h
2029 30-12-2014 20:20:00 2.3 C 5.27 g/m*3 2.3 C 4.8 km/h
2030 30-12-2014 20:25:00 2.3 C 5.27 g/m*3 2.3 C 4.8 km/h
2031 30-12-2014 20:30:00 2.7 C 5.3 g/m*3 2.7 C 1.6 km/h
2032 30-12-2014 20:35:00 2.7 C 5.3 g/m*3 2.7 C 3.2 km/h
2033 30-12-2014 20:40:00 2.5 C 5.23 g/m*3 2.5 C 3.2 km/h
2034 30-12-2014 20:45:00 2.4 C 5.25 g/m*3 2.4 C 4.8 km/h
2035 30-12-2014 20:50:00 2.4 C 5.25 g/m*3 0.59 C 6.4 km/h
2036 30-12-2014 20:55:00 2.4 C 5.25 g/m*3 2.4 C 3.2 km/h
2037 30-12-2014 21:00:00 2.3 C 5.22 g/m*3 2.3 C 1.6 km/h
2038 30-12-2014 21:05:00 2.3 C 5.27 g/m*3 2.3 C 1.6 km/h
2039 30-12-2014 21:10:00 2.3 C 5.27 g/m*3 2.3 C 1.6 km/h
2040 30-12-2014 21:15:00 2.2 C 5.24 g/m*3 2.2 C 1.6 km/h
2041 30-12-2014 21:20:00 2.1 C 5.2 g/m*3 2.1 C 1.6 km/h
2042 30-12-2014 21:25:00 2.1 C 5.2 g/m*3 2.1 C 0 km/h
2043 30-12-2014 21:30:00 2.1 C 5.2 g/m*3 2.1 C 1.6 km/h
2044 30-12-2014 21:35:00 2 C 5.22 g/m*3 2 C 3.2 km/h
2045 30-12-2014 21:40:00 2 C 5.22 g/m*3 2 C 3.2 km/h
2046 30-12-2014 21:45:00 2.1 C 5.26 g/m*3 2.1 C 4.8 km/h
2047 30-12-2014 21:50:00 2.1 C 5.2 g/m*3 2.1 C 1.6 km/h
2048 30-12-2014 21:55:00 2.1 C 5.2 g/m*3 2.1 C 1.6 km/h
2049 30-12-2014 22:00:00 2 C 5.17 g/m*3 2 C 1.6 km/h
2050 30-12-2014 22:05:00 2 C 5.22 g/m*3 2 C 3.2 km/h
Sensor: Nr:Datum:Temp:Abs-Feuchte:Windchill:Wind:
Aussen-T/F 2051 30-12-2014 22:10:00 1.9 C 5.19 g/m*3 1.9 C 1.6 km/h
2052 30-12-2014 22:15:00 1.9 C 5.19 g/m*3 1.9 C 1.6 km/h
2053 30-12-2014 22:20:00 1.9 C 5.19 g/m*3 1.9 C 1.6 km/h
2054 30-12-2014 22:25:00 1.9 C 5.19 g/m*3 1.9 C 0 km/h
2055 30-12-2014 22:30:00 1.9 C 5.19 g/m*3 1.9 C 0 km/h
2056 30-12-2014 22:35:00 1.9 C 5.19 g/m*3 1.9 C 0 km/h
2057 30-12-2014 22:40:00 1.9 C 5.19 g/m*3 1.9 C 1.6 km/h
2058 30-12-2014 22:45:00 2 C 5.22 g/m*3 2 C 1.6 km/h
2059 30-12-2014 22:50:00 2 C 5.22 g/m*3 2 C 1.6 km/h
2060 30-12-2014 22:55:00 2 C 5.22 g/m*3 2 C 3.2 km/h
2061 30-12-2014 23:00:00 2 C 5.22 g/m*3 2 C 1.6 km/h
2062 30-12-2014 23:05:00 1.9 C 5.19 g/m*3 1.9 C 1.6 km/h
2063 30-12-2014 23:10:00 1.9 C 5.19 g/m*3 1.9 C 1.6 km/h
2064 30-12-2014 23:15:00 1.9 C 5.19 g/m*3 1.9 C 0 km/h
2065 30-12-2014 23:20:00 1.9 C 5.19 g/m*3 1.9 C 0 km/h
2066 30-12-2014 23:25:00 1.9 C 5.19 g/m*3 1.9 C 3.2 km/h
2067 30-12-2014 23:30:00 1.9 C 5.19 g/m*3 1.9 C 3.2 km/h
2068 30-12-2014 23:35:00 1.9 C 5.19 g/m*3 1.9 C 0 km/h
2069 30-12-2014 23:40:00 1.9 C 5.19 g/m*3 1.9 C 1.6 km/h
2070 30-12-2014 23:45:00 1.9 C 5.19 g/m*3 1.9 C 0 km/h
2071 30-12-2014 23:50:00 1.9 C 5.19 g/m*3 1.9 C 1.6 km/h
2072 30-12-2014 23:55:00 1.9 C 5.19 g/m*3 1.9 C 1.6 km/h
2073 31-12-2014 00:00:00 1.9 C 5.24 g/m*3 1.9 C 1.6 km/h
2074 31-12-2014 00:05:00 1.9 C 5.19 g/m*3 1.9 C 1.6 km/h
2075 31-12-2014 00:10:00 1.9 C 5.19 g/m*3 1.9 C 0 km/h
Sensor: Nr:Datum:Temp:Abs-Feuchte:Windchill:Wind:
Aussen-T/F 2076 31-12-2014 00:15:00 1.9 C 5.19 g/m*3 1.9 C 0 km/h
2077 31-12-2014 00:20:00 1.9 C 5.19 g/m*3 1.9 C 0 km/h
2078 31-12-2014 00:25:00 1.9 C 5.19 g/m*3 1.9 C 1.6 km/h
2079 31-12-2014 00:30:00 1.9 C 5.24 g/m*3 1.9 C 0 km/h
2080 31-12-2014 00:35:00 1.8 C 5.15 g/m*3 1.8 C 0 km/h
2081 31-12-2014 00:40:00 1.9 C 5.24 g/m*3 1.9 C 0 km/h
2082 31-12-2014 00:45:00 1.8 C 5.21 g/m*3 1.8 C 0 km/h
2083 31-12-2014 00:50:00 1.9 C 5.24 g/m*3 1.9 C 1.6 km/h
2084 31-12-2014 00:55:00 1.8 C 5.21 g/m*3 1.8 C 1.6 km/h
2085 31-12-2014 01:00:00 1.8 C 5.21 g/m*3 1.8 C 0 km/h
2086 31-12-2014 01:05:00 1.8 C 5.21 g/m*3 1.8 C 1.6 km/h
2087 31-12-2014 01:10:00 1.8 C 5.21 g/m*3 1.8 C 0 km/h
2088 31-12-2014 01:15:00 1.9 C 5.24 g/m*3 1.9 C 4.8 km/h
2089 31-12-2014 01:20:00 1.9 C 5.24 g/m*3 1.9 C 1.6 km/h
2090 31-12-2014 01:25:00 1.9 C 5.24 g/m*3 1.9 C 0 km/h
2091 31-12-2014 01:30:00 2 C 5.22 g/m*3 2 C 1.6 km/h
2092 31-12-2014 01:35:00 2.1 C 5.26 g/m*3 2.1 C 1.6 km/h
2093 31-12-2014 01:40:00 2.1 C 5.26 g/m*3 2.1 C 1.6 km/h
2094 31-12-2014 01:45:00 2.1 C 5.26 g/m*3 2.1 C 1.6 km/h
2095 31-12-2014 01:50:00 2.1 C 5.26 g/m*3 2.1 C 0 km/h
2096 31-12-2014 01:55:00 2.1 C 5.26 g/m*3 2.1 C 0 km/h
2097 31-12-2014 02:00:00 2.1 C 5.26 g/m*3 2.1 C 1.6 km/h
2098 31-12-2014 02:05:00 2.1 C 5.26 g/m*3 2.1 C 0 km/h
2099 31-12-2014 02:10:00 2.1 C 5.26 g/m*3 2.1 C 1.6 km/h
2100 31-12-2014 02:15:00 2.1 C 5.26 g/m*3 2.1 C 1.6 km/h
Sensor: Nr:Datum:Temp:Abs-Feuchte:Windchill:Wind:
Aussen-T/F 2101 31-12-2014 02:20:00 2.1 C 5.26 g/m*3 2.1 C 0 km/h
2102 31-12-2014 02:25:00 2.1 C 5.26 g/m*3 2.1 C 0 km/h
2103 31-12-2014 02:30:00 2.1 C 5.26 g/m*3 2.1 C 1.6 km/h
2104 31-12-2014 02:35:00 2.1 C 5.26 g/m*3 2.1 C 0 km/h
2105 31-12-2014 02:40:00 2.1 C 5.26 g/m*3 2.1 C 0 km/h
2106 31-12-2014 02:45:00 2.1 C 5.26 g/m*3 2.1 C 0 km/h
2107 31-12-2014 02:50:00 2.1 C 5.26 g/m*3 2.1 C 1.6 km/h
2108 31-12-2014 02:55:00 2.1 C 5.26 g/m*3 2.1 C 1.6 km/h
2109 31-12-2014 03:00:00 2.1 C 5.26 g/m*3 2.1 C 1.6 km/h
2110 31-12-2014 03:05:00 2.1 C 5.26 g/m*3 2.1 C 1.6 km/h
2111 31-12-2014 03:10:00 2.1 C 5.26 g/m*3 2.1 C 1.6 km/h
2112 31-12-2014 03:15:00 2.1 C 5.31 g/m*3 2.1 C 1.6 km/h
2113 31-12-2014 03:20:00 2.1 C 5.26 g/m*3 2.1 C 3.2 km/h
2114 31-12-2014 03:25:00 2.1 C 5.26 g/m*3 2.1 C 0 km/h
2115 31-12-2014 03:30:00 2.1 C 5.26 g/m*3 2.1 C 1.6 km/h
2116 31-12-2014 03:35:00 2.1 C 5.31 g/m*3 2.1 C 0 km/h
2117 31-12-2014 03:40:00 2.1 C 5.31 g/m*3 2.1 C 0 km/h
2118 31-12-2014 03:45:00 2.1 C 5.31 g/m*3 2.1 C 1.6 km/h
2119 31-12-2014 03:50:00 2.1 C 5.31 g/m*3 2.1 C 0 km/h
2120 31-12-2014 03:55:00 2.1 C 5.31 g/m*3 2.1 C 0 km/h
2121 31-12-2014 04:00:00 2.1 C 5.31 g/m*3 2.1 C 0 km/h
2122 31-12-2014 04:05:00 2.1 C 5.31 g/m*3 2.1 C 0 km/h
2123 31-12-2014 04:10:00 2.1 C 5.31 g/m*3 2.1 C 0 km/h
2124 31-12-2014 04:15:00 2.1 C 5.31 g/m*3 2.1 C 0 km/h
2125 31-12-2014 04:20:00 2.1 C 5.31 g/m*3 2.1 C 0 km/h
Sensor: Nr:Datum:Temp:Abs-Feuchte:Windchill:Wind:
Aussen-T/F 2126 31-12-2014 04:25:00 2.1 C 5.31 g/m*3 2.1 C 0 km/h
2127 31-12-2014 04:30:00 2.1 C 5.31 g/m*3 2.1 C 0 km/h
2128 31-12-2014 04:35:00 2.2 C 5.35 g/m*3 2.2 C 1.6 km/h
2129 31-12-2014 04:40:00 2.2 C 5.35 g/m*3 2.2 C 0 km/h
2130 31-12-2014 04:45:00 2.2 C 5.35 g/m*3 2.2 C 0 km/h
2131 31-12-2014 04:50:00 2.2 C 5.35 g/m*3 2.2 C 0 km/h
2132 31-12-2014 04:55:00 2.1 C 5.26 g/m*3 2.1 C 1.6 km/h
2133 31-12-2014 05:00:00 2.2 C 5.35 g/m*3 2.2 C 1.6 km/h
2134 31-12-2014 05:05:00 2.2 C 5.35 g/m*3 2.2 C 1.6 km/h
2135 31-12-2014 05:10:00 2.2 C 5.35 g/m*3 2.2 C 1.6 km/h
2136 31-12-2014 05:15:00 2.2 C 5.29 g/m*3 2.2 C 3.2 km/h
2137 31-12-2014 05:20:00 2.3 C 5.33 g/m*3 2.3 C 3.2 km/h
2138 31-12-2014 05:25:00 2.3 C 5.33 g/m*3 2.3 C 4.8 km/h
2139 31-12-2014 05:30:00 2.3 C 5.33 g/m*3 2.3 C 1.6 km/h
2140 31-12-2014 05:35:00 2.3 C 5.33 g/m*3 2.3 C 1.6 km/h
2141 31-12-2014 05:40:00 2.3 C 5.33 g/m*3 2.3 C 1.6 km/h
2142 31-12-2014 05:45:00 2.3 C 5.33 g/m*3 2.3 C 1.6 km/h
2143 31-12-2014 05:50:00 2.3 C 5.33 g/m*3 2.3 C 0 km/h
2144 31-12-2014 05:55:00 2.3 C 5.33 g/m*3 2.3 C 0 km/h
2145 31-12-2014 06:00:00 2.3 C 5.33 g/m*3 2.3 C 3.2 km/h
2146 31-12-2014 06:05:00 2.3 C 5.33 g/m*3 2.3 C 0 km/h
2147 31-12-2014 06:10:00 2.3 C 5.33 g/m*3 2.3 C 0 km/h
2148 31-12-2014 06:15:00 2.3 C 5.33 g/m*3 2.3 C 0 km/h
2149 31-12-2014 06:20:00 2.3 C 5.33 g/m*3 2.3 C 3.2 km/h
2150 31-12-2014 06:25:00 2.3 C 5.33 g/m*3 2.3 C 1.6 km/h
Sensor: Nr:Datum:Temp:Abs-Feuchte:Windchill:Wind:
Aussen-T/F 2151 31-12-2014 06:30:00 2.2 C 5.29 g/m*3 2.2 C 1.6 km/h
2152 31-12-2014 06:35:00 2.2 C 5.29 g/m*3 2.2 C 0 km/h
2153 31-12-2014 06:40:00 2.2 C 5.29 g/m*3 2.2 C 1.6 km/h
2154 31-12-2014 06:45:00 2.3 C 5.33 g/m*3 2.3 C 3.2 km/h
2155 31-12-2014 06:50:00 2.3 C 5.33 g/m*3 2.3 C 3.2 km/h
2156 31-12-2014 06:55:00 2.3 C 5.33 g/m*3 2.3 C 1.6 km/h
2157 31-12-2014 07:00:00 2.3 C 5.33 g/m*3 2.3 C 3.2 km/h
2158 31-12-2014 07:05:00 2.4 C 5.37 g/m*3 2.4 C 4.8 km/h
2159 31-12-2014 07:10:00 2.4 C 5.37 g/m*3 2.4 C 3.2 km/h
2160 31-12-2014 07:15:00 2.4 C 5.37 g/m*3 2.4 C 4.8 km/h
2161 31-12-2014 07:20:00 2.5 C 5.4 g/m*3 2.5 C 1.6 km/h
2162 31-12-2014 07:25:00 2.5 C 5.35 g/m*3 2.5 C 4.8 km/h
2163 31-12-2014 07:30:00 2.6 C 5.44 g/m*3 2.6 C 3.2 km/h
2164 31-12-2014 07:35:00 2.6 C 5.38 g/m*3 2.6 C 3.2 km/h
2165 31-12-2014 07:40:00 2.6 C 5.38 g/m*3 2.6 C 3.2 km/h
2166 31-12-2014 07:45:00 2.6 C 5.38 g/m*3 2.6 C 0 km/h
2167 31-12-2014 07:50:00 2.5 C 5.35 g/m*3 2.5 C 3.2 km/h
2168 31-12-2014 07:55:00 2.4 C 5.37 g/m*3 2.4 C 1.6 km/h
2169 31-12-2014 08:00:00 2.5 C 5.35 g/m*3 2.5 C 3.2 km/h
2170 31-12-2014 08:05:00 2.4 C 5.37 g/m*3 2.4 C 3.2 km/h
2171 31-12-2014 08:10:00 2.4 C 5.37 g/m*3 2.4 C 3.2 km/h
2172 31-12-2014 08:15:00 2.5 C 5.4 g/m*3 2.5 C 4.8 km/h
2173 31-12-2014 08:20:00 2.6 C 5.44 g/m*3 0.82 C 6.4 km/h
2174 31-12-2014 08:25:00 2.6 C 5.44 g/m*3 0.82 C 6.4 km/h
2175 31-12-2014 08:30:00 2.6 C 5.44 g/m*3 2.6 C 1.6 km/h
Sensor: Nr:Datum:Temp:Abs-Feuchte:Windchill:Wind:
Aussen-T/F 2176 31-12-2014 08:35:00 2.6 C 5.44 g/m*3 2.6 C 3.2 km/h
2177 31-12-2014 08:40:00 2.6 C 5.38 g/m*3 0.29 C 8.1 km/h
2178 31-12-2014 08:45:00 2.7 C 5.42 g/m*3 0.4 C 8.1 km/h
2179 31-12-2014 08:50:00 2.7 C 5.42 g/m*3 2.7 C 4.8 km/h
2180 31-12-2014 08:55:00 2.6 C 5.38 g/m*3 2.6 C 3.2 km/h
2181 31-12-2014 09:00:00 2.7 C 5.42 g/m*3 0.4 C 8.1 km/h
2182 31-12-2014 09:05:00 2.7 C 5.42 g/m*3 0.4 C 8.1 km/h
2183 31-12-2014 09:10:00 2.7 C 5.42 g/m*3 0.94 C 6.4 km/h
2184 31-12-2014 09:15:00 2.7 C 5.42 g/m*3 0.4 C 8.1 km/h
2185 31-12-2014 09:20:00 2.7 C 5.42 g/m*3 -0.38 C 11.3 km/h
2186 31-12-2014 09:25:00 2.8 C 5.4 g/m*3 0.52 C 8.1 km/h
2187 31-12-2014 09:30:00 2.8 C 5.4 g/m*3 0.52 C 8.1 km/h
2188 31-12-2014 09:35:00 2.8 C 5.4 g/m*3 0.52 C 8.1 km/h
2189 31-12-2014 09:40:00 2.8 C 5.4 g/m*3 0.1 C 9.7 km/h
2190 31-12-2014 09:45:00 2.8 C 5.4 g/m*3 1.05 C 6.4 km/h
2191 31-12-2014 09:50:00 2.8 C 5.4 g/m*3 0.1 C 9.7 km/h
2192 31-12-2014 09:55:00 2.9 C 5.43 g/m*3 0.64 C 8.1 km/h
2193 31-12-2014 10:00:00 2.9 C 5.43 g/m*3 1.17 C 6.4 km/h
2194 31-12-2014 10:05:00 2.9 C 5.43 g/m*3 1.17 C 6.4 km/h
2195 31-12-2014 10:10:00 2.9 C 5.43 g/m*3 1.17 C 6.4 km/h
2196 31-12-2014 10:15:00 3 C 5.47 g/m*3 0.34 C 9.7 km/h
2197 31-12-2014 10:20:00 3 C 5.47 g/m*3 0.76 C 8.1 km/h
2198 31-12-2014 10:25:00 3.1 C 5.51 g/m*3 0.46 C 9.7 km/h
2199 31-12-2014 10:30:00 3.1 C 5.51 g/m*3 0.1 C 11.3 km/h
2200 31-12-2014 10:35:00 3.1 C 5.45 g/m*3 0.87 C 8.1 km/h
Sensor: Nr:Datum:Temp:Abs-Feuchte:Windchill:Wind:
Aussen-T/F 2201 31-12-2014 10:40:00 3.2 C 5.48 g/m*3 0.22 C 11.3 km/h
2202 31-12-2014 10:45:00 3.2 C 5.48 g/m*3 0.22 C 11.3 km/h
2203 31-12-2014 10:50:00 3.2 C 5.48 g/m*3 0.99 C 8.1 km/h
2204 31-12-2014 10:55:00 3.3 C 5.52 g/m*3 0.34 C 11.3 km/h
2205 31-12-2014 11:00:00 3.2 C 5.48 g/m*3 0.99 C 8.1 km/h
2206 31-12-2014 11:05:00 3.2 C 5.48 g/m*3 0.58 C 9.7 km/h
2207 31-12-2014 11:10:00 3.2 C 5.48 g/m*3 0.58 C 9.7 km/h
2208 31-12-2014 11:15:00 3.3 C 5.52 g/m*3 1.11 C 8.1 km/h
2209 31-12-2014 11:20:00 3.3 C 5.52 g/m*3 1.11 C 8.1 km/h
2210 31-12-2014 11:25:00 3.3 C 5.52 g/m*3 1.63 C 6.4 km/h
2211 31-12-2014 11:30:00 3.4 C 5.56 g/m*3 1.23 C 8.1 km/h
2212 31-12-2014 11:35:00 3.4 C 5.56 g/m*3 1.75 C 6.4 km/h
2213 31-12-2014 11:40:00 3.5 C 5.6 g/m*3 1.34 C 8.1 km/h
2214 31-12-2014 11:45:00 3.6 C 5.63 g/m*3 1.46 C 8.1 km/h
2215 31-12-2014 11:50:00 3.6 C 5.63 g/m*3 3.6 C 4.8 km/h
2216 31-12-2014 11:55:00 3.6 C 5.63 g/m*3 3.6 C 4.8 km/h
2217 31-12-2014 12:00:00 3.6 C 5.63 g/m*3 3.6 C 4.8 km/h
2218 31-12-2014 17:10:00 3.3 C 6.07 g/m*3 3.3 C 1.6 km/h
2219 31-12-2014 17:15:00 3.2 C 6.03 g/m*3 3.2 C 3.2 km/h
2220 31-12-2014 17:20:00 3.2 C 6.03 g/m*3 3.2 C 1.6 km/h
2221 31-12-2014 17:25:00 3.2 C 6.03 g/m*3 3.2 C 3.2 km/h
2222 31-12-2014 17:30:00 3.2 C 6.03 g/m*3 0.58 C 9.7 km/h
2223 31-12-2014 17:35:00 3.2 C 6.03 g/m*3 3.2 C 3.2 km/h
2224 31-12-2014 17:40:00 3.2 C 6.03 g/m*3 3.2 C 3.2 km/h
2225 01-01-2015 00:15:00 2.6 C 5.79 g/m*3 2.6 C 0 km/h
Sensor: Nr:Datum:Temp:Abs-Feuchte:Windchill:Wind:
Aussen-T/F 2226 01-01-2015 00:20:00 2.6 C 5.79 g/m*3 2.6 C 0 km/h
2227 01-01-2015 00:25:00 2.6 C 5.79 g/m*3 2.6 C 0 km/h
2228 01-01-2015 00:30:00 2.6 C 5.79 g/m*3 2.6 C 1.6 km/h
2229 01-01-2015 00:35:00 2.7 C 5.59 g/m*3 2.7 C 0 km/h
2230 01-01-2015 00:40:00 2.7 C 5.59 g/m*3 2.7 C 0 km/h
2231 01-01-2015 00:45:00 2.7 C 5.59 g/m*3 2.7 C 1.6 km/h
2232 01-01-2015 00:50:00 2.7 C 5.59 g/m*3 2.7 C 0 km/h
2233 01-01-2015 00:55:00 2.7 C 5.59 g/m*3 2.7 C 0 km/h
2234 01-01-2015 01:00:00 2.7 C 5.59 g/m*3 2.7 C 1.6 km/h
2235 01-01-2015 01:05:00 2.8 C 5.63 g/m*3 2.8 C 1.6 km/h
2236 01-01-2015 01:10:00 2.8 C 5.63 g/m*3 2.8 C 0 km/h
2237 01-01-2015 01:15:00 2.8 C 5.63 g/m*3 2.8 C 0 km/h
2238 01-01-2015 01:20:00 2.8 C 5.63 g/m*3 2.8 C 1.6 km/h
2239 01-01-2015 01:25:00 2.9 C 5.67 g/m*3 2.9 C 0 km/h
2240 01-01-2015 01:30:00 2.9 C 5.67 g/m*3 2.9 C 1.6 km/h
2241 01-01-2015 01:35:00 2.9 C 5.67 g/m*3 2.9 C 0 km/h
2242 01-01-2015 01:40:00 2.9 C 5.67 g/m*3 2.9 C 0 km/h
2243 01-01-2015 01:45:00 2.9 C 5.67 g/m*3 2.9 C 1.6 km/h
2244 01-01-2015 01:50:00 2.9 C 5.67 g/m*3 2.9 C 0 km/h
2245 01-01-2015 01:55:00 2.9 C 5.67 g/m*3 2.9 C 0 km/h
2246 01-01-2015 02:00:00 2.8 C 5.63 g/m*3 2.8 C 0 km/h
2247 01-01-2015 02:05:00 2.8 C 5.63 g/m*3 2.8 C 0 km/h
2248 01-01-2015 02:10:00 2.8 C 5.63 g/m*3 2.8 C 0 km/h
2249 01-01-2015 02:15:00 2.8 C 5.63 g/m*3 2.8 C 0 km/h
2250 01-01-2015 02:20:00 2.8 C 5.63 g/m*3 2.8 C 0 km/h
Sensor: Nr:Datum:Temp:Abs-Feuchte:Windchill:Wind:
Aussen-T/F 2251 01-01-2015 02:25:00 2.8 C 5.63 g/m*3 2.8 C 0 km/h
2252 01-01-2015 02:30:00 2.8 C 5.63 g/m*3 2.8 C 0 km/h
2253 01-01-2015 02:35:00 2.8 C 5.63 g/m*3 2.8 C 0 km/h
2254 01-01-2015 02:40:00 2.7 C 5.59 g/m*3 2.7 C 0 km/h
2255 01-01-2015 02:45:00 2.7 C 5.59 g/m*3 2.7 C 0 km/h
2256 01-01-2015 02:50:00 2.7 C 5.59 g/m*3 2.7 C 0 km/h
2257 01-01-2015 02:55:00 2.6 C 5.56 g/m*3 2.6 C 0 km/h
2258 01-01-2015 03:00:00 2.5 C 5.52 g/m*3 2.5 C 0 km/h
2259 01-01-2015 03:05:00 2.4 C 5.42 g/m*3 2.4 C 0 km/h
2260 01-01-2015 03:10:00 2.2 C 5.35 g/m*3 2.2 C 3.2 km/h
2261 01-01-2015 03:15:00 1.9 C 5.24 g/m*3 1.9 C 3.2 km/h
2262 01-01-2015 03:20:00 1.8 C 5.21 g/m*3 1.8 C 3.2 km/h
2263 01-01-2015 03:25:00 1.8 C 5.26 g/m*3 1.8 C 3.2 km/h
2264 01-01-2015 03:30:00 1.7 C 5.23 g/m*3 1.7 C 0 km/h
2265 01-01-2015 03:35:00 1.6 C 5.19 g/m*3 1.6 C 1.6 km/h
2266 01-01-2015 03:40:00 1.6 C 5.19 g/m*3 1.6 C 1.6 km/h
2267 01-01-2015 03:45:00 1.4 C 5.12 g/m*3 1.4 C 3.2 km/h
2268 01-01-2015 03:50:00 1.4 C 5.12 g/m*3 1.4 C 3.2 km/h
2269 01-01-2015 03:55:00 1.3 C 5.09 g/m*3 1.3 C 0 km/h
2270 01-01-2015 04:00:00 1.3 C 5.09 g/m*3 1.3 C 1.6 km/h
2271 01-01-2015 04:05:00 1.3 C 5.09 g/m*3 1.3 C 0 km/h
2272 01-01-2015 04:10:00 1.2 C 5.05 g/m*3 1.2 C 3.2 km/h
2273 01-01-2015 04:15:00 1.1 C 5.02 g/m*3 1.1 C 1.6 km/h
2274 01-01-2015 04:20:00 1 C 4.98 g/m*3 1 C 1.6 km/h
2275 01-01-2015 04:25:00 0.9 C 4.95 g/m*3 0.9 C 4.8 km/h
Sensor: Nr:Datum:Temp:Abs-Feuchte:Windchill:Wind:
Aussen-T/F 2276 01-01-2015 04:30:00 0.9 C 4.95 g/m*3 0.9 C 4.8 km/h
2277 01-01-2015 04:35:00 0.9 C 4.95 g/m*3 0.9 C 1.6 km/h
2278 01-01-2015 04:40:00 0.9 C 5 g/m*3 0.9 C 3.2 km/h
2279 01-01-2015 04:45:00 0.9 C 5 g/m*3 0.9 C 1.6 km/h
2280 01-01-2015 04:50:00 0.9 C 5 g/m*3 0.9 C 3.2 km/h
2281 01-01-2015 04:55:00 1 C 5.03 g/m*3 1 C 1.6 km/h
2282 01-01-2015 05:00:00 1.1 C 5.07 g/m*3 1.1 C 1.6 km/h
2283 01-01-2015 05:05:00 1.2 C 5.1 g/m*3 1.2 C 3.2 km/h
2284 01-01-2015 05:10:00 1.3 C 5.14 g/m*3 1.3 C 0 km/h
2285 01-01-2015 05:15:00 1.4 C 5.17 g/m*3 1.4 C 1.6 km/h
2286 01-01-2015 05:20:00 1.5 C 5.21 g/m*3 1.5 C 0 km/h
2287 01-01-2015 05:25:00 1.5 C 5.21 g/m*3 1.5 C 0 km/h
2288 01-01-2015 05:30:00 1.5 C 5.21 g/m*3 1.5 C 1.6 km/h
2289 01-01-2015 05:35:00 1.6 C 5.25 g/m*3 1.6 C 0 km/h
2290 01-01-2015 05:40:00 1.7 C 5.28 g/m*3 1.7 C 3.2 km/h
2291 01-01-2015 05:45:00 1.7 C 5.28 g/m*3 1.7 C 0 km/h
2292 01-01-2015 05:50:00 1.8 C 5.32 g/m*3 1.8 C 4.8 km/h
2293 01-01-2015 05:55:00 1.8 C 5.32 g/m*3 1.8 C 3.2 km/h
2294 01-01-2015 06:00:00 1.8 C 5.32 g/m*3 -0.1 C 6.4 km/h
2295 01-01-2015 06:05:00 1.8 C 5.32 g/m*3 -0.1 C 6.4 km/h
2296 01-01-2015 06:10:00 1.8 C 5.32 g/m*3 1.8 C 4.8 km/h
2297 01-01-2015 06:15:00 1.8 C 5.32 g/m*3 1.8 C 3.2 km/h
2298 01-01-2015 06:20:00 1.8 C 5.32 g/m*3 1.8 C 4.8 km/h
2299 01-01-2015 06:25:00 1.8 C 5.32 g/m*3 1.8 C 3.2 km/h
2300 01-01-2015 06:30:00 1.8 C 5.32 g/m*3 1.8 C 4.8 km/h
Sensor: Nr:Datum:Temp:Abs-Feuchte:Windchill:Wind:
Aussen-T/F 2301 01-01-2015 06:35:00 1.8 C 5.32 g/m*3 -0.65 C 8.1 km/h
2302 01-01-2015 06:40:00 1.8 C 5.32 g/m*3 1.8 C 4.8 km/h
2303 01-01-2015 06:45:00 1.8 C 5.32 g/m*3 -0.1 C 6.4 km/h
2304 01-01-2015 06:50:00 1.8 C 5.32 g/m*3 -0.65 C 8.1 km/h
2305 01-01-2015 06:55:00 1.8 C 5.32 g/m*3 1.8 C 4.8 km/h
2306 01-01-2015 07:00:00 1.8 C 5.32 g/m*3 -0.1 C 6.4 km/h
2307 01-01-2015 07:05:00 1.8 C 5.32 g/m*3 1.8 C 1.6 km/h
2308 01-01-2015 07:10:00 1.8 C 5.32 g/m*3 1.8 C 3.2 km/h
2309 01-01-2015 07:15:00 1.8 C 5.32 g/m*3 1.8 C 3.2 km/h
2310 01-01-2015 07:20:00 1.7 C 5.28 g/m*3 1.7 C 0 km/h
2311 01-01-2015 07:25:00 1.7 C 5.28 g/m*3 1.7 C 3.2 km/h
2312 01-01-2015 07:30:00 1.7 C 5.28 g/m*3 1.7 C 4.8 km/h
2313 01-01-2015 07:35:00 1.7 C 5.28 g/m*3 1.7 C 1.6 km/h
2314 01-01-2015 07:40:00 1.7 C 5.28 g/m*3 1.7 C 4.8 km/h
2315 01-01-2015 07:45:00 1.6 C 5.25 g/m*3 1.6 C 3.2 km/h
2316 01-01-2015 07:50:00 1.6 C 5.25 g/m*3 1.6 C 0 km/h
2317 01-01-2015 07:55:00 1.6 C 5.25 g/m*3 1.6 C 3.2 km/h
2318 01-01-2015 08:00:00 1.6 C 5.25 g/m*3 1.6 C 3.2 km/h
2319 01-01-2015 08:05:00 1.6 C 5.25 g/m*3 1.6 C 1.6 km/h
2320 01-01-2015 08:10:00 1.6 C 5.25 g/m*3 1.6 C 3.2 km/h
2321 01-01-2015 08:15:00 1.6 C 5.25 g/m*3 1.6 C 1.6 km/h
2322 01-01-2015 08:20:00 1.6 C 5.25 g/m*3 1.6 C 0 km/h
2323 01-01-2015 08:25:00 1.5 C 5.21 g/m*3 1.5 C 1.6 km/h
2324 01-01-2015 08:30:00 1.5 C 5.21 g/m*3 1.5 C 0 km/h
2325 01-01-2015 08:35:00 1.5 C 5.21 g/m*3 1.5 C 0 km/h
Sensor: Nr:Datum:Temp:Abs-Feuchte:Windchill:Wind:
Aussen-T/F 2326 01-01-2015 16:40:00 1.8 C 5.48 g/m*3 1.8 C 1.6 km/h
2327 01-01-2015 16:45:00 1.8 C 5.48 g/m*3 1.8 C 3.2 km/h
2328 01-01-2015 18:30:00 1.9 C 5.24 g/m*3 1.9 C 3.2 km/h
2329 01-01-2015 18:35:00 1.8 C 5.15 g/m*3 1.8 C 1.6 km/h
2330 01-01-2015 18:40:00 1.7 C 5.17 g/m*3 1.7 C 3.2 km/h
2331 01-01-2015 18:45:00 1.6 C 5.14 g/m*3 1.6 C 0 km/h
2332 01-01-2015 18:50:00 1.6 C 5.14 g/m*3 1.6 C 0 km/h
2333 01-01-2015 18:55:00 1.5 C 5.1 g/m*3 1.5 C 0 km/h
2334 01-01-2015 19:00:00 1.3 C 5.03 g/m*3 1.3 C 0 km/h
2335 01-01-2015 19:05:00 1.2 C 5 g/m*3 1.2 C 1.6 km/h
2336 01-01-2015 19:10:00 1.2 C 5 g/m*3 1.2 C 3.2 km/h
2337 01-01-2015 19:15:00 1.2 C 5.05 g/m*3 1.2 C 3.2 km/h
2338 01-01-2015 19:20:00 1.1 C 4.96 g/m*3 1.1 C 1.6 km/h
2339 01-01-2015 19:25:00 1.1 C 4.96 g/m*3 1.1 C 3.2 km/h
2340 01-01-2015 19:30:00 1.1 C 4.96 g/m*3 1.1 C 1.6 km/h
2341 02-01-2015 03:25:00 2.2 C 4.96 g/m*3 -0.99 C 11.3 km/h
2342 02-01-2015 03:30:00 2.2 C 4.96 g/m*3 2.2 C 1.6 km/h
2343 02-01-2015 03:35:00 2.2 C 4.96 g/m*3 -0.61 C 9.7 km/h
2344 02-01-2015 05:05:00 3.2 C 4.94 g/m*3 -0.1 C 12.9 km/h
2345 02-01-2015 05:10:00 3.2 C 4.94 g/m*3 0.22 C 11.3 km/h
2346 02-01-2015 05:15:00 3.2 C 4.94 g/m*3 -1.32 C 20.9 km/h
2347 02-01-2015 05:20:00 3.2 C 4.94 g/m*3 0.22 C 11.3 km/h
2348 02-01-2015 05:25:00 3.2 C 4.94 g/m*3 0.22 C 11.3 km/h
2349 02-01-2015 05:30:00 3.2 C 4.94 g/m*3 -0.39 C 14.5 km/h
2350 02-01-2015 06:25:00 3.6 C 4.95 g/m*3 -0.15 C 16.1 km/h
Sensor: Nr:Datum:Temp:Abs-Feuchte:Windchill:Wind:
Aussen-T/F 2351 02-01-2015 06:30:00 3.4 C 4.95 g/m*3 -0.14 C 14.5 km/h
2352 02-01-2015 06:35:00 3.3 C 4.97 g/m*3 -1.57 C 24.1 km/h
2353 02-01-2015 06:40:00 3.3 C 4.97 g/m*3 -0.76 C 17.7 km/h
2354 02-01-2015 06:45:00 3.3 C 5.04 g/m*3 -1.19 C 20.9 km/h
2355 02-01-2015 06:50:00 3.2 C 5 g/m*3 -1.11 C 19.3 km/h
2356 02-01-2015 06:55:00 3.2 C 5 g/m*3 -1.87 C 25.7 km/h
2357 02-01-2015 07:00:00 3.3 C 5.04 g/m*3 -1.74 C 25.7 km/h
2358 02-01-2015 07:05:00 3.2 C 5 g/m*3 -1.51 C 22.5 km/h
2359 02-01-2015 07:10:00 3.2 C 5 g/m*3 -0.89 C 17.7 km/h
2360 02-01-2015 07:15:00 3.2 C 5.06 g/m*3 0.22 C 11.3 km/h
2361 02-01-2015 07:20:00 3.1 C 5.03 g/m*3 -1.64 C 22.5 km/h
2362 02-01-2015 07:25:00 3.1 C 5.09 g/m*3 -1.45 C 20.9 km/h
2363 02-01-2015 07:30:00 3.1 C 5.09 g/m*3 -2.18 C 27.4 km/h
2364 02-01-2015 07:35:00 3 C 5.05 g/m*3 -0.9 C 16.1 km/h
2365 02-01-2015 07:40:00 3 C 5.05 g/m*3 -0.34 C 12.9 km/h
2366 02-01-2015 07:45:00 2.9 C 5.08 g/m*3 -0.76 C 14.5 km/h
2367 02-01-2015 07:50:00 2.9 C 5.08 g/m*3 -0.46 C 12.9 km/h
2368 02-01-2015 07:55:00 2.9 C 5.08 g/m*3 -0.76 C 14.5 km/h
2369 02-01-2015 08:00:00 2.8 C 5.1 g/m*3 -2.02 C 22.5 km/h
2370 02-01-2015 08:05:00 2.8 C 5.1 g/m*3 0.52 C 8.1 km/h
2371 02-01-2015 08:10:00 2.8 C 5.1 g/m*3 -0.26 C 11.3 km/h
2372 02-01-2015 08:15:00 2.8 C 5.1 g/m*3 -1.61 C 19.3 km/h
2373 02-01-2015 08:20:00 2.7 C 5.13 g/m*3 -2.34 C 24.1 km/h
2374 02-01-2015 08:25:00 2.8 C 5.16 g/m*3 -1.61 C 19.3 km/h
2375 02-01-2015 08:30:00 2.8 C 5.16 g/m*3 -0.88 C 14.5 km/h
Sensor: Nr:Datum:Temp:Abs-Feuchte:Windchill:Wind:
Aussen-T/F 2376 02-01-2015 08:35:00 2.8 C 5.16 g/m*3 -1.39 C 17.7 km/h
2377 02-01-2015 08:40:00 2.7 C 5.13 g/m*3 -1.95 C 20.9 km/h
2378 02-01-2015 08:45:00 2.8 C 5.16 g/m*3 -2.57 C 27.4 km/h
2379 02-01-2015 08:50:00 2.8 C 5.22 g/m*3 -1.39 C 17.7 km/h
2380 02-01-2015 08:55:00 2.7 C 5.19 g/m*3 -1.74 C 19.3 km/h
2381 02-01-2015 09:00:00 2.7 C 5.19 g/m*3 -1.51 C 17.7 km/h
2382 02-01-2015 09:05:00 2.7 C 5.24 g/m*3 -1.27 C 16.1 km/h
2383 02-01-2015 09:10:00 2.7 C 5.24 g/m*3 -2.15 C 22.5 km/h
2384 02-01-2015 09:15:00 2.7 C 5.24 g/m*3 -2.15 C 22.5 km/h
2385 02-01-2015 09:20:00 2.7 C 5.24 g/m*3 -1.95 C 20.9 km/h
2386 02-01-2015 09:25:00 2.7 C 5.24 g/m*3 -2.34 C 24.1 km/h
2387 02-01-2015 09:30:00 2.7 C 5.3 g/m*3 -2.34 C 24.1 km/h
2388 02-01-2015 09:35:00 2.7 C 5.3 g/m*3 -1.27 C 16.1 km/h
2389 02-01-2015 09:40:00 2.7 C 5.24 g/m*3 -2.34 C 24.1 km/h
2390 02-01-2015 09:45:00 2.8 C 5.28 g/m*3 -2.39 C 25.7 km/h
2391 02-01-2015 09:50:00 2.8 C 5.28 g/m*3 -1.39 C 17.7 km/h
2392 02-01-2015 09:55:00 2.8 C 5.28 g/m*3 -1.83 C 20.9 km/h
2393 02-01-2015 10:00:00 2.9 C 5.32 g/m*3 -1.02 C 16.1 km/h
2394 02-01-2015 10:05:00 2.9 C 5.32 g/m*3 -2.26 C 25.7 km/h
2395 02-01-2015 10:10:00 3 C 5.35 g/m*3 -1.77 C 22.5 km/h
2396 02-01-2015 10:15:00 3.1 C 5.39 g/m*3 -1.83 C 24.1 km/h
2397 02-01-2015 10:20:00 3.1 C 5.39 g/m*3 -1.45 C 20.9 km/h
2398 02-01-2015 10:25:00 3.2 C 5.42 g/m*3 -1.7 C 24.1 km/h
2399 02-01-2015 10:30:00 3.2 C 5.42 g/m*3 -0.89 C 17.7 km/h
2400 02-01-2015 10:35:00 3.3 C 5.4 g/m*3 -0.76 C 17.7 km/h
Sensor: Nr:Datum:Temp:Abs-Feuchte:Windchill:Wind:
Aussen-T/F 2401 02-01-2015 10:40:00 3.3 C 5.4 g/m*3 -1.19 C 20.9 km/h
2402 02-01-2015 10:45:00 3.3 C 5.4 g/m*3 -0.99 C 19.3 km/h
2403 02-01-2015 10:50:00 3.3 C 5.4 g/m*3 -0.76 C 17.7 km/h
2404 02-01-2015 10:55:00 3.4 C 5.44 g/m*3 -1.44 C 24.1 km/h
2405 02-01-2015 11:00:00 3.4 C 5.44 g/m*3 -0.64 C 17.7 km/h
2406 02-01-2015 11:05:00 3.5 C 5.47 g/m*3 -0.28 C 16.1 km/h
2407 02-01-2015 11:10:00 3.5 C 5.47 g/m*3 -1.49 C 25.7 km/h
2408 02-01-2015 11:15:00 3.5 C 5.47 g/m*3 0.58 C 11.3 km/h
2409 02-01-2015 11:20:00 3.6 C 5.51 g/m*3 -1.01 C 22.5 km/h
2410 02-01-2015 11:25:00 3.6 C 5.51 g/m*3 -1.19 C 24.1 km/h
2411 02-01-2015 11:30:00 3.7 C 5.55 g/m*3 -0.88 C 22.5 km/h
2412 02-01-2015 11:35:00 3.7 C 5.55 g/m*3 -1.23 C 25.7 km/h
2413 02-01-2015 11:40:00 3.7 C 5.55 g/m*3 -0.69 C 20.9 km/h
2414 02-01-2015 11:45:00 3.8 C 5.58 g/m*3 -0.75 C 22.5 km/h
2415 02-01-2015 11:50:00 3.8 C 5.58 g/m*3 -0.56 C 20.9 km/h
2416 02-01-2015 11:55:00 3.9 C 5.62 g/m*3 -0.97 C 25.7 km/h
2417 02-01-2015 12:00:00 3.9 C 5.62 g/m*3 -0.23 C 19.3 km/h
2418 02-01-2015 12:05:00 4.1 C 5.7 g/m*3 0.47 C 16.1 km/h
2419 02-01-2015 12:10:00 4.1 C 5.7 g/m*3 0.47 C 16.1 km/h
2420 02-01-2015 12:15:00 4.1 C 5.7 g/m*3 0.02 C 19.3 km/h
2421 02-01-2015 12:20:00 4.2 C 5.73 g/m*3 0.15 C 19.3 km/h
2422 02-01-2015 12:25:00 4.2 C 5.73 g/m*3 0.36 C 17.7 km/h
2423 02-01-2015 12:30:00 4.2 C 5.73 g/m*3 0.36 C 17.7 km/h
2424 02-01-2015 12:35:00 4.3 C 5.77 g/m*3 0.49 C 17.7 km/h
2425 02-01-2015 12:40:00 4.3 C 5.77 g/m*3 -0.11 C 22.5 km/h
Sensor: Nr:Datum:Temp:Abs-Feuchte:Windchill:Wind:
Aussen-T/F 2426 02-01-2015 12:45:00 4.4 C 5.81 g/m*3 0.61 C 17.7 km/h
2427 02-01-2015 12:50:00 4.5 C 5.85 g/m*3 0.74 C 17.7 km/h
2428 02-01-2015 12:55:00 4.6 C 5.89 g/m*3 0.86 C 17.7 km/h
2429 02-01-2015 13:00:00 4.6 C 5.89 g/m*3 0.45 C 20.9 km/h
2430 02-01-2015 13:05:00 4.5 C 5.85 g/m*3 0.33 C 20.9 km/h
2431 02-01-2015 13:10:00 4.5 C 5.85 g/m*3 0.96 C 16.1 km/h
2432 02-01-2015 13:15:00 4.6 C 5.89 g/m*3 0.86 C 17.7 km/h
2433 02-01-2015 13:20:00 4.6 C 5.96 g/m*3 0.86 C 17.7 km/h
2434 02-01-2015 13:25:00 4.7 C 5.93 g/m*3 0.22 C 24.1 km/h
2435 02-01-2015 13:30:00 4.7 C 5.93 g/m*3 0.78 C 19.3 km/h
2436 02-01-2015 13:35:00 4.6 C 5.89 g/m*3 0.65 C 19.3 km/h
2437 02-01-2015 13:40:00 4.6 C 5.96 g/m*3 1.34 C 14.5 km/h
2438 02-01-2015 13:45:00 4.6 C 5.96 g/m*3 0.45 C 20.9 km/h
2439 02-01-2015 13:50:00 4.6 C 5.96 g/m*3 0.65 C 19.3 km/h
2440 02-01-2015 13:55:00 4.6 C 5.96 g/m*3 1.09 C 16.1 km/h
2441 02-01-2015 14:00:00 4.5 C 5.92 g/m*3 1.21 C 14.5 km/h
2442 02-01-2015 14:05:00 4.5 C 5.92 g/m*3 1.79 C 11.3 km/h
2443 02-01-2015 14:10:00 4.5 C 5.92 g/m*3 0.96 C 16.1 km/h
2444 02-01-2015 14:15:00 4.5 C 5.92 g/m*3 0.14 C 22.5 km/h
2445 02-01-2015 14:20:00 4.5 C 5.98 g/m*3 1.79 C 11.3 km/h
2446 02-01-2015 14:25:00 4.5 C 5.98 g/m*3 0.52 C 19.3 km/h
2447 02-01-2015 14:30:00 4.6 C 6.02 g/m*3 1.09 C 16.1 km/h
2448 02-01-2015 14:35:00 4.6 C 6.02 g/m*3 0.1 C 24.1 km/h
2449 02-01-2015 14:40:00 4.6 C 6.02 g/m*3 0.45 C 20.9 km/h
2450 02-01-2015 14:45:00 4.6 C 6.02 g/m*3 1.09 C 16.1 km/h
Sensor: Nr:Datum:Temp:Abs-Feuchte:Windchill:Wind:
Aussen-T/F 2451 02-01-2015 14:50:00 4.6 C 6.02 g/m*3 1.34 C 14.5 km/h
2452 02-01-2015 14:55:00 4.5 C 5.98 g/m*3 1.21 C 14.5 km/h
2453 02-01-2015 15:00:00 4.5 C 6.05 g/m*3 0.96 C 16.1 km/h
2454 02-01-2015 15:05:00 4.4 C 6.07 g/m*3 1.09 C 14.5 km/h
2455 02-01-2015 15:10:00 4.4 C 6.07 g/m*3 0.84 C 16.1 km/h
2456 02-01-2015 15:15:00 4.4 C 6.07 g/m*3 1.36 C 12.9 km/h
2457 02-01-2015 15:20:00 4.4 C 6.07 g/m*3 2.01 C 9.7 km/h
2458 02-01-2015 15:25:00 4.4 C 6.14 g/m*3 0.84 C 16.1 km/h
2459 02-01-2015 15:30:00 4.4 C 6.14 g/m*3 1.09 C 14.5 km/h
2460 02-01-2015 15:35:00 4.4 C 6.07 g/m*3 1.67 C 11.3 km/h
2461 02-01-2015 15:40:00 4.4 C 6.14 g/m*3 0.61 C 17.7 km/h
2462 02-01-2015 15:45:00 4.4 C 6.14 g/m*3 1.09 C 14.5 km/h
2463 02-01-2015 15:50:00 4.4 C 6.14 g/m*3 2.01 C 9.7 km/h
2464 02-01-2015 15:55:00 4.4 C 6.14 g/m*3 1.67 C 11.3 km/h
2465 02-01-2015 16:00:00 4.3 C 6.1 g/m*3 0.97 C 14.5 km/h
2466 02-01-2015 16:05:00 4.3 C 6.1 g/m*3 1.24 C 12.9 km/h
2467 02-01-2015 16:10:00 4.3 C 6.1 g/m*3 1.89 C 9.7 km/h
2468 02-01-2015 16:15:00 4.3 C 6.1 g/m*3 2.29 C 8.1 km/h
2469 02-01-2015 16:20:00 4.3 C 6.1 g/m*3 0.97 C 14.5 km/h
2470 02-01-2015 16:25:00 4.3 C 6.1 g/m*3 0.72 C 16.1 km/h
2471 02-01-2015 16:30:00 4.4 C 6.14 g/m*3 0.2 C 20.9 km/h
2472 02-01-2015 16:35:00 4.5 C 6.18 g/m*3 1.21 C 14.5 km/h
2473 02-01-2015 16:40:00 4.5 C 6.11 g/m*3 0.74 C 17.7 km/h
2474 02-01-2015 16:45:00 4.4 C 6.07 g/m*3 1.36 C 12.9 km/h
2475 02-01-2015 16:50:00 4.4 C 6.07 g/m*3 1.36 C 12.9 km/h
Sensor: Nr:Datum:Temp:Abs-Feuchte:Windchill:Wind:
Aussen-T/F 2476 02-01-2015 16:55:00 4.3 C 6.03 g/m*3 1.24 C 12.9 km/h
2477 02-01-2015 17:00:00 4.3 C 6.1 g/m*3 0.07 C 20.9 km/h
2478 02-01-2015 17:05:00 4.3 C 6.1 g/m*3 0.97 C 14.5 km/h
2479 02-01-2015 17:10:00 4.3 C 6.1 g/m*3 2.29 C 8.1 km/h
2480 02-01-2015 17:15:00 4.3 C 6.1 g/m*3 2.29 C 8.1 km/h
2481 02-01-2015 23:30:00 2.4 C 5.2 g/m*3 2.4 C 3.2 km/h
2482 02-01-2015 23:35:00 2.5 C 5.23 g/m*3 0.71 C 6.4 km/h
2483 02-01-2015 23:40:00 2.6 C 5.27 g/m*3 0.82 C 6.4 km/h
2484 02-01-2015 23:45:00 2.6 C 5.27 g/m*3 2.6 C 4.8 km/h
2485 02-01-2015 23:50:00 2.4 C 5.14 g/m*3 0.59 C 6.4 km/h
2486 02-01-2015 23:55:00 2.4 C 5.14 g/m*3 2.4 C 1.6 km/h
2487 03-01-2015 00:00:00 2.2 C 5.13 g/m*3 2.2 C 1.6 km/h
2488 03-01-2015 00:05:00 2 C 5.06 g/m*3 2 C 1.6 km/h
2489 03-01-2015 00:10:00 1.8 C 5.04 g/m*3 1.8 C 4.8 km/h
2490 03-01-2015 00:15:00 1.8 C 5.04 g/m*3 1.8 C 3.2 km/h
2491 03-01-2015 00:20:00 1.8 C 5.1 g/m*3 1.8 C 3.2 km/h
2492 03-01-2015 00:25:00 1.9 C 5.13 g/m*3 0.01 C 6.4 km/h
2493 03-01-2015 00:30:00 2.1 C 5.2 g/m*3 0.24 C 6.4 km/h
2494 03-01-2015 00:35:00 2.2 C 5.18 g/m*3 0.36 C 6.4 km/h
2495 03-01-2015 00:40:00 2.3 C 5.16 g/m*3 2.3 C 4.8 km/h
2496 03-01-2015 00:45:00 2.5 C 5.23 g/m*3 -0.62 C 11.3 km/h
2497 03-01-2015 00:50:00 2.6 C 5.21 g/m*3 0.82 C 6.4 km/h
2498 03-01-2015 00:55:00 2.5 C 5.17 g/m*3 2.5 C 4.8 km/h
2499 03-01-2015 01:00:00 2.4 C 5.14 g/m*3 2.4 C 3.2 km/h
2500 03-01-2015 01:05:00 2.4 C 5.14 g/m*3 0.59 C 6.4 km/h
Sensor: Nr:Datum:Temp:Abs-Feuchte:Windchill:Wind:
Aussen-T/F 2501 03-01-2015 01:10:00 2.3 C 5.1 g/m*3 2.3 C 4.8 km/h
2502 03-01-2015 01:15:00 2.4 C 5.2 g/m*3 0.59 C 6.4 km/h
2503 03-01-2015 01:20:00 2.5 C 5.17 g/m*3 -0.62 C 11.3 km/h
2504 03-01-2015 01:25:00 2.5 C 5.17 g/m*3 0.17 C 8.1 km/h
2505 03-01-2015 01:30:00 2.4 C 5.14 g/m*3 0.59 C 6.4 km/h
2506 03-01-2015 01:35:00 2.4 C 5.14 g/m*3 -0.37 C 9.7 km/h
2507 03-01-2015 01:40:00 2.5 C 5.17 g/m*3 -0.62 C 11.3 km/h
2508 03-01-2015 01:45:00 2.5 C 5.17 g/m*3 0.71 C 6.4 km/h
2509 03-01-2015 01:50:00 2.5 C 5.17 g/m*3 0.17 C 8.1 km/h
2510 03-01-2015 01:55:00 2.6 C 5.21 g/m*3 -0.14 C 9.7 km/h
2511 03-01-2015 02:00:00 2.6 C 5.21 g/m*3 0.29 C 8.1 km/h
2512 03-01-2015 02:05:00 2.7 C 5.24 g/m*3 -0.71 C 12.9 km/h
2513 03-01-2015 02:10:00 2.7 C 5.24 g/m*3 0.4 C 8.1 km/h
2514 03-01-2015 02:15:00 2.7 C 5.24 g/m*3 -0.02 C 9.7 km/h
2515 03-01-2015 02:20:00 2.7 C 5.24 g/m*3 -0.02 C 9.7 km/h
2516 03-01-2015 02:25:00 2.7 C 5.24 g/m*3 0.4 C 8.1 km/h
2517 03-01-2015 02:30:00 2.7 C 5.24 g/m*3 -0.02 C 9.7 km/h
2518 03-01-2015 02:35:00 2.8 C 5.28 g/m*3 -0.26 C 11.3 km/h
2519 03-01-2015 02:40:00 2.8 C 5.28 g/m*3 0.1 C 9.7 km/h
2520 03-01-2015 02:45:00 2.8 C 5.22 g/m*3 0.1 C 9.7 km/h
2521 03-01-2015 02:50:00 2.8 C 5.22 g/m*3 -0.26 C 11.3 km/h
2522 03-01-2015 02:55:00 2.8 C 5.22 g/m*3 0.1 C 9.7 km/h
2523 03-01-2015 03:00:00 2.8 C 5.22 g/m*3 0.1 C 9.7 km/h
2524 03-01-2015 04:30:00 2.5 C 5.29 g/m*3 -0.62 C 11.3 km/h
2525 03-01-2015 04:35:00 2.5 C 5.29 g/m*3 -0.26 C 9.7 km/h
Sensor: Nr:Datum:Temp:Abs-Feuchte:Windchill:Wind:
Aussen-T/F 2526 03-01-2015 04:40:00 2.5 C 5.29 g/m*3 -0.95 C 12.9 km/h
2527 03-01-2015 04:45:00 2.4 C 5.25 g/m*3 -0.74 C 11.3 km/h
2528 03-01-2015 04:50:00 2.4 C 5.25 g/m*3 -1.07 C 12.9 km/h
2529 03-01-2015 04:55:00 2.4 C 5.25 g/m*3 -1.37 C 14.5 km/h
2530 03-01-2015 05:00:00 2.4 C 5.31 g/m*3 -1.07 C 12.9 km/h
2531 03-01-2015 05:05:00 2.4 C 5.31 g/m*3 -0.74 C 11.3 km/h
2532 03-01-2015 05:10:00 2.5 C 5.35 g/m*3 -0.26 C 9.7 km/h
2533 03-01-2015 05:15:00 2.5 C 5.35 g/m*3 -0.95 C 12.9 km/h
2534 03-01-2015 05:20:00 2.5 C 5.35 g/m*3 -0.62 C 11.3 km/h
2535 03-01-2015 05:25:00 2.6 C 5.38 g/m*3 -0.14 C 9.7 km/h
2536 03-01-2015 05:30:00 2.6 C 5.38 g/m*3 0.29 C 8.1 km/h
2537 03-01-2015 05:35:00 2.6 C 5.38 g/m*3 0.29 C 8.1 km/h
2538 03-01-2015 06:00:00 2.6 C 5.79 g/m*3 2.6 C 1.6 km/h
2539 03-01-2015 06:05:00 2.6 C 5.38 g/m*3 2.6 C 0 km/h
2540 03-01-2015 06:10:00 2.6 C 5.38 g/m*3 2.6 C 4.8 km/h
2541 03-01-2015 06:15:00 2.6 C 5.38 g/m*3 2.6 C 0 km/h
2542 03-01-2015 06:20:00 2.5 C 5.35 g/m*3 2.5 C 0 km/h
2543 03-01-2015 06:25:00 2.5 C 5.4 g/m*3 2.5 C 0 km/h
2544 03-01-2015 06:30:00 2.5 C 5.4 g/m*3 2.5 C 1.6 km/h
2545 03-01-2015 07:45:00 3 C 5.59 g/m*3 3 C 0 km/h
2546 03-01-2015 07:50:00 3.1 C 5.63 g/m*3 3.1 C 0 km/h
2547 03-01-2015 07:55:00 3.1 C 5.63 g/m*3 3.1 C 0 km/h
2548 03-01-2015 11:25:00 4.2 C 5.86 g/m*3 0.84 C 14.5 km/h
2549 03-01-2015 11:30:00 4.2 C 5.86 g/m*3 1.77 C 9.7 km/h
2550 03-01-2015 11:35:00 4.2 C 5.86 g/m*3 4.2 C 4.8 km/h
Sensor: Nr:Datum:Temp:Abs-Feuchte:Windchill:Wind:
Aussen-T/F 2551 03-01-2015 11:40:00 4.2 C 5.86 g/m*3 1.43 C 11.3 km/h
2552 03-01-2015 11:45:00 4.2 C 5.86 g/m*3 1.77 C 9.7 km/h
2553 03-01-2015 12:45:00 3.6 C 5.76 g/m*3 3.6 C 0 km/h
2554 03-01-2015 12:50:00 3.6 C 5.76 g/m*3 3.6 C 1.6 km/h
2555 03-01-2015 14:05:00 2.1 C 5.31 g/m*3 2.1 C 0 km/h
2556 03-01-2015 14:10:00 2 C 5.28 g/m*3 2 C 0 km/h
2557 03-01-2015 14:15:00 1.9 C 5.24 g/m*3 1.9 C 0 km/h
2558 03-01-2015 14:20:00 1.8 C 5.21 g/m*3 1.8 C 0 km/h
2559 03-01-2015 14:25:00 1.8 C 5.21 g/m*3 1.8 C 0 km/h
2560 03-01-2015 14:30:00 1.7 C 5.17 g/m*3 1.7 C 0 km/h
2561 03-01-2015 14:35:00 1.6 C 5.14 g/m*3 1.6 C 0 km/h
2562 03-01-2015 14:40:00 1.6 C 5.14 g/m*3 1.6 C 0 km/h
2563 03-01-2015 14:45:00 1.5 C 5.16 g/m*3 1.5 C 0 km/h
2564 03-01-2015 14:50:00 1.6 C 5.19 g/m*3 1.6 C 0 km/h
2565 03-01-2015 14:55:00 1.6 C 5.19 g/m*3 1.6 C 0 km/h
2566 03-01-2015 15:00:00 1.6 C 5.19 g/m*3 1.6 C 0 km/h
2567 03-01-2015 15:05:00 1.7 C 5.23 g/m*3 1.7 C 0 km/h
2568 03-01-2015 15:10:00 1.7 C 5.23 g/m*3 1.7 C 0 km/h
2569 03-01-2015 15:15:00 1.7 C 5.23 g/m*3 1.7 C 0 km/h
2570 03-01-2015 15:20:00 1.7 C 5.23 g/m*3 1.7 C 0 km/h
2571 03-01-2015 17:40:00 1.8 C 5.26 g/m*3 1.8 C 0 km/h
2572 03-01-2015 17:45:00 1.6 C 5.19 g/m*3 1.6 C 0 km/h
2573 03-01-2015 17:50:00 1.6 C 5.25 g/m*3 1.6 C 0 km/h
2574 03-01-2015 17:55:00 1.6 C 5.25 g/m*3 1.6 C 0 km/h
2575 03-01-2015 18:00:00 1.6 C 5.25 g/m*3 1.6 C 0 km/h
Sensor: Nr:Datum:Temp:Abs-Feuchte:Windchill:Wind:
Aussen-T/F 2576 03-01-2015 18:05:00 1.6 C 5.25 g/m*3 1.6 C 1.6 km/h
2577 03-01-2015 18:10:00 1.7 C 5.28 g/m*3 1.7 C 0 km/h
2578 03-01-2015 18:15:00 1.7 C 5.28 g/m*3 1.7 C 3.2 km/h
2579 03-01-2015 18:20:00 1.7 C 5.28 g/m*3 1.7 C 0 km/h
2580 03-01-2015 18:25:00 1.6 C 5.25 g/m*3 1.6 C 0 km/h
2581 03-01-2015 18:30:00 1.4 C 5.17 g/m*3 1.4 C 0 km/h
2582 03-01-2015 18:35:00 1.3 C 5.14 g/m*3 1.3 C 0 km/h
2583 03-01-2015 18:40:00 1.3 C 5.14 g/m*3 1.3 C 0 km/h
2584 03-01-2015 18:45:00 1.2 C 5.1 g/m*3 1.2 C 0 km/h
2585 03-01-2015 18:50:00 1.2 C 5.1 g/m*3 1.2 C 0 km/h
2586 03-01-2015 18:55:00 1.2 C 5.1 g/m*3 1.2 C 0 km/h
2587 03-01-2015 19:00:00 1.1 C 5.07 g/m*3 1.1 C 0 km/h
2588 03-01-2015 19:05:00 1.1 C 5.07 g/m*3 1.1 C 0 km/h
2589 03-01-2015 19:10:00 1.1 C 5.07 g/m*3 1.1 C 0 km/h
2590 03-01-2015 19:15:00 1 C 5.03 g/m*3 1 C 0 km/h
2591 03-01-2015 19:20:00 1 C 5.03 g/m*3 1 C 0 km/h
2592 03-01-2015 19:25:00 1 C 5.03 g/m*3 1 C 0 km/h
2593 03-01-2015 19:30:00 0.9 C 5 g/m*3 0.9 C 0 km/h
2594 03-01-2015 19:35:00 1 C 5.03 g/m*3 1 C 0 km/h
2595 03-01-2015 19:40:00 1 C 5.03 g/m*3 1 C 0 km/h
2596 03-01-2015 19:45:00 1 C 5.03 g/m*3 1 C 0 km/h
2597 03-01-2015 19:50:00 1 C 5.03 g/m*3 1 C 0 km/h
2598 03-01-2015 19:55:00 1 C 5.03 g/m*3 1 C 0 km/h
2599 03-01-2015 20:00:00 1 C 5.03 g/m*3 1 C 0 km/h
2600 03-01-2015 20:05:00 1 C 5.03 g/m*3 1 C 0 km/h
Sensor: Nr:Datum:Temp:Abs-Feuchte:Windchill:Wind:
Aussen-T/F 2601 03-01-2015 20:10:00 0.9 C 5 g/m*3 0.9 C 0 km/h
2602 03-01-2015 20:15:00 0.9 C 5 g/m*3 0.9 C 0 km/h
2603 03-01-2015 20:20:00 0.9 C 5 g/m*3 0.9 C 0 km/h
2604 03-01-2015 20:25:00 0.9 C 5 g/m*3 0.9 C 0 km/h
2605 03-01-2015 20:30:00 0.9 C 5 g/m*3 0.9 C 0 km/h
2606 03-01-2015 20:35:00 0.8 C 4.97 g/m*3 0.8 C 0 km/h
2607 03-01-2015 20:40:00 0.9 C 5 g/m*3 0.9 C 0 km/h
2608 03-01-2015 20:45:00 0.8 C 5.02 g/m*3 0.8 C 0 km/h
2609 03-01-2015 20:50:00 0.9 C 5.05 g/m*3 0.9 C 0 km/h
2610 03-01-2015 20:55:00 0.9 C 5.05 g/m*3 0.9 C 0 km/h
2611 03-01-2015 21:00:00 0.9 C 5.05 g/m*3 0.9 C 1.6 km/h
2612 03-01-2015 21:05:00 0.9 C 5.05 g/m*3 0.9 C 3.2 km/h
2613 03-01-2015 21:10:00 0.9 C 5.05 g/m*3 -1.14 C 6.4 km/h
2614 03-01-2015 21:15:00 0.9 C 5.05 g/m*3 0.9 C 3.2 km/h
2615 03-01-2015 21:20:00 1 C 5.09 g/m*3 1 C 3.2 km/h
2616 03-01-2015 21:25:00 1.1 C 5.12 g/m*3 1.1 C 0 km/h
2617 03-01-2015 21:30:00 1.2 C 5.16 g/m*3 1.2 C 4.8 km/h
2618 03-01-2015 21:35:00 1.3 C 5.19 g/m*3 -0.68 C 6.4 km/h
2619 03-01-2015 21:40:00 1.3 C 5.19 g/m*3 1.3 C 4.8 km/h
2620 03-01-2015 21:45:00 1.3 C 5.19 g/m*3 1.3 C 4.8 km/h
2621 03-01-2015 21:50:00 1.3 C 5.19 g/m*3 1.3 C 3.2 km/h
2622 03-01-2015 21:55:00 1.3 C 5.19 g/m*3 1.3 C 1.6 km/h
2623 03-01-2015 22:00:00 1.3 C 5.19 g/m*3 1.3 C 4.8 km/h
2624 03-01-2015 22:05:00 1.3 C 5.19 g/m*3 1.3 C 1.6 km/h
2625 03-01-2015 22:10:00 1.3 C 5.19 g/m*3 1.3 C 4.8 km/h
Sensor: Nr:Datum:Temp:Abs-Feuchte:Windchill:Wind:
Aussen-T/F 2626 03-01-2015 22:15:00 1.4 C 5.23 g/m*3 1.4 C 4.8 km/h
2627 03-01-2015 22:20:00 1.5 C 5.26 g/m*3 1.5 C 3.2 km/h
2628 03-01-2015 22:25:00 1.4 C 5.23 g/m*3 1.4 C 4.8 km/h
2629 03-01-2015 22:30:00 1.4 C 5.23 g/m*3 1.4 C 3.2 km/h
2630 03-01-2015 22:35:00 1.6 C 5.3 g/m*3 1.6 C 4.8 km/h
2631 03-01-2015 22:40:00 1.6 C 5.3 g/m*3 1.6 C 1.6 km/h
2632 03-01-2015 22:45:00 1.7 C 5.34 g/m*3 1.7 C 4.8 km/h
2633 03-01-2015 22:50:00 1.8 C 5.37 g/m*3 -0.65 C 8.1 km/h
2634 03-01-2015 22:55:00 1.8 C 5.37 g/m*3 -0.65 C 8.1 km/h
2635 03-01-2015 23:00:00 1.9 C 5.41 g/m*3 0.01 C 6.4 km/h
2636 03-01-2015 23:05:00 1.9 C 5.41 g/m*3 -0.54 C 8.1 km/h
2637 03-01-2015 23:10:00 2 C 5.39 g/m*3 2 C 4.8 km/h
2638 03-01-2015 23:15:00 2 C 5.39 g/m*3 2 C 3.2 km/h
2639 03-01-2015 23:20:00 2 C 5.39 g/m*3 2 C 0 km/h
2640 03-01-2015 23:25:00 1.9 C 5.35 g/m*3 1.9 C 4.8 km/h
2641 03-01-2015 23:30:00 1.9 C 5.35 g/m*3 1.9 C 0 km/h
2642 03-01-2015 23:35:00 2 C 5.39 g/m*3 0.13 C 6.4 km/h
2643 03-01-2015 23:40:00 2 C 5.39 g/m*3 2 C 1.6 km/h
2644 03-01-2015 23:45:00 2 C 5.39 g/m*3 2 C 4.8 km/h
2645 03-01-2015 23:50:00 2 C 5.39 g/m*3 0.13 C 6.4 km/h
2646 03-01-2015 23:55:00 2 C 5.39 g/m*3 2 C 3.2 km/h
2647 04-01-2015 00:00:00 2 C 5.39 g/m*3 2 C 1.6 km/h
2648 04-01-2015 00:05:00 2 C 5.39 g/m*3 2 C 3.2 km/h
2649 04-01-2015 00:10:00 2 C 5.39 g/m*3 2 C 3.2 km/h
2650 04-01-2015 00:15:00 2.1 C 5.43 g/m*3 0.24 C 6.4 km/h
Sensor: Nr:Datum:Temp:Abs-Feuchte:Windchill:Wind:
Aussen-T/F 2651 04-01-2015 00:20:00 2.2 C 5.46 g/m*3 2.2 C 1.6 km/h
2652 04-01-2015 00:25:00 2.1 C 5.43 g/m*3 2.1 C 4.8 km/h
2653 04-01-2015 00:30:00 2.1 C 5.43 g/m*3 2.1 C 4.8 km/h
2654 04-01-2015 00:35:00 2 C 5.39 g/m*3 2 C 3.2 km/h
2655 04-01-2015 00:40:00 2 C 5.39 g/m*3 0.13 C 6.4 km/h
2656 04-01-2015 00:45:00 2.1 C 5.43 g/m*3 0.24 C 6.4 km/h
2657 04-01-2015 00:50:00 2.1 C 5.43 g/m*3 2.1 C 3.2 km/h
2658 04-01-2015 00:55:00 2.1 C 5.43 g/m*3 2.1 C 4.8 km/h
2659 04-01-2015 01:00:00 2.2 C 5.52 g/m*3 2.2 C 3.2 km/h
2660 04-01-2015 01:05:00 2.2 C 5.52 g/m*3 2.2 C 1.6 km/h
2661 04-01-2015 01:10:00 2.2 C 5.52 g/m*3 2.2 C 1.6 km/h
2662 04-01-2015 01:15:00 2.2 C 5.52 g/m*3 2.2 C 0 km/h
2663 04-01-2015 01:20:00 2.2 C 5.52 g/m*3 2.2 C 1.6 km/h
2664 04-01-2015 01:25:00 2.2 C 5.52 g/m*3 2.2 C 4.8 km/h
2665 04-01-2015 01:30:00 2.2 C 5.52 g/m*3 2.2 C 3.2 km/h
2666 04-01-2015 01:35:00 2.3 C 5.56 g/m*3 2.3 C 4.8 km/h
2667 04-01-2015 01:40:00 2.4 C 5.6 g/m*3 2.4 C 3.2 km/h
2668 04-01-2015 01:45:00 2.7 C 5.71 g/m*3 2.7 C 4.8 km/h
2669 04-01-2015 01:50:00 2.8 C 5.75 g/m*3 0.1 C 9.7 km/h
2670 04-01-2015 01:55:00 2.9 C 5.79 g/m*3 2.9 C 4.8 km/h
2671 04-01-2015 02:00:00 3.1 C 5.87 g/m*3 0.46 C 9.7 km/h
2672 04-01-2015 02:05:00 3.3 C 5.95 g/m*3 3.3 C 4.8 km/h
2673 04-01-2015 02:10:00 3.4 C 5.99 g/m*3 3.4 C 4.8 km/h
2674 04-01-2015 02:15:00 3.4 C 5.92 g/m*3 3.4 C 4.8 km/h
2675 04-01-2015 02:20:00 3.6 C 6 g/m*3 1.46 C 8.1 km/h
Sensor: Nr:Datum:Temp:Abs-Feuchte:Windchill:Wind:
Aussen-T/F 2676 04-01-2015 02:25:00 3.7 C 6.04 g/m*3 1.58 C 8.1 km/h
2677 04-01-2015 02:30:00 3.7 C 6.04 g/m*3 3.7 C 1.6 km/h
2678 04-01-2015 02:35:00 3.7 C 5.98 g/m*3 3.7 C 3.2 km/h
2679 04-01-2015 02:40:00 3.8 C 6.02 g/m*3 0.63 C 12.9 km/h
2680 04-01-2015 02:45:00 3.9 C 6.06 g/m*3 1.06 C 11.3 km/h
2681 04-01-2015 02:50:00 4.1 C 6.08 g/m*3 2.55 C 6.4 km/h
2682 04-01-2015 02:55:00 4.1 C 6.08 g/m*3 2.55 C 6.4 km/h
2683 04-01-2015 03:00:00 4.1 C 6.08 g/m*3 2.55 C 6.4 km/h
2684 04-01-2015 03:05:00 4.1 C 6.08 g/m*3 0.72 C 14.5 km/h
2685 04-01-2015 03:10:00 4.1 C 6.02 g/m*3 2.05 C 8.1 km/h
2686 04-01-2015 03:15:00 4.1 C 6.02 g/m*3 4.1 C 4.8 km/h
2687 04-01-2015 03:20:00 4.1 C 6.02 g/m*3 2.55 C 6.4 km/h
2688 04-01-2015 03:25:00 4.1 C 5.95 g/m*3 2.05 C 8.1 km/h
2689 04-01-2015 03:30:00 4.1 C 5.95 g/m*3 0.72 C 14.5 km/h
2690 04-01-2015 03:35:00 4.1 C 5.95 g/m*3 1.65 C 9.7 km/h
2691 04-01-2015 03:40:00 4.1 C 5.95 g/m*3 2.05 C 8.1 km/h
2692 04-01-2015 03:45:00 4 C 5.91 g/m*3 1.93 C 8.1 km/h
2693 04-01-2015 03:50:00 4 C 5.91 g/m*3 1.93 C 8.1 km/h
2694 04-01-2015 03:55:00 4 C 5.91 g/m*3 1.53 C 9.7 km/h
2695 04-01-2015 04:00:00 3.9 C 5.87 g/m*3 1.82 C 8.1 km/h
2696 04-01-2015 04:05:00 3.9 C 5.87 g/m*3 3.9 C 4.8 km/h
2697 04-01-2015 04:10:00 3.9 C 5.87 g/m*3 1.82 C 8.1 km/h
2698 04-01-2015 04:50:00 2.9 C 5.55 g/m*3 2.9 C 4.8 km/h
2699 04-01-2015 04:55:00 2.8 C 5.51 g/m*3 2.8 C 4.8 km/h
2700 04-01-2015 05:00:00 2.6 C 5.44 g/m*3 2.6 C 0 km/h
Sensor: Nr:Datum:Temp:Abs-Feuchte:Windchill:Wind:
Aussen-T/F 2701 04-01-2015 05:05:00 2.4 C 5.37 g/m*3 2.4 C 4.8 km/h
2702 04-01-2015 05:10:00 2.2 C 5.29 g/m*3 2.2 C 4.8 km/h
2703 04-01-2015 05:15:00 2.1 C 5.31 g/m*3 -0.3 C 8.1 km/h
2704 04-01-2015 05:20:00 2.1 C 5.31 g/m*3 2.1 C 3.2 km/h
2705 04-01-2015 05:25:00 2.1 C 5.37 g/m*3 2.1 C 3.2 km/h
2706 04-01-2015 05:30:00 2 C 5.33 g/m*3 2 C 4.8 km/h
2707 04-01-2015 05:35:00 2 C 5.33 g/m*3 2 C 3.2 km/h
2708 04-01-2015 05:40:00 1.9 C 5.3 g/m*3 1.9 C 4.8 km/h
2709 04-01-2015 05:45:00 1.8 C 5.26 g/m*3 1.8 C 4.8 km/h
2710 04-01-2015 05:50:00 1.7 C 5.23 g/m*3 1.7 C 3.2 km/h
2711 04-01-2015 05:55:00 1.7 C 5.23 g/m*3 -0.22 C 6.4 km/h
2712 04-01-2015 06:00:00 1.6 C 5.19 g/m*3 1.6 C 4.8 km/h
2713 04-01-2015 06:05:00 1.6 C 5.25 g/m*3 1.6 C 4.8 km/h
2714 04-01-2015 06:10:00 1.6 C 5.25 g/m*3 1.6 C 4.8 km/h
2715 04-01-2015 06:15:00 1.5 C 5.16 g/m*3 1.5 C 4.8 km/h
2716 04-01-2015 06:20:00 1.4 C 5.12 g/m*3 1.4 C 1.6 km/h
2717 04-01-2015 06:25:00 1.4 C 5.17 g/m*3 1.4 C 4.8 km/h
2718 04-01-2015 06:30:00 1.3 C 5.14 g/m*3 1.3 C 0 km/h
2719 04-01-2015 06:35:00 1.2 C 5.05 g/m*3 1.2 C 1.6 km/h
2720 04-01-2015 06:40:00 1.2 C 5.05 g/m*3 1.2 C 4.8 km/h
2721 04-01-2015 06:45:00 1.1 C 5.07 g/m*3 -0.91 C 6.4 km/h
2722 04-01-2015 06:50:00 1.1 C 5.07 g/m*3 1.1 C 1.6 km/h
2723 04-01-2015 06:55:00 1.1 C 5.07 g/m*3 1.1 C 1.6 km/h
2724 04-01-2015 07:00:00 1.1 C 5.07 g/m*3 1.1 C 4.8 km/h
2725 04-01-2015 07:05:00 1.1 C 5.07 g/m*3 1.1 C 4.8 km/h
Sensor: Nr:Datum:Temp:Abs-Feuchte:Windchill:Wind:
Aussen-T/F 2726 04-01-2015 07:10:00 1.1 C 5.07 g/m*3 1.1 C 3.2 km/h
2727 04-01-2015 07:15:00 1 C 5.03 g/m*3 1 C 3.2 km/h
2728 04-01-2015 07:20:00 0.9 C 5 g/m*3 0.9 C 1.6 km/h
2729 04-01-2015 07:25:00 0.9 C 5 g/m*3 0.9 C 3.2 km/h
2730 04-01-2015 07:30:00 0.9 C 5 g/m*3 0.9 C 3.2 km/h
2731 04-01-2015 07:35:00 1 C 5.03 g/m*3 1 C 3.2 km/h
2732 04-01-2015 07:40:00 1.1 C 5.07 g/m*3 1.1 C 3.2 km/h
2733 04-01-2015 07:45:00 1.2 C 5.1 g/m*3 1.2 C 1.6 km/h
2734 04-01-2015 07:50:00 1.1 C 5.07 g/m*3 1.1 C 1.6 km/h
2735 04-01-2015 07:55:00 1.1 C 5.07 g/m*3 1.1 C 4.8 km/h
2736 04-01-2015 08:00:00 1.1 C 5.07 g/m*3 1.1 C 1.6 km/h
2737 04-01-2015 08:05:00 1.2 C 5.1 g/m*3 1.2 C 1.6 km/h
2738 04-01-2015 08:10:00 1.2 C 5.1 g/m*3 1.2 C 3.2 km/h
2739 04-01-2015 08:15:00 1.2 C 5.1 g/m*3 1.2 C 1.6 km/h
2740 04-01-2015 08:20:00 1.2 C 5.1 g/m*3 1.2 C 3.2 km/h
2741 04-01-2015 18:15:00 4.1 C 5.89 g/m*3 4.1 C 1.6 km/h
2742 04-01-2015 18:20:00 4.1 C 5.89 g/m*3 4.1 C 1.6 km/h
2743 04-01-2015 18:25:00 4 C 5.85 g/m*3 4 C 3.2 km/h
2744 04-01-2015 18:30:00 4 C 5.85 g/m*3 4 C 1.6 km/h
2745 04-01-2015 18:35:00 3.9 C 5.75 g/m*3 3.9 C 4.8 km/h
2746 04-01-2015 18:40:00 4 C 5.79 g/m*3 4 C 4.8 km/h
2747 04-01-2015 18:45:00 4.1 C 5.76 g/m*3 4.1 C 4.8 km/h
2748 04-01-2015 18:50:00 4.2 C 5.73 g/m*3 2.67 C 6.4 km/h
2749 04-01-2015 18:55:00 4.3 C 5.71 g/m*3 1.89 C 9.7 km/h
2750 04-01-2015 19:00:00 4.4 C 5.68 g/m*3 4.4 C 3.2 km/h
Sensor: Nr:Datum:Temp:Abs-Feuchte:Windchill:Wind:
Aussen-T/F 2751 04-01-2015 19:05:00 4.4 C 5.68 g/m*3 4.4 C 3.2 km/h
2752 04-01-2015 19:10:00 4.4 C 5.68 g/m*3 2.9 C 6.4 km/h
2753 04-01-2015 19:15:00 4.3 C 5.64 g/m*3 2.78 C 6.4 km/h
2754 04-01-2015 19:20:00 4.3 C 5.64 g/m*3 4.3 C 1.6 km/h
2755 04-01-2015 19:25:00 4.2 C 5.67 g/m*3 4.2 C 1.6 km/h
2756 04-01-2015 19:30:00 4.2 C 5.67 g/m*3 4.2 C 4.8 km/h
2757 04-01-2015 19:35:00 4.1 C 5.63 g/m*3 2.05 C 8.1 km/h
2758 04-01-2015 19:40:00 4.1 C 5.63 g/m*3 4.1 C 3.2 km/h
2759 04-01-2015 19:45:00 4.1 C 5.63 g/m*3 4.1 C 1.6 km/h
2760 04-01-2015 19:50:00 4 C 5.59 g/m*3 4 C 1.6 km/h
2761 04-01-2015 19:55:00 3.9 C 5.62 g/m*3 2.32 C 6.4 km/h
2762 04-01-2015 20:00:00 3.9 C 5.62 g/m*3 3.9 C 4.8 km/h
2763 04-01-2015 20:05:00 3.9 C 5.62 g/m*3 3.9 C 4.8 km/h
2764 04-01-2015 20:10:00 3.8 C 5.58 g/m*3 3.8 C 4.8 km/h
2765 04-01-2015 20:15:00 3.8 C 5.58 g/m*3 3.8 C 4.8 km/h
2766 04-01-2015 20:20:00 3.7 C 5.61 g/m*3 3.7 C 3.2 km/h
2767 04-01-2015 20:25:00 3.7 C 5.61 g/m*3 3.7 C 3.2 km/h
2768 04-01-2015 20:30:00 3.6 C 5.57 g/m*3 3.6 C 4.8 km/h
2769 04-01-2015 20:35:00 3.6 C 5.63 g/m*3 3.6 C 1.6 km/h
2770 04-01-2015 20:40:00 3.6 C 5.63 g/m*3 3.6 C 3.2 km/h
2771 04-01-2015 20:45:00 3.6 C 5.63 g/m*3 3.6 C 3.2 km/h
2772 04-01-2015 20:50:00 3.6 C 5.63 g/m*3 3.6 C 4.8 km/h
2773 04-01-2015 20:55:00 3.6 C 5.63 g/m*3 3.6 C 3.2 km/h
2774 04-01-2015 21:00:00 3.7 C 5.67 g/m*3 3.7 C 1.6 km/h
2775 04-01-2015 21:05:00 3.7 C 5.67 g/m*3 3.7 C 3.2 km/h
Sensor: Nr:Datum:Temp:Abs-Feuchte:Windchill:Wind:
Aussen-T/F 2776 04-01-2015 21:10:00 3.7 C 5.61 g/m*3 3.7 C 3.2 km/h
2777 04-01-2015 21:15:00 3.7 C 5.61 g/m*3 3.7 C 3.2 km/h
2778 04-01-2015 21:20:00 3.8 C 5.65 g/m*3 3.8 C 3.2 km/h
2779 04-01-2015 21:25:00 3.8 C 5.65 g/m*3 3.8 C 3.2 km/h
2780 04-01-2015 21:30:00 3.8 C 5.65 g/m*3 2.21 C 6.4 km/h
2781 04-01-2015 21:35:00 3.8 C 5.65 g/m*3 3.8 C 4.8 km/h
2782 04-01-2015 21:40:00 3.9 C 5.62 g/m*3 2.32 C 6.4 km/h
2783 04-01-2015 21:45:00 3.9 C 5.62 g/m*3 3.9 C 3.2 km/h
2784 04-01-2015 21:50:00 4 C 5.66 g/m*3 4 C 4.8 km/h
2785 04-01-2015 21:55:00 4 C 5.66 g/m*3 4 C 4.8 km/h
2786 04-01-2015 22:00:00 3.9 C 5.62 g/m*3 3.9 C 4.8 km/h
2787 04-01-2015 22:05:00 3.7 C 5.61 g/m*3 3.7 C 1.6 km/h
2788 04-01-2015 22:10:00 3.6 C 5.57 g/m*3 3.6 C 3.2 km/h
2789 04-01-2015 22:15:00 3.5 C 5.6 g/m*3 3.5 C 3.2 km/h
2790 04-01-2015 22:20:00 3.4 C 5.56 g/m*3 3.4 C 1.6 km/h
2791 04-01-2015 22:25:00 3.3 C 5.58 g/m*3 3.3 C 1.6 km/h
2792 04-01-2015 22:30:00 3.2 C 5.54 g/m*3 3.2 C 0 km/h
2793 04-01-2015 22:35:00 3.2 C 5.6 g/m*3 3.2 C 1.6 km/h
2794 04-01-2015 22:40:00 3.2 C 5.6 g/m*3 3.2 C 1.6 km/h
2795 04-01-2015 22:45:00 3.2 C 5.6 g/m*3 3.2 C 0 km/h
2796 04-01-2015 22:50:00 3.2 C 5.6 g/m*3 3.2 C 0 km/h
2797 04-01-2015 22:55:00 3.2 C 5.54 g/m*3 3.2 C 3.2 km/h
2798 04-01-2015 23:00:00 3.2 C 5.54 g/m*3 3.2 C 1.6 km/h
2799 04-01-2015 23:05:00 3.2 C 5.54 g/m*3 3.2 C 3.2 km/h
2800 04-01-2015 23:10:00 3.3 C 5.58 g/m*3 3.3 C 1.6 km/h
Sensor: Nr:Datum:Temp:Abs-Feuchte:Windchill:Wind:
Aussen-T/F 2801 04-01-2015 23:15:00 3.3 C 5.58 g/m*3 3.3 C 1.6 km/h
2802 04-01-2015 23:20:00 3.3 C 5.58 g/m*3 3.3 C 1.6 km/h
2803 04-01-2015 23:25:00 3.2 C 5.54 g/m*3 3.2 C 3.2 km/h
2804 04-01-2015 23:30:00 3.2 C 5.48 g/m*3 1.51 C 6.4 km/h
2805 04-01-2015 23:35:00 3.2 C 5.54 g/m*3 3.2 C 1.6 km/h
2806 04-01-2015 23:40:00 3.2 C 5.48 g/m*3 3.2 C 4.8 km/h
2807 04-01-2015 23:45:00 3.3 C 5.52 g/m*3 3.3 C 3.2 km/h
2808 04-01-2015 23:50:00 3.3 C 5.46 g/m*3 3.3 C 4.8 km/h
2809 04-01-2015 23:55:00 3.4 C 5.44 g/m*3 3.4 C 3.2 km/h
2810 05-01-2015 00:00:00 3.5 C 5.47 g/m*3 3.5 C 1.6 km/h
2811 05-01-2015 00:05:00 3.4 C 5.5 g/m*3 3.4 C 1.6 km/h
2812 05-01-2015 00:10:00 3.3 C 5.46 g/m*3 3.3 C 3.2 km/h
2813 05-01-2015 00:15:00 3.2 C 5.42 g/m*3 3.2 C 4.8 km/h
2814 05-01-2015 00:20:00 3.2 C 5.42 g/m*3 3.2 C 3.2 km/h
2815 05-01-2015 00:25:00 3.1 C 5.45 g/m*3 3.1 C 3.2 km/h
2816 05-01-2015 00:30:00 3 C 5.41 g/m*3 3 C 4.8 km/h
2817 05-01-2015 00:35:00 2.9 C 5.37 g/m*3 2.9 C 3.2 km/h
2818 05-01-2015 00:40:00 2.8 C 5.34 g/m*3 2.8 C 3.2 km/h
2819 05-01-2015 00:45:00 2.8 C 5.34 g/m*3 2.8 C 3.2 km/h
2820 05-01-2015 00:50:00 2.8 C 5.34 g/m*3 2.8 C 3.2 km/h
2821 05-01-2015 00:55:00 2.8 C 5.28 g/m*3 2.8 C 3.2 km/h
2822 05-01-2015 01:00:00 2.9 C 5.32 g/m*3 2.9 C 3.2 km/h
2823 05-01-2015 01:05:00 2.9 C 5.26 g/m*3 0.64 C 8.1 km/h
2824 05-01-2015 01:10:00 2.9 C 5.26 g/m*3 0.64 C 8.1 km/h
2825 05-01-2015 01:15:00 2.9 C 5.26 g/m*3 2.9 C 1.6 km/h
Sensor: Nr:Datum:Temp:Abs-Feuchte:Windchill:Wind:
Aussen-T/F 2826 05-01-2015 01:20:00 2.8 C 5.22 g/m*3 2.8 C 4.8 km/h
2827 05-01-2015 01:25:00 2.7 C 5.24 g/m*3 2.7 C 3.2 km/h
2828 05-01-2015 01:30:00 2.6 C 5.21 g/m*3 2.6 C 1.6 km/h
2829 05-01-2015 01:35:00 2.6 C 5.21 g/m*3 2.6 C 1.6 km/h
2830 05-01-2015 01:40:00 2.5 C 5.23 g/m*3 2.5 C 1.6 km/h
2831 05-01-2015 01:45:00 2.4 C 5.2 g/m*3 2.4 C 3.2 km/h
2832 05-01-2015 01:50:00 2.3 C 5.16 g/m*3 2.3 C 3.2 km/h
2833 05-01-2015 01:55:00 2.2 C 5.13 g/m*3 2.2 C 1.6 km/h
2834 05-01-2015 02:00:00 2.1 C 5.15 g/m*3 2.1 C 1.6 km/h
2835 05-01-2015 02:05:00 1.9 C 5.08 g/m*3 1.9 C 0 km/h
2836 05-01-2015 02:10:00 1.8 C 5.04 g/m*3 1.8 C 0 km/h
2837 05-01-2015 02:15:00 1.6 C 4.97 g/m*3 1.6 C 1.6 km/h
2838 05-01-2015 02:20:00 1.4 C 4.91 g/m*3 1.4 C 0 km/h
2839 05-01-2015 02:25:00 1.3 C 4.93 g/m*3 1.3 C 0 km/h
2840 05-01-2015 02:30:00 1.2 C 4.89 g/m*3 1.2 C 1.6 km/h
2841 05-01-2015 02:35:00 1.2 C 4.89 g/m*3 1.2 C 1.6 km/h
2842 05-01-2015 02:40:00 1.1 C 4.91 g/m*3 1.1 C 3.2 km/h
2843 05-01-2015 02:45:00 1.1 C 4.91 g/m*3 1.1 C 1.6 km/h
2844 05-01-2015 02:50:00 1.1 C 4.91 g/m*3 1.1 C 1.6 km/h
2845 05-01-2015 02:55:00 1.1 C 4.91 g/m*3 1.1 C 1.6 km/h
2846 05-01-2015 03:00:00 1 C 4.88 g/m*3 1 C 1.6 km/h
2847 05-01-2015 03:05:00 1 C 4.88 g/m*3 1 C 3.2 km/h
2848 05-01-2015 03:10:00 1 C 4.88 g/m*3 1 C 3.2 km/h
2849 05-01-2015 03:15:00 1 C 4.88 g/m*3 1 C 3.2 km/h
2850 05-01-2015 03:20:00 1 C 4.88 g/m*3 1 C 4.8 km/h
Sensor: Nr:Datum:Temp:Abs-Feuchte:Windchill:Wind:
Aussen-T/F 2851 05-01-2015 03:25:00 0.9 C 4.85 g/m*3 0.9 C 1.6 km/h
2852 05-01-2015 03:30:00 1 C 4.88 g/m*3 1 C 4.8 km/h
2853 05-01-2015 03:35:00 1 C 4.88 g/m*3 1 C 0 km/h
2854 05-01-2015 03:40:00 0.9 C 4.85 g/m*3 0.9 C 0 km/h
2855 05-01-2015 03:45:00 0.8 C 4.81 g/m*3 0.8 C 1.6 km/h
2856 05-01-2015 03:50:00 0.8 C 4.81 g/m*3 0.8 C 1.6 km/h
2857 05-01-2015 03:55:00 0.7 C 4.78 g/m*3 0.7 C 0 km/h
2858 05-01-2015 04:00:00 0.7 C 4.78 g/m*3 0.7 C 0 km/h
2859 05-01-2015 04:05:00 0.5 C 4.71 g/m*3 0.5 C 0 km/h
2860 05-01-2015 04:10:00 0.4 C 4.68 g/m*3 0.4 C 3.2 km/h
2861 05-01-2015 04:15:00 0.3 C 4.65 g/m*3 0.3 C 3.2 km/h
2862 05-01-2015 04:20:00 0.2 C 4.62 g/m*3 0.2 C 1.6 km/h
2863 05-01-2015 04:25:00 0.1 C 4.59 g/m*3 0.1 C 1.6 km/h
2864 05-01-2015 04:30:00 0.1 C 4.59 g/m*3 0.1 C 0 km/h
2865 05-01-2015 04:35:00 -0.1 C 4.52 g/m*3 -0.1 C 0 km/h
2866 05-01-2015 04:40:00 -0.1 C 4.57 g/m*3 -0.1 C 0 km/h
2867 05-01-2015 04:45:00 -0.2 C 4.54 g/m*3 -0.2 C 0 km/h
2868 05-01-2015 04:50:00 -0.3 C 4.51 g/m*3 -0.3 C 0 km/h
2869 05-01-2015 04:55:00 -0.3 C 4.51 g/m*3 -0.3 C 0 km/h
2870 05-01-2015 05:00:00 -0.4 C 4.48 g/m*3 -0.4 C 1.6 km/h
2871 05-01-2015 05:05:00 -0.4 C 4.48 g/m*3 -0.4 C 1.6 km/h
2872 05-01-2015 05:10:00 -0.4 C 4.48 g/m*3 -0.4 C 0 km/h
2873 05-01-2015 05:15:00 -0.4 C 4.48 g/m*3 -0.4 C 0 km/h
2874 05-01-2015 05:20:00 -0.4 C 4.48 g/m*3 -0.4 C 0 km/h
2875 05-01-2015 05:25:00 -0.5 C 4.45 g/m*3 -0.5 C 0 km/h
Sensor: Nr:Datum:Temp:Abs-Feuchte:Windchill:Wind:
Aussen-T/F 2876 05-01-2015 05:30:00 -0.6 C 4.42 g/m*3 -0.6 C 1.6 km/h
2877 05-01-2015 05:35:00 -0.6 C 4.46 g/m*3 -0.6 C 0 km/h
2878 05-01-2015 05:40:00 -0.6 C 4.46 g/m*3 -0.6 C 1.6 km/h
2879 05-01-2015 05:45:00 -0.5 C 4.49 g/m*3 -0.5 C 3.2 km/h
2880 05-01-2015 05:50:00 -0.5 C 4.49 g/m*3 -0.5 C 1.6 km/h
2881 05-01-2015 05:55:00 -0.5 C 4.49 g/m*3 -0.5 C 0 km/h
2882 05-01-2015 06:00:00 -0.5 C 4.49 g/m*3 -0.5 C 1.6 km/h
2883 05-01-2015 06:05:00 -0.6 C 4.46 g/m*3 -0.6 C 0 km/h
2884 05-01-2015 06:10:00 -0.6 C 4.46 g/m*3 -0.6 C 0 km/h
2885 05-01-2015 06:15:00 -0.6 C 4.46 g/m*3 -0.6 C 0 km/h
2886 05-01-2015 06:20:00 -0.6 C 4.46 g/m*3 -0.6 C 0 km/h
2887 05-01-2015 06:25:00 -0.9 C 4.37 g/m*3 -0.9 C 0 km/h
2888 05-01-2015 06:30:00 -1 C 4.34 g/m*3 -1 C 1.6 km/h
2889 05-01-2015 06:35:00 -1 C 4.34 g/m*3 -1 C 0 km/h
2890 05-01-2015 06:40:00 -1 C 4.34 g/m*3 -1 C 0 km/h
2891 05-01-2015 06:45:00 -0.9 C 4.37 g/m*3 -0.9 C 0 km/h
2892 05-01-2015 06:50:00 -0.9 C 4.37 g/m*3 -0.9 C 1.6 km/h
2893 05-01-2015 06:55:00 -0.9 C 4.37 g/m*3 -0.9 C 1.6 km/h
2894 05-01-2015 07:00:00 -0.9 C 4.37 g/m*3 -0.9 C 4.8 km/h
2895 05-01-2015 07:05:00 -0.9 C 4.37 g/m*3 -0.9 C 1.6 km/h
2896 05-01-2015 07:10:00 -0.8 C 4.4 g/m*3 -0.8 C 1.6 km/h
2897 05-01-2015 07:15:00 -0.9 C 4.37 g/m*3 -0.9 C 0 km/h
2898 05-01-2015 07:20:00 -0.9 C 4.37 g/m*3 -0.9 C 0 km/h
2899 05-01-2015 07:25:00 -1 C 4.34 g/m*3 -1 C 1.6 km/h
2900 05-01-2015 07:30:00 -1 C 4.34 g/m*3 -1 C 0 km/h
Sensor: Nr:Datum:Temp:Abs-Feuchte:Windchill:Wind:
Aussen-T/F 2901 05-01-2015 07:35:00 -1 C 4.38 g/m*3 -1 C 1.6 km/h
2902 05-01-2015 07:40:00 -0.9 C 4.42 g/m*3 -0.9 C 4.8 km/h
2903 05-01-2015 07:45:00 -0.8 C 4.45 g/m*3 -3.11 C 6.4 km/h
2904 05-01-2015 07:50:00 -0.8 C 4.45 g/m*3 -3.11 C 6.4 km/h
2905 05-01-2015 07:55:00 -0.8 C 4.45 g/m*3 -3.11 C 6.4 km/h
2906 05-01-2015 08:00:00 -0.8 C 4.45 g/m*3 -3.71 C 8.1 km/h
2907 05-01-2015 08:05:00 -0.8 C 4.45 g/m*3 -0.8 C 3.2 km/h
2908 05-01-2015 08:10:00 -0.7 C 4.48 g/m*3 -3.59 C 8.1 km/h
2909 05-01-2015 08:15:00 -0.7 C 4.48 g/m*3 -2.99 C 6.4 km/h
2910 05-01-2015 08:20:00 -0.7 C 4.48 g/m*3 -0.7 C 4.8 km/h
2911 05-01-2015 08:25:00 -0.7 C 4.48 g/m*3 -0.7 C 4.8 km/h
2912 05-01-2015 08:30:00 -0.7 C 4.48 g/m*3 -0.7 C 4.8 km/h
2913 05-01-2015 08:35:00 -0.7 C 4.48 g/m*3 -4.07 C 9.7 km/h
2914 05-01-2015 08:40:00 -0.8 C 4.45 g/m*3 -3.71 C 8.1 km/h
2915 05-01-2015 08:45:00 -0.8 C 4.45 g/m*3 -0.8 C 4.8 km/h
2916 05-01-2015 08:50:00 -0.8 C 4.45 g/m*3 -3.71 C 8.1 km/h
2917 05-01-2015 08:55:00 -0.8 C 4.45 g/m*3 -0.8 C 4.8 km/h
2918 05-01-2015 09:00:00 -0.8 C 4.45 g/m*3 -0.8 C 4.8 km/h
2919 05-01-2015 09:05:00 -0.8 C 4.45 g/m*3 -3.11 C 6.4 km/h
2920 05-01-2015 09:10:00 -0.8 C 4.45 g/m*3 -3.11 C 6.4 km/h
2921 05-01-2015 09:15:00 -0.8 C 4.45 g/m*3 -3.11 C 6.4 km/h
2922 05-01-2015 09:20:00 -0.8 C 4.45 g/m*3 -0.8 C 4.8 km/h
2923 05-01-2015 09:25:00 -0.8 C 4.45 g/m*3 -0.8 C 4.8 km/h
2924 05-01-2015 09:30:00 -0.8 C 4.45 g/m*3 -0.8 C 3.2 km/h
2925 05-01-2015 09:35:00 -0.8 C 4.45 g/m*3 -3.11 C 6.4 km/h
Sensor: Nr:Datum:Temp:Abs-Feuchte:Windchill:Wind:
Aussen-T/F 2926 05-01-2015 09:40:00 -0.6 C 4.51 g/m*3 -3.48 C 8.1 km/h
2927 05-01-2015 09:45:00 -0.6 C 4.51 g/m*3 -3.95 C 9.7 km/h
2928 05-01-2015 09:50:00 -0.6 C 4.51 g/m*3 -0.6 C 4.8 km/h
2929 05-01-2015 09:55:00 -0.6 C 4.51 g/m*3 -0.6 C 4.8 km/h
2930 05-01-2015 10:00:00 -0.6 C 4.51 g/m*3 -0.6 C 3.2 km/h
2931 05-01-2015 10:05:00 -0.6 C 4.51 g/m*3 -0.6 C 3.2 km/h
2932 05-01-2015 10:10:00 -0.6 C 4.51 g/m*3 -0.6 C 3.2 km/h
2933 05-01-2015 10:15:00 -0.6 C 4.51 g/m*3 -0.6 C 1.6 km/h
2934 05-01-2015 10:20:00 -0.6 C 4.51 g/m*3 -2.88 C 6.4 km/h
2935 05-01-2015 10:25:00 -0.5 C 4.54 g/m*3 -0.5 C 1.6 km/h
2936 05-01-2015 10:30:00 -0.5 C 4.54 g/m*3 -0.5 C 4.8 km/h
2937 05-01-2015 10:35:00 -0.5 C 4.54 g/m*3 -2.76 C 6.4 km/h
2938 05-01-2015 10:40:00 -0.3 C 4.6 g/m*3 -3.12 C 8.1 km/h
2939 05-01-2015 10:45:00 -0.2 C 4.64 g/m*3 -0.2 C 4.8 km/h
2940 05-01-2015 10:50:00 -0.2 C 4.64 g/m*3 -0.2 C 3.2 km/h
2941 05-01-2015 10:55:00 -0.2 C 4.64 g/m*3 -0.2 C 1.6 km/h
2942 05-01-2015 11:00:00 -0.2 C 4.64 g/m*3 -0.2 C 1.6 km/h
2943 05-01-2015 11:05:00 -0.2 C 4.64 g/m*3 -0.2 C 3.2 km/h
2944 05-01-2015 11:10:00 -0.2 C 4.64 g/m*3 -0.2 C 1.6 km/h
2945 05-01-2015 11:50:00 0.2 C 4.77 g/m*3 0.2 C 3.2 km/h
2946 05-01-2015 11:55:00 0.2 C 4.77 g/m*3 0.2 C 1.6 km/h
2947 05-01-2015 12:00:00 0.2 C 4.77 g/m*3 0.2 C 1.6 km/h
2948 05-01-2015 12:05:00 0.2 C 4.77 g/m*3 0.2 C 1.6 km/h
2949 05-01-2015 12:10:00 0.2 C 4.77 g/m*3 0.2 C 3.2 km/h
2950 05-01-2015 12:15:00 0.2 C 4.77 g/m*3 0.2 C 1.6 km/h
Sensor: Nr:Datum:Temp:Abs-Feuchte:Windchill:Wind:
Aussen-T/F 2951 05-01-2015 12:20:00 0.2 C 4.77 g/m*3 0.2 C 1.6 km/h
2952 05-01-2015 12:25:00 0.2 C 4.77 g/m*3 0.2 C 1.6 km/h
2953 05-01-2015 13:50:00 1.1 C 5.23 g/m*3 1.1 C 3.2 km/h
2954 05-01-2015 13:55:00 1.1 C 4.96 g/m*3 1.1 C 4.8 km/h
2955 05-01-2015 14:00:00 1.1 C 4.96 g/m*3 1.1 C 3.2 km/h
2956 05-01-2015 18:20:00 -0.8 C 4.4 g/m*3 -0.8 C 0 km/h
2957 05-01-2015 18:25:00 -0.8 C 4.4 g/m*3 -0.8 C 0 km/h
2958 05-01-2015 18:30:00 -0.8 C 4.4 g/m*3 -0.8 C 0 km/h
2959 05-01-2015 18:35:00 -0.8 C 4.4 g/m*3 -0.8 C 1.6 km/h
2960 05-01-2015 18:40:00 -0.8 C 4.4 g/m*3 -0.8 C 0 km/h
2961 05-01-2015 18:45:00 -0.8 C 4.4 g/m*3 -0.8 C 0 km/h
2962 05-01-2015 18:50:00 -0.8 C 4.4 g/m*3 -0.8 C 0 km/h
2963 05-01-2015 18:55:00 -0.8 C 4.4 g/m*3 -0.8 C 0 km/h
2964 05-01-2015 19:00:00 -0.8 C 4.4 g/m*3 -0.8 C 0 km/h
2965 05-01-2015 19:05:00 -0.9 C 4.37 g/m*3 -0.9 C 0 km/h
2966 05-01-2015 19:10:00 -0.9 C 4.37 g/m*3 -0.9 C 0 km/h
2967 05-01-2015 20:10:00 -1.4 C 4.22 g/m*3 -1.4 C 0 km/h
2968 05-01-2015 20:15:00 -1.4 C 4.22 g/m*3 -1.4 C 0 km/h
2969 05-01-2015 20:20:00 -1.3 C 4.25 g/m*3 -1.3 C 0 km/h
2970 05-01-2015 20:25:00 -1.4 C 4.22 g/m*3 -1.4 C 0 km/h
2971 05-01-2015 20:30:00 -1.4 C 4.22 g/m*3 -1.4 C 0 km/h
2972 05-01-2015 20:35:00 -1.4 C 4.22 g/m*3 -1.4 C 0 km/h
2973 05-01-2015 20:40:00 -1.3 C 4.25 g/m*3 -1.3 C 0 km/h
2974 05-01-2015 20:45:00 -1.4 C 4.22 g/m*3 -1.4 C 0 km/h
2975 05-01-2015 20:50:00 -1.4 C 4.22 g/m*3 -1.4 C 0 km/h
Sensor: Nr:Datum:Temp:Abs-Feuchte:Windchill:Wind:
Aussen-T/F 2976 05-01-2015 20:55:00 -1.5 C 4.19 g/m*3 -1.5 C 0 km/h
2977 05-01-2015 21:00:00 -1.5 C 4.19 g/m*3 -1.5 C 0 km/h
2978 05-01-2015 21:05:00 -1.6 C 4.16 g/m*3 -1.6 C 0 km/h
2979 05-01-2015 21:10:00 -1.5 C 4.19 g/m*3 -1.5 C 0 km/h
2980 05-01-2015 21:15:00 -1.5 C 4.19 g/m*3 -1.5 C 0 km/h
2981 05-01-2015 21:20:00 -1.5 C 4.19 g/m*3 -1.5 C 0 km/h
2982 05-01-2015 21:25:00 -1.6 C 4.16 g/m*3 -1.6 C 0 km/h
2983 05-01-2015 21:30:00 -1.6 C 4.16 g/m*3 -1.6 C 0 km/h
2984 05-01-2015 21:35:00 -1.6 C 4.16 g/m*3 -1.6 C 0 km/h
2985 05-01-2015 21:40:00 -1.6 C 4.16 g/m*3 -1.6 C 0 km/h
2986 05-01-2015 21:45:00 -1.6 C 4.16 g/m*3 -1.6 C 0 km/h
2987 05-01-2015 21:50:00 -1.6 C 4.16 g/m*3 -1.6 C 0 km/h
2988 05-01-2015 21:55:00 -1.6 C 4.21 g/m*3 -1.6 C 0 km/h
2989 05-01-2015 22:00:00 -1.6 C 4.21 g/m*3 -1.6 C 0 km/h
2990 05-01-2015 22:05:00 -1.7 C 4.13 g/m*3 -1.7 C 0 km/h
2991 05-01-2015 22:10:00 -1.7 C 4.13 g/m*3 -1.7 C 0 km/h
2992 05-01-2015 22:15:00 -1.8 C 4.1 g/m*3 -1.8 C 0 km/h
2993 05-01-2015 22:20:00 -1.8 C 4.1 g/m*3 -1.8 C 0 km/h
2994 05-01-2015 22:25:00 -1.8 C 4.1 g/m*3 -1.8 C 0 km/h
2995 05-01-2015 22:30:00 -1.8 C 4.1 g/m*3 -1.8 C 1.6 km/h
2996 05-01-2015 22:35:00 -1.8 C 4.1 g/m*3 -1.8 C 0 km/h
2997 05-01-2015 22:40:00 -1.8 C 4.1 g/m*3 -1.8 C 0 km/h
2998 06-01-2015 07:55:00 -2.9 C 3.84 g/m*3 -2.9 C 4.8 km/h
2999 06-01-2015 08:00:00 -2.9 C 3.84 g/m*3 -2.9 C 3.2 km/h
3000 06-01-2015 08:05:00 -2.9 C 3.84 g/m*3 -2.9 C 1.6 km/h
Sensor: Nr:Datum:Temp:Abs-Feuchte:Windchill:Wind:
Aussen-T/F 3001 06-01-2015 08:10:00 -2.9 C 3.84 g/m*3 -2.9 C 3.2 km/h
3002 06-01-2015 08:15:00 -2.9 C 3.84 g/m*3 -2.9 C 3.2 km/h
3003 06-01-2015 13:05:00 -1.4 C 4.26 g/m*3 -1.4 C 3.2 km/h
3004 06-01-2015 13:10:00 -1.3 C 4.29 g/m*3 -1.3 C 0 km/h
3005 06-01-2015 13:15:00 -1.3 C 4.29 g/m*3 -1.3 C 0 km/h
3006 06-01-2015 13:20:00 -1.3 C 4.29 g/m*3 -1.3 C 0 km/h
3007 06-01-2015 13:25:00 -1.3 C 4.29 g/m*3 -1.3 C 1.6 km/h
3008 06-01-2015 19:40:00 1.1 C 4.7 g/m*3 -2.66 C 12.9 km/h
3009 06-01-2015 19:45:00 1.1 C 4.7 g/m*3 -2.97 C 14.5 km/h
3010 06-01-2015 19:50:00 1.1 C 4.7 g/m*3 -2.97 C 14.5 km/h
3011 06-01-2015 19:55:00 1.1 C 4.7 g/m*3 -2.66 C 12.9 km/h
3012 06-01-2015 20:00:00 0.9 C 4.64 g/m*3 -3.21 C 14.5 km/h
3013 06-01-2015 20:05:00 0.9 C 4.64 g/m*3 -2.16 C 9.7 km/h
3014 06-01-2015 20:10:00 0.8 C 4.61 g/m*3 -4.13 C 19.3 km/h
3015 06-01-2015 20:15:00 0.8 C 4.61 g/m*3 -3.02 C 12.9 km/h
3016 06-01-2015 20:20:00 0.8 C 4.61 g/m*3 -3.02 C 12.9 km/h
3017 06-01-2015 20:25:00 0.8 C 4.61 g/m*3 -2.67 C 11.3 km/h
3018 06-01-2015 21:20:00 0.7 C 4.68 g/m*3 -1.95 C 8.1 km/h
3019 06-01-2015 21:25:00 0.7 C 4.68 g/m*3 -2.8 C 11.3 km/h
3020 06-01-2015 21:30:00 0.7 C 4.68 g/m*3 -2.8 C 11.3 km/h
3021 06-01-2015 21:35:00 0.8 C 4.71 g/m*3 -2.28 C 9.7 km/h
3022 06-01-2015 21:40:00 0.8 C 4.71 g/m*3 -2.28 C 9.7 km/h
3023 06-01-2015 21:45:00 0.8 C 4.71 g/m*3 -2.28 C 9.7 km/h
3024 06-01-2015 21:50:00 0.8 C 4.71 g/m*3 -2.67 C 11.3 km/h
3025 06-01-2015 21:55:00 0.8 C 4.71 g/m*3 -3.34 C 14.5 km/h
Sensor: Nr:Datum:Temp:Abs-Feuchte:Windchill:Wind:
Aussen-T/F 3026 06-01-2015 22:00:00 0.9 C 4.74 g/m*3 -1.14 C 6.4 km/h
3027 06-01-2015 22:05:00 1 C 4.78 g/m*3 -2.78 C 12.9 km/h
3028 06-01-2015 22:10:00 1 C 4.78 g/m*3 -1.59 C 8.1 km/h
3029 06-01-2015 22:15:00 1.1 C 4.81 g/m*3 -1.92 C 9.7 km/h
3030 06-01-2015 22:20:00 1.1 C 4.81 g/m*3 -1.48 C 8.1 km/h
3031 06-01-2015 22:25:00 1.1 C 4.81 g/m*3 -2.31 C 11.3 km/h
3032 06-01-2015 22:30:00 1.2 C 4.84 g/m*3 -0.8 C 6.4 km/h
3033 06-01-2015 22:35:00 1.3 C 4.87 g/m*3 -0.68 C 6.4 km/h
3034 06-01-2015 22:40:00 1.3 C 4.87 g/m*3 1.3 C 1.6 km/h
3035 06-01-2015 22:45:00 1.3 C 4.87 g/m*3 1.3 C 1.6 km/h
3036 06-01-2015 22:50:00 1.3 C 4.87 g/m*3 1.3 C 4.8 km/h
3037 06-01-2015 22:55:00 1.2 C 4.84 g/m*3 1.2 C 0 km/h
3038 06-01-2015 23:00:00 1.2 C 4.84 g/m*3 -1.8 C 9.7 km/h
3039 06-01-2015 23:05:00 1.2 C 4.84 g/m*3 1.2 C 4.8 km/h
3040 06-01-2015 23:10:00 1.2 C 4.84 g/m*3 1.2 C 3.2 km/h
3041 06-01-2015 23:15:00 1.3 C 4.93 g/m*3 -0.68 C 6.4 km/h
3042 06-01-2015 23:20:00 1.4 C 4.96 g/m*3 -2.29 C 12.9 km/h
3043 06-01-2015 23:25:00 1.6 C 5.03 g/m*3 -1.33 C 9.7 km/h
3044 06-01-2015 23:30:00 1.6 C 5.03 g/m*3 1.6 C 4.8 km/h
3045 06-01-2015 23:35:00 1.6 C 4.97 g/m*3 -0.33 C 6.4 km/h
3046 06-01-2015 23:40:00 1.6 C 4.97 g/m*3 1.6 C 4.8 km/h
3047 06-01-2015 23:45:00 1.5 C 4.94 g/m*3 1.5 C 4.8 km/h
3048 06-01-2015 23:50:00 1.5 C 4.99 g/m*3 -0.45 C 6.4 km/h
3049 06-01-2015 23:55:00 1.5 C 4.99 g/m*3 -2.17 C 12.9 km/h
3050 07-01-2015 00:00:00 1.5 C 4.99 g/m*3 -1.01 C 8.1 km/h
Sensor: Nr:Datum:Temp:Abs-Feuchte:Windchill:Wind:
Aussen-T/F 3051 07-01-2015 00:05:00 1.6 C 5.03 g/m*3 -0.33 C 6.4 km/h
3052 07-01-2015 00:10:00 1.6 C 5.03 g/m*3 -0.33 C 6.4 km/h
3053 07-01-2015 00:15:00 1.6 C 5.03 g/m*3 -0.33 C 6.4 km/h
3054 07-01-2015 00:20:00 1.6 C 5.03 g/m*3 -0.33 C 6.4 km/h
3055 07-01-2015 00:25:00 1.6 C 5.03 g/m*3 -0.89 C 8.1 km/h
3056 07-01-2015 00:30:00 1.6 C 5.03 g/m*3 1.6 C 3.2 km/h
3057 07-01-2015 00:35:00 1.6 C 5.08 g/m*3 -0.33 C 6.4 km/h
3058 07-01-2015 00:40:00 1.7 C 5.12 g/m*3 -0.22 C 6.4 km/h
3059 07-01-2015 00:45:00 1.7 C 5.12 g/m*3 1.7 C 3.2 km/h
3060 07-01-2015 00:50:00 1.7 C 5.12 g/m*3 1.7 C 3.2 km/h
3061 07-01-2015 00:55:00 1.7 C 5.12 g/m*3 1.7 C 3.2 km/h
3062 07-01-2015 01:00:00 1.8 C 5.15 g/m*3 -1.09 C 9.7 km/h
3063 07-01-2015 01:05:00 1.9 C 5.19 g/m*3 -0.97 C 9.7 km/h
3064 07-01-2015 01:10:00 1.9 C 5.19 g/m*3 1.9 C 4.8 km/h
3065 07-01-2015 01:15:00 1.9 C 5.19 g/m*3 0.01 C 6.4 km/h
3066 07-01-2015 01:20:00 2 C 5.22 g/m*3 -2.14 C 16.1 km/h
3067 07-01-2015 01:25:00 2.1 C 5.26 g/m*3 -0.73 C 9.7 km/h
3068 07-01-2015 01:30:00 2.1 C 5.26 g/m*3 -0.73 C 9.7 km/h
3069 07-01-2015 01:35:00 2.2 C 5.29 g/m*3 2.2 C 4.8 km/h
3070 07-01-2015 01:40:00 2.1 C 5.2 g/m*3 -1.74 C 14.5 km/h
3071 07-01-2015 01:45:00 2.2 C 5.29 g/m*3 2.2 C 4.8 km/h
3072 07-01-2015 01:50:00 2.2 C 5.29 g/m*3 0.36 C 6.4 km/h
3073 07-01-2015 01:55:00 2.2 C 5.29 g/m*3 0.36 C 6.4 km/h
3074 07-01-2015 02:00:00 2.2 C 5.29 g/m*3 2.2 C 3.2 km/h
3075 07-01-2015 02:05:00 2.2 C 5.29 g/m*3 2.2 C 3.2 km/h
Sensor: Nr:Datum:Temp:Abs-Feuchte:Windchill:Wind:
Aussen-T/F 3076 07-01-2015 02:10:00 2.2 C 5.29 g/m*3 2.2 C 4.8 km/h
3077 07-01-2015 02:15:00 2.2 C 5.29 g/m*3 -0.18 C 8.1 km/h
3078 07-01-2015 02:20:00 2.3 C 5.33 g/m*3 -0.87 C 11.3 km/h
3079 07-01-2015 02:25:00 2.3 C 5.33 g/m*3 -0.49 C 9.7 km/h
3080 07-01-2015 02:30:00 2.3 C 5.33 g/m*3 0.47 C 6.4 km/h
3081 07-01-2015 02:35:00 2.3 C 5.33 g/m*3 -0.07 C 8.1 km/h
3082 07-01-2015 02:40:00 2.2 C 5.29 g/m*3 -0.61 C 9.7 km/h
3083 07-01-2015 02:45:00 2.2 C 5.29 g/m*3 0.36 C 6.4 km/h
3084 07-01-2015 02:50:00 2.2 C 5.29 g/m*3 0.36 C 6.4 km/h
3085 07-01-2015 02:55:00 2.3 C 5.33 g/m*3 2.3 C 4.8 km/h
3086 07-01-2015 03:00:00 2.3 C 5.33 g/m*3 0.47 C 6.4 km/h
3087 07-01-2015 03:05:00 2.3 C 5.33 g/m*3 -0.87 C 11.3 km/h
3088 07-01-2015 03:10:00 2.4 C 5.37 g/m*3 -0.74 C 11.3 km/h
3089 07-01-2015 03:15:00 2.6 C 5.44 g/m*3 0.29 C 8.1 km/h
3090 07-01-2015 03:20:00 2.6 C 5.38 g/m*3 -0.14 C 9.7 km/h
3091 07-01-2015 03:25:00 2.5 C 5.35 g/m*3 -0.62 C 11.3 km/h
3092 07-01-2015 03:30:00 2.4 C 5.31 g/m*3 0.59 C 6.4 km/h
3093 07-01-2015 03:35:00 2.5 C 5.4 g/m*3 -0.26 C 9.7 km/h
3094 07-01-2015 03:40:00 2.5 C 5.35 g/m*3 -0.26 C 9.7 km/h
3095 07-01-2015 03:45:00 2.6 C 5.44 g/m*3 -0.5 C 11.3 km/h
3096 07-01-2015 03:50:00 2.6 C 5.44 g/m*3 0.82 C 6.4 km/h
3097 07-01-2015 03:55:00 2.5 C 5.4 g/m*3 0.71 C 6.4 km/h
3098 07-01-2015 04:00:00 2.4 C 5.37 g/m*3 0.59 C 6.4 km/h
3099 07-01-2015 04:05:00 2.4 C 5.37 g/m*3 2.4 C 4.8 km/h
3100 07-01-2015 04:10:00 2.4 C 5.37 g/m*3 -1.37 C 14.5 km/h
Sensor: Nr:Datum:Temp:Abs-Feuchte:Windchill:Wind:
Aussen-T/F 3101 07-01-2015 04:15:00 2.4 C 5.37 g/m*3 -0.37 C 9.7 km/h
3102 07-01-2015 04:20:00 2.4 C 5.37 g/m*3 -0.74 C 11.3 km/h
3103 07-01-2015 04:25:00 2.5 C 5.4 g/m*3 -0.26 C 9.7 km/h
3104 07-01-2015 04:30:00 2.5 C 5.4 g/m*3 -1.52 C 16.1 km/h
3105 07-01-2015 04:35:00 2.5 C 5.4 g/m*3 0.17 C 8.1 km/h
3106 07-01-2015 04:40:00 2.6 C 5.44 g/m*3 -0.5 C 11.3 km/h
3107 07-01-2015 04:45:00 2.5 C 5.4 g/m*3 0.71 C 6.4 km/h
3108 07-01-2015 04:50:00 2.5 C 5.4 g/m*3 -0.62 C 11.3 km/h
3109 07-01-2015 04:55:00 2.4 C 5.37 g/m*3 2.4 C 4.8 km/h
3110 07-01-2015 05:00:00 2.4 C 5.37 g/m*3 0.59 C 6.4 km/h
3111 07-01-2015 05:05:00 2.4 C 5.37 g/m*3 2.4 C 4.8 km/h
3112 07-01-2015 05:10:00 2.4 C 5.37 g/m*3 0.05 C 8.1 km/h
3113 07-01-2015 05:15:00 2.5 C 5.4 g/m*3 -0.26 C 9.7 km/h
3114 07-01-2015 05:20:00 2.5 C 5.4 g/m*3 0.71 C 6.4 km/h
3115 07-01-2015 05:25:00 2.6 C 5.44 g/m*3 2.6 C 4.8 km/h
3116 07-01-2015 05:30:00 2.6 C 5.44 g/m*3 0.82 C 6.4 km/h
3117 07-01-2015 05:35:00 2.6 C 5.44 g/m*3 -0.5 C 11.3 km/h
3118 07-01-2015 05:40:00 2.5 C 5.4 g/m*3 0.71 C 6.4 km/h
3119 07-01-2015 05:45:00 2.5 C 5.4 g/m*3 0.71 C 6.4 km/h
3120 07-01-2015 05:50:00 2.4 C 5.37 g/m*3 2.4 C 4.8 km/h
3121 07-01-2015 05:55:00 2.3 C 5.33 g/m*3 2.3 C 4.8 km/h
3122 07-01-2015 06:00:00 2.1 C 5.26 g/m*3 2.1 C 3.2 km/h
3123 07-01-2015 06:05:00 1.9 C 5.19 g/m*3 1.9 C 3.2 km/h
3124 07-01-2015 06:10:00 1.8 C 5.15 g/m*3 1.8 C 1.6 km/h
3125 07-01-2015 06:15:00 1.7 C 5.17 g/m*3 1.7 C 3.2 km/h
Sensor: Nr:Datum:Temp:Abs-Feuchte:Windchill:Wind:
Aussen-T/F 3126 07-01-2015 06:20:00 1.6 C 5.14 g/m*3 1.6 C 1.6 km/h
3127 07-01-2015 06:25:00 1.6 C 5.14 g/m*3 1.6 C 1.6 km/h
3128 07-01-2015 06:30:00 1.4 C 5.07 g/m*3 1.4 C 0 km/h
3129 07-01-2015 06:35:00 1.4 C 5.12 g/m*3 1.4 C 1.6 km/h
3130 07-01-2015 06:40:00 1.4 C 5.12 g/m*3 1.4 C 4.8 km/h
3131 07-01-2015 06:45:00 1.5 C 5.16 g/m*3 1.5 C 4.8 km/h
3132 07-01-2015 06:50:00 1.4 C 5.12 g/m*3 1.4 C 3.2 km/h
3133 07-01-2015 06:55:00 1.4 C 5.12 g/m*3 1.4 C 4.8 km/h
3134 07-01-2015 07:00:00 1.3 C 5.09 g/m*3 1.3 C 4.8 km/h
3135 07-01-2015 07:05:00 1.3 C 5.09 g/m*3 1.3 C 3.2 km/h
3136 07-01-2015 07:10:00 1.4 C 5.12 g/m*3 1.4 C 3.2 km/h
3137 07-01-2015 07:15:00 1.5 C 5.16 g/m*3 1.5 C 3.2 km/h
3138 07-01-2015 07:20:00 1.4 C 5.12 g/m*3 1.4 C 3.2 km/h
3139 07-01-2015 07:25:00 1.4 C 5.12 g/m*3 1.4 C 3.2 km/h
3140 07-01-2015 07:30:00 1.4 C 5.12 g/m*3 -0.56 C 6.4 km/h
3141 07-01-2015 07:35:00 1.4 C 5.12 g/m*3 1.4 C 3.2 km/h
3142 07-01-2015 07:40:00 1.3 C 5.09 g/m*3 1.3 C 1.6 km/h
3143 07-01-2015 07:45:00 1.3 C 5.09 g/m*3 -0.68 C 6.4 km/h
3144 07-01-2015 07:50:00 1.4 C 5.12 g/m*3 1.4 C 3.2 km/h
3145 07-01-2015 07:55:00 1.3 C 5.09 g/m*3 1.3 C 3.2 km/h
3146 07-01-2015 08:00:00 1.3 C 5.09 g/m*3 1.3 C 3.2 km/h
3147 07-01-2015 08:05:00 1.3 C 5.14 g/m*3 1.3 C 4.8 km/h
3148 07-01-2015 08:10:00 1.4 C 5.17 g/m*3 1.4 C 4.8 km/h
3149 07-01-2015 08:15:00 1.5 C 5.21 g/m*3 -1.01 C 8.1 km/h
3150 07-01-2015 08:20:00 1.6 C 5.25 g/m*3 1.6 C 4.8 km/h
Sensor: Nr:Datum:Temp:Abs-Feuchte:Windchill:Wind:
Aussen-T/F 3151 07-01-2015 08:25:00 1.7 C 5.28 g/m*3 -0.22 C 6.4 km/h
3152 07-01-2015 08:30:00 1.7 C 5.28 g/m*3 -0.22 C 6.4 km/h
3153 07-01-2015 08:35:00 1.7 C 5.23 g/m*3 -0.22 C 6.4 km/h
3154 07-01-2015 08:40:00 1.8 C 5.26 g/m*3 1.8 C 3.2 km/h
3155 07-01-2015 08:45:00 1.8 C 5.26 g/m*3 1.8 C 3.2 km/h
3156 07-01-2015 08:50:00 1.8 C 5.26 g/m*3 -0.65 C 8.1 km/h
3157 07-01-2015 08:55:00 1.9 C 5.35 g/m*3 1.9 C 4.8 km/h
3158 07-01-2015 09:00:00 2 C 5.33 g/m*3 2 C 4.8 km/h
3159 07-01-2015 09:05:00 2.1 C 5.37 g/m*3 2.1 C 4.8 km/h
3160 07-01-2015 09:10:00 2 C 5.33 g/m*3 2 C 3.2 km/h
3161 07-01-2015 09:15:00 2 C 5.33 g/m*3 2 C 1.6 km/h
3162 07-01-2015 09:20:00 2 C 5.33 g/m*3 2 C 3.2 km/h
3163 07-01-2015 09:25:00 2.1 C 5.37 g/m*3 2.1 C 4.8 km/h
3164 07-01-2015 09:30:00 2.1 C 5.37 g/m*3 2.1 C 0 km/h
3165 07-01-2015 09:35:00 2.1 C 5.37 g/m*3 2.1 C 4.8 km/h
3166 07-01-2015 09:40:00 2.1 C 5.37 g/m*3 2.1 C 3.2 km/h
3167 07-01-2015 11:40:00 3.2 C 5.54 g/m*3 -0.1 C 12.9 km/h
3168 07-01-2015 11:45:00 3.3 C 5.58 g/m*3 1.63 C 6.4 km/h
3169 07-01-2015 11:50:00 3.2 C 5.54 g/m*3 0.58 C 9.7 km/h
3170 07-01-2015 11:55:00 3.2 C 5.54 g/m*3 3.2 C 4.8 km/h
3171 07-01-2015 12:00:00 3.1 C 5.51 g/m*3 1.4 C 6.4 km/h
3172 07-01-2015 12:05:00 3.1 C 5.51 g/m*3 3.1 C 4.8 km/h
3173 07-01-2015 12:10:00 3.2 C 5.54 g/m*3 1.51 C 6.4 km/h
3174 07-01-2015 12:15:00 3.1 C 5.51 g/m*3 1.4 C 6.4 km/h
3175 07-01-2015 12:20:00 3.1 C 5.51 g/m*3 3.1 C 4.8 km/h
Sensor: Nr:Datum:Temp:Abs-Feuchte:Windchill:Wind:
Aussen-T/F 3176 07-01-2015 12:25:00 3.1 C 5.51 g/m*3 0.1 C 11.3 km/h
3177 07-01-2015 12:30:00 3.2 C 5.54 g/m*3 0.58 C 9.7 km/h
3178 07-01-2015 12:35:00 3.2 C 5.48 g/m*3 1.51 C 6.4 km/h
3179 07-01-2015 12:40:00 3.2 C 5.54 g/m*3 0.22 C 11.3 km/h
3180 07-01-2015 12:45:00 3.3 C 5.52 g/m*3 0.34 C 11.3 km/h
3181 07-01-2015 12:50:00 3.3 C 5.52 g/m*3 1.11 C 8.1 km/h
3182 07-01-2015 12:55:00 3.4 C 5.56 g/m*3 0.46 C 11.3 km/h
3183 07-01-2015 13:00:00 3.4 C 5.5 g/m*3 0.46 C 11.3 km/h
3184 07-01-2015 13:05:00 3.4 C 5.5 g/m*3 0.46 C 11.3 km/h
3185 07-01-2015 13:10:00 3.4 C 5.5 g/m*3 1.75 C 6.4 km/h
3186 07-01-2015 13:15:00 3.4 C 5.5 g/m*3 1.23 C 8.1 km/h
3187 07-01-2015 13:20:00 3.4 C 5.56 g/m*3 1.75 C 6.4 km/h
3188 07-01-2015 13:25:00 3.4 C 5.56 g/m*3 0.46 C 11.3 km/h
3189 07-01-2015 13:30:00 3.4 C 5.56 g/m*3 1.23 C 8.1 km/h
3190 07-01-2015 13:35:00 3.4 C 5.56 g/m*3 0.82 C 9.7 km/h
3191 07-01-2015 13:40:00 3.4 C 5.5 g/m*3 -0.14 C 14.5 km/h
3192 07-01-2015 13:45:00 3.4 C 5.5 g/m*3 1.23 C 8.1 km/h
3193 07-01-2015 13:50:00 3.4 C 5.5 g/m*3 0.14 C 12.9 km/h
3194 07-01-2015 13:55:00 3.5 C 5.53 g/m*3 0.58 C 11.3 km/h
3195 07-01-2015 14:00:00 3.5 C 5.53 g/m*3 0.94 C 9.7 km/h
3196 07-01-2015 14:05:00 3.5 C 5.53 g/m*3 1.86 C 6.4 km/h
3197 07-01-2015 14:10:00 3.5 C 5.53 g/m*3 0.94 C 9.7 km/h
3198 07-01-2015 14:15:00 3.4 C 5.5 g/m*3 -0.4 C 16.1 km/h
3199 07-01-2015 14:20:00 3.4 C 5.5 g/m*3 0.46 C 11.3 km/h
3200 07-01-2015 14:25:00 3.4 C 5.5 g/m*3 0.82 C 9.7 km/h
Sensor: Nr:Datum:Temp:Abs-Feuchte:Windchill:Wind:
Aussen-T/F 3201 07-01-2015 14:30:00 3.4 C 5.44 g/m*3 0.46 C 11.3 km/h
3202 07-01-2015 14:35:00 3.4 C 5.44 g/m*3 0.82 C 9.7 km/h
3203 07-01-2015 14:40:00 3.4 C 5.44 g/m*3 0.82 C 9.7 km/h
3204 07-01-2015 14:45:00 3.4 C 5.44 g/m*3 0.82 C 9.7 km/h
3205 07-01-2015 14:50:00 3.4 C 5.44 g/m*3 0.14 C 12.9 km/h
3206 07-01-2015 14:55:00 3.4 C 5.44 g/m*3 0.46 C 11.3 km/h
3207 07-01-2015 15:00:00 3.4 C 5.44 g/m*3 3.4 C 4.8 km/h
3208 07-01-2015 15:05:00 3.4 C 5.37 g/m*3 3.4 C 4.8 km/h
3209 07-01-2015 15:10:00 3.5 C 5.47 g/m*3 0.58 C 11.3 km/h
3210 07-01-2015 15:15:00 3.5 C 5.47 g/m*3 1.86 C 6.4 km/h
3211 07-01-2015 15:20:00 3.5 C 5.47 g/m*3 1.86 C 6.4 km/h
3212 07-01-2015 15:25:00 3.5 C 5.41 g/m*3 3.5 C 4.8 km/h
3213 07-01-2015 15:30:00 3.5 C 5.47 g/m*3 3.5 C 4.8 km/h
3214 07-01-2015 15:35:00 3.4 C 5.44 g/m*3 0.82 C 9.7 km/h
3215 07-01-2015 15:40:00 3.4 C 5.37 g/m*3 1.23 C 8.1 km/h
3216 07-01-2015 15:45:00 3.3 C 5.34 g/m*3 0.7 C 9.7 km/h
3217 07-01-2015 15:50:00 3.3 C 5.4 g/m*3 0.34 C 11.3 km/h
3218 07-01-2015 15:55:00 3.3 C 5.4 g/m*3 0.7 C 9.7 km/h
3219 07-01-2015 16:00:00 3.2 C 5.36 g/m*3 0.99 C